[[{"header":{"parameterUnit":"m.s-1","parameterCategory":1,"la1":31.0,"la2":29.5877,"lo1":-88.7671,"lo2":-86.6584,"dy":0.0162,"dx":0.0185,"nx":115,"ny":88,"refTime":"2023-07-21T06:00:00:Z","depth":0,"parameterNumber":2,"parameterNumberName":"U-component_of_WINDS"},"data":[0.0,0.0,0.0,0.0,0.0,0.0,0.0,0.0,0.0,0.0,0.0,0.0,0.0,0.0,0.0,0.0,0.0,0.0,0.0,0.0,0.0,0.0,0.0,0.0,0.0,0.0,0.0,0.0,0.0,0.0,0.0,0.0,0.0,0.0,0.0,0.0,0.0,0.0,0.0,0.0,0.0,0.0,0.0,0.0,0.0,0.0,0.0,0.0,0.0,0.0,0.0,0.0,0.0,0.0,0.0,0.0,0.0,0.0,0.0,0.0,0.0,0.0,0.0,0.0,0.0,0.0,0.0,0.0,0.0,0.0,0.0,0.0,0.0,0.0,0.0,0.0,0.0,0.0,0.0,0.0,0.0,0.0,0.0,0.0,0.0,0.0,0.0,0.0,0.0,0.0,0.0,0.0,0.0,0.0,0.0,0.0,0.0,0.0,0.0,0.0,0.0,0.0,0.0,0.0,0.0,0.0,0.0,0.0,0.0,0.0,0.0,0.0,0.0,0.0,0.0,0.0,0.0,0.0,0.0,0.0,0.0,0.0,0.0,0.0,0.0,0.0,0.0,0.0,0.0,0.0,0.0,0.0,0.0,0.0,0.0,0.0,0.0,0.0,0.0,0.0,0.0,0.0,0.0,0.0,0.0,0.0,0.0,0.0,0.0,0.0,0.0,0.0,0.0,0.0,0.0,0.0,0.0,0.0,0.0,0.0,0.0,0.0,0.0,0.0,0.0,0.0,0.0,0.0,0.0,0.0,0.0,0.0,0.0,0.0,0.0,0.0,0.0,0.0,0.0,0.0,0.0,0.0,0.0,0.0,0.0,0.0,0.0,0.0,0.0,0.0,0.0,0.0,0.0,0.0,0.0,0.0,0.0,0.0,0.0,0.0,0.0,0.0,0.0,0.0,0.0,0.0,0.0,0.0,0.0,0.0,0.0,0.0,0.0,0.0,0.0,0.0,0.0,0.0,0.0,0.0,0.0,0.0,0.0,0.0,0.0,0.0,0.0,0.0,0.0,0.0,0.0,0.0,0.0,0.0,0.0,0.0,0.0,0.0,0.0,0.0,0.0,0.0,0.0,0.0,0.0,0.0,0.0,0.0,0.0,0.0,0.0,0.0,0.0,0.0,0.0,0.0,0.0,0.0,0.0,0.0,0.0,0.0,0.0,0.0,0.0,0.0,0.0,0.0,0.0,0.0,0.0,0.0,0.0,0.0,0.0,0.0,0.0,0.0,0.0,0.0,0.0,0.0,0.0,0.0,0.0,0.0,0.0,0.0,0.0,0.0,0.0,0.0,0.0,0.0,0.0,0.0,0.0,0.0,0.0,0.0,0.0,0.0,0.0,0.0,0.0,0.0,0.0,0.0,0.0,0.0,0.0,0.0,0.0,0.0,0.0,0.0,0.0,0.0,0.0,0.0,0.0,0.0,0.0,0.0,0.0,0.0,0.0,0.0,0.0,0.0,0.0,0.0,0.0,0.0,0.0,0.0,0.0,0.0,0.0,0.0,0.0,0.0,0.0,0.0,0.0,0.0,0.0,0.0,0.0,0.0,0.0,0.0,0.0,0.0,0.0,0.0,0.0,0.0,0.0,0.0,0.0,0.0,0.0,0.0,0.0,0.0,0.0,0.0,0.0,0.0,0.0,0.0,0.0,0.0,0.0,0.0,0.0,0.0,0.0,0.0,0.0,0.0,0.0,0.0,0.0,0.0,0.0,0.0,0.0,0.0,0.0,0.0,0.0,0.0,0.0,0.0,0.0,0.0,0.0,0.0,0.0,0.0,0.0,0.0,0.0,0.0,0.0,0.0,0.0,0.0,0.0,0.0,0.0,0.0,0.0,0.0,0.0,0.0,0.0,0.0,0.0,0.0,0.0,0.0,0.0,0.0,0.0,0.0,0.0,0.0,0.0,0.0,0.0,0.0,0.0,0.0,0.0,0.0,0.0,0.0,0.0,0.0,0.0,0.0,0.0,0.0,0.0,0.0,0.0,0.0,0.0,0.0,0.0,0.0,0.0,0.0,0.0,0.0,0.0,0.0,0.0,0.0,0.0,0.0,0.0,0.0,0.0,0.0,0.0,0.0,0.0,0.0,0.0,0.0,0.0,0.0,0.0,0.0,0.0,0.0,0.0,0.0,0.0,0.0,0.0,0.0,0.0,0.0,0.0,0.0,0.0,0.0,0.0,0.0,0.0,0.0,0.0,0.0,0.0,0.0,0.0,0.0,0.0,0.0,0.0,0.0,0.0,0.0,0.0,0.0,0.0,0.0,0.0,0.0,0.0,0.0,0.0,0.0,0.0,0.0,0.0,0.0,0.0,0.0,0.0,0.0,0.0,0.0,0.0,0.0,0.0,0.0,0.0,0.0,0.0,0.0,0.0,0.0,0.0,0.0,0.0,0.0,0.0,0.0,0.0,0.0,0.0,0.0,0.0,0.0,0.0,0.0,0.0,0.0,0.0,0.0,0.0,0.0,0.0,0.0,0.0,0.0,0.0,0.0,0.0,0.0,0.0,0.0,0.0,0.0,0.0,0.0,0.0,0.0,0.0,0.0,0.0,0.0,0.0,0.0,0.0,0.0,0.0,0.0,0.0,0.0,0.0,0.0,0.0,0.0,0.0,0.0,0.0,0.0,0.0,0.0,0.0,0.0,0.0,0.0,0.0,0.0,0.0,0.0,0.0,0.0,0.0,0.0,0.0,0.0,0.0,0.0,0.0,0.0,0.0,0.0,0.0,0.0,0.0,0.0,0.0,0.0,0.0,0.0,0.0,0.0,0.0,0.0,0.0,0.0,0.0,0.0,0.0,0.0,0.0,0.0,0.0,0.0,0.0,0.0,0.0,0.0,0.0,0.0,0.0,0.0,0.0,0.0,0.0,0.0,0.0,0.0,0.0,0.0,0.0,0.0,0.0,0.0,0.0,0.0,0.0,0.0,0.0,0.0,0.0,0.0,0.0,0.0,0.0,0.0,0.0,0.0,0.0,0.0,0.0,0.0,0.0,0.0,0.0,0.0,0.0,0.0,0.0,0.0,0.0,0.0,0.0,0.0,0.0,0.0,0.0,0.0,0.0,0.0,0.0,0.0,0.0,0.0,0.0,0.0,0.0,0.0,0.0,0.0,0.0,0.0,0.0,0.0,0.0,0.0,0.0,0.0,0.0,0.0,0.0,0.0,0.0,0.0,0.0,0.0,0.0,0.0,0.0,0.0,0.0,0.0,0.0,0.0,0.0,0.0,0.0,0.0,0.0,0.0,0.0,0.0,0.0,0.0,0.0,0.0,0.0,0.0,0.0,0.0,0.0,0.0,0.0,0.0,0.0,0.0,0.0,0.0,0.0,0.0,0.0,0.0,0.0,0.0,0.0,0.0,0.0,0.0,0.0,0.0,0.0,0.0,0.0,0.0,0.0,0.0,0.0,0.0,0.0,0.0,0.0,0.0,0.0,0.0,0.0,0.0,0.0,0.0,0.0,0.0,0.0,0.0,0.0,0.0,0.0,0.0,0.0,0.0,0.0,0.0,0.0,0.0,0.0,0.0,0.0,0.0,0.0,0.0,0.0,0.0,0.0,0.0,0.0,0.0,0.0,0.0,0.0,0.0,0.0,0.0,0.0,0.0,0.0,0.0,0.0,0.0,0.0,0.0,0.0,0.0,0.0,0.0,0.0,0.0,0.0,0.0,0.0,0.0,0.0,0.0,0.0,0.0,0.0,0.0,0.0,0.0,0.0,0.0,0.0,0.0,0.0,0.0,0.0,0.0,0.0,0.0,0.0,0.0,0.0,0.0,0.0,0.0,0.0,0.0,0.0,0.0,0.0,0.0,0.0,0.0,0.0,0.0,0.0,0.0,0.0,0.0,0.0,0.0,0.0,0.0,0.0,0.0,0.0,0.0,0.0,0.0,0.0,0.0,0.0,0.0,0.0,0.0,0.0,0.0,0.0,0.0,0.0,0.0,0.0,0.0,0.0,0.0,0.0,0.0,0.0,0.0,0.0,0.0,0.0,0.0,0.0,0.0,0.0,0.0,0.0,0.0,0.0,0.0,0.0,0.0,0.0,0.0,0.0,0.0,0.0,0.0,0.0,0.0,0.0,0.0,0.0,0.0,0.0,0.0,0.0,0.0,0.0,0.0,0.0,0.0,0.0,0.0,0.0,0.0,0.0,0.0,0.0,0.0,0.0,0.0,0.0,0.0,0.0,0.0,0.0,0.0,0.0,0.0,0.0,0.0,0.0,0.0,0.0,0.0,0.0,0.0,0.0,0.0,0.0,0.0,0.0,0.0,-1.9879,0.0,0.0,0.0,0.0,0.0,0.0,0.0,0.0,0.0,0.0,0.0,0.0,0.0,0.0,0.0,0.0,0.0,0.0,0.0,0.0,0.0,0.0,0.0,0.0,0.0,0.0,0.0,0.0,0.0,0.0,0.0,0.0,0.0,0.0,0.0,0.0,0.0,0.0,0.0,0.0,0.0,0.0,0.0,0.0,0.0,0.0,0.0,0.0,0.0,0.0,0.0,0.0,0.0,0.0,0.0,0.0,0.0,0.0,0.0,0.0,0.0,0.0,0.0,0.0,0.0,0.0,0.0,0.0,0.0,0.0,0.0,0.0,0.0,0.0,0.0,0.0,0.0,0.0,0.0,0.0,0.0,0.0,0.0,0.0,0.0,0.0,0.0,0.0,0.0,0.0,0.0,0.0,0.0,0.0,0.0,0.0,0.0,0.0,0.0,0.0,0.0,0.0,0.0,0.0,0.0,0.0,0.0,0.0,0.0,0.0,-2.1693,-2.169,-2.065,-2.007,-1.9984,0.0,0.0,0.0,0.0,0.0,0.0,0.0,0.0,0.0,0.0,0.0,0.0,0.0,0.0,0.0,0.0,0.0,0.0,0.0,0.0,0.0,0.0,0.0,0.0,0.0,0.0,0.0,0.0,0.0,0.0,0.0,0.0,0.0,0.0,0.0,0.0,0.0,0.0,0.0,0.0,0.0,0.0,0.0,0.0,0.0,0.0,0.0,0.0,0.0,0.0,0.0,0.0,0.0,0.0,0.0,0.0,0.0,0.0,0.0,0.0,0.0,0.0,0.0,0.0,0.0,0.0,0.0,0.0,0.0,0.0,0.0,0.0,0.0,0.0,0.0,0.0,0.0,0.0,0.0,0.0,0.0,0.0,0.0,0.0,0.0,0.0,0.0,0.0,0.0,0.0,0.0,0.0,0.0,0.0,0.0,0.0,0.0,0.0,0.0,0.0,0.0,0.0,0.0,0.0,0.0,0.0,0.0,0.0,0.0,0.0,0.0,0.0,-2.0988,-2.0321,-1.9895,0.0,0.0,0.0,0.0,0.0,0.0,0.0,0.0,0.0,0.0,0.0,0.0,0.0,0.0,0.0,0.0,0.0,0.0,0.0,0.0,0.0,0.0,0.0,0.0,0.0,0.0,0.0,0.0,0.0,0.0,0.0,0.0,0.0,0.0,0.0,0.0,0.0,0.0,0.0,0.0,0.0,0.0,0.0,0.0,0.0,0.0,0.0,0.0,0.0,0.0,0.0,0.0,0.0,0.0,0.0,0.0,0.0,0.0,0.0,0.0,0.0,0.0,0.0,0.0,0.0,0.0,0.0,0.0,0.0,0.0,0.0,0.0,0.0,0.0,0.0,0.0,0.0,0.0,0.0,0.0,0.0,0.0,0.0,0.0,0.0,0.0,0.0,0.0,0.0,0.0,0.0,0.0,0.0,0.0,0.0,0.0,0.0,0.0,0.0,0.0,0.0,0.0,0.0,0.0,0.0,0.0,0.0,0.0,0.0,0.0,-2.1773,-2.1135,-2.1686,0.0,-1.9654,0.0,0.0,0.0,0.0,0.0,0.0,0.0,0.0,0.0,0.0,0.0,0.0,0.0,0.0,0.0,0.0,0.0,0.0,0.0,0.0,0.0,0.0,0.0,0.0,0.0,0.0,0.0,0.0,0.0,0.0,0.0,0.0,0.0,0.0,0.0,0.0,0.0,0.0,0.0,0.0,0.0,0.0,0.0,0.0,0.0,0.0,0.0,0.0,0.0,0.0,0.0,0.0,0.0,0.0,0.0,0.0,0.0,0.0,0.0,0.0,0.0,0.0,0.0,0.0,0.0,0.0,0.0,0.0,0.0,0.0,0.0,0.0,0.0,0.0,0.0,0.0,0.0,0.0,0.0,0.0,0.0,0.0,0.0,0.0,0.0,0.0,0.0,0.0,0.0,0.0,0.0,0.0,0.0,0.0,0.0,0.0,0.0,0.0,0.0,0.0,0.0,0.0,0.0,0.0,0.0,0.0,0.0,0.0,0.0,0.0,-2.2188,-2.1498,-2.1288,-2.0603,0.0,0.0,0.0,0.0,0.0,0.0,0.0,0.0,0.0,0.0,0.0,0.0,0.0,0.0,0.0,0.0,0.0,0.0,0.0,0.0,0.0,0.0,0.0,0.0,0.0,0.0,0.0,0.0,0.0,0.0,0.0,0.0,0.0,0.0,0.0,0.0,0.0,0.0,0.0,0.0,0.0,0.0,0.0,0.0,0.0,0.0,0.0,0.0,0.0,0.0,0.0,0.0,0.0,0.0,0.0,0.0,0.0,0.0,0.0,0.0,0.0,0.0,0.0,0.0,0.0,0.0,0.0,0.0,0.0,0.0,0.0,0.0,0.0,0.0,0.0,0.0,0.0,0.0,0.0,0.0,0.0,0.0,0.0,0.0,0.0,0.0,0.0,0.0,0.0,0.0,0.0,0.0,0.0,0.0,0.0,0.0,0.0,0.0,0.0,0.0,0.0,0.0,0.0,0.0,0.0,0.0,0.0,0.0,0.0,0.0,-2.2721,-2.2522,-2.2029,-2.1376,-2.0496,-1.9428,0.0,0.0,0.0,0.0,0.0,0.0,0.0,0.0,0.0,0.0,0.0,0.0,0.0,0.0,0.0,0.0,0.0,0.0,0.0,0.0,0.0,0.0,0.0,0.0,0.0,0.0,0.0,0.0,0.0,0.0,0.0,0.0,0.0,0.0,0.0,0.0,0.0,0.0,0.0,0.0,0.0,0.0,0.0,0.0,0.0,0.0,0.0,0.0,0.0,0.0,0.0,0.0,0.0,0.0,0.0,0.0,0.0,0.0,0.0,0.0,0.0,0.0,0.0,0.0,0.0,0.0,0.0,0.0,0.0,0.0,0.0,0.0,0.0,0.0,0.0,0.0,0.0,0.0,0.0,0.0,0.0,0.0,0.0,0.0,0.0,0.0,0.0,0.0,0.0,0.0,0.0,0.0,0.0,0.0,0.0,0.0,0.0,0.0,0.0,0.0,0.0,0.0,0.0,0.0,0.0,0.0,0.0,0.0,-2.2575,-2.2676,-2.2655,-2.2554,-2.2419,-2.1556,0.0,0.0,0.0,0.0,0.0,0.0,0.0,0.0,0.0,0.0,0.0,0.0,0.0,0.0,0.0,0.0,0.0,0.0,0.0,0.0,0.0,0.0,0.0,0.0,0.0,0.0,0.0,0.0,0.0,0.0,0.0,0.0,0.0,0.0,0.0,0.0,0.0,0.0,0.0,0.0,0.0,0.0,0.0,0.0,0.0,0.0,0.0,0.0,0.0,0.0,0.0,0.0,0.0,0.0,0.0,0.0,0.0,0.0,0.0,0.0,0.0,0.0,0.0,0.0,0.0,0.0,0.0,0.0,0.0,0.0,0.0,0.0,0.0,0.0,0.0,0.0,0.0,0.0,0.0,0.0,0.0,0.0,0.0,0.0,0.0,0.0,0.0,0.0,0.0,0.0,0.0,0.0,0.0,0.0,0.0,0.0,0.0,0.0,0.0,0.0,0.0,0.0,0.0,0.0,0.0,0.0,0.0,0.0,0.0,-2.2385,-2.2446,-2.2398,-2.2329,-2.2175,-2.1329,0.0,0.0,0.0,0.0,0.0,0.0,0.0,0.0,0.0,0.0,0.0,0.0,0.0,0.0,0.0,0.0,0.0,0.0,0.0,0.0,0.0,0.0,0.0,0.0,0.0,0.0,0.0,0.0,0.0,0.0,0.0,0.0,0.0,0.0,0.0,0.0,0.0,0.0,0.0,0.0,0.0,0.0,0.0,0.0,0.0,0.0,0.0,0.0,0.0,0.0,0.0,0.0,0.0,0.0,0.0,0.0,0.0,0.0,0.0,0.0,0.0,0.0,0.0,0.0,0.0,0.0,0.0,0.0,0.0,0.0,0.0,0.0,0.0,0.0,0.0,0.0,0.0,0.0,0.0,0.0,0.0,0.0,0.0,0.0,0.0,0.0,0.0,0.0,0.0,0.0,0.0,0.0,0.0,0.0,0.0,0.0,0.0,0.0,0.0,0.0,0.0,0.0,0.0,0.0,0.0,0.0,0.0,0.0,0.0,-2.2454,0.0,-2.2589,-2.266,-2.2322,-2.1507,0.0,0.0,0.0,0.0,0.0,0.0,0.0,0.0,0.0,0.0,0.0,0.0,0.0,0.0,0.0,0.0,0.0,0.0,0.0,0.0,0.0,0.0,0.0,0.0,0.0,0.0,0.0,0.0,0.0,0.0,0.0,0.0,0.0,0.0,0.0,0.0,0.0,0.0,0.0,0.0,0.0,0.0,0.0,0.0,0.0,0.0,0.0,0.0,0.0,0.0,0.0,0.0,0.0,0.0,0.0,0.0,0.0,0.0,0.0,0.0,0.0,0.0,0.0,0.0,0.0,0.0,0.0,0.0,0.0,0.0,0.0,0.0,0.0,0.0,0.0,0.0,0.0,0.0,0.0,0.0,0.0,0.0,0.0,0.0,0.0,0.0,0.0,0.0,0.0,0.0,0.0,0.0,0.0,0.0,0.0,0.0,0.0,0.0,0.0,0.0,0.0,0.0,0.0,0.0,0.0,0.0,0.0,0.0,-2.2104,-2.2891,-2.3066,-2.3337,-2.3685,-2.3014,-2.2183,0.0,0.0,0.0,0.0,0.0,0.0,0.0,0.0,0.0,0.0,0.0,0.0,0.0,0.0,0.0,0.0,0.0,0.0,0.0,0.0,0.0,0.0,0.0,0.0,0.0,0.0,0.0,0.0,0.0,0.0,0.0,0.0,0.0,0.0,0.0,0.0,0.0,0.0,0.0,0.0,0.0,0.0,0.0,0.0,0.0,0.0,0.0,0.0,0.0,0.0,0.0,0.0,0.0,0.0,0.0,0.0,0.0,0.0,0.0,0.0,0.0,0.0,0.0,0.0,0.0,0.0,0.0,0.0,0.0,0.0,0.0,0.0,0.0,0.0,0.0,0.0,0.0,0.0,0.0,0.0,0.0,0.0,0.0,0.0,0.0,0.0,0.0,0.0,0.0,0.0,0.0,0.0,0.0,0.0,0.0,0.0,0.0,0.0,0.0,0.0,0.0,0.0,0.0,0.0,0.0,0.0,0.0,0.0,0.0,-2.3924,-2.448,-2.4818,-2.4922,-2.4188,-2.3114,0.0,0.0,0.0,0.0,0.0,0.0,0.0,0.0,0.0,0.0,0.0,0.0,0.0,0.0,0.0,0.0,0.0,0.0,0.0,0.0,0.0,0.0,0.0,0.0,0.0,0.0,0.0,0.0,0.0,0.0,0.0,0.0,0.0,0.0,0.0,0.0,0.0,0.0,0.0,0.0,0.0,0.0,0.0,0.0,0.0,0.0,0.0,0.0,0.0,0.0,0.0,0.0,0.0,0.0,0.0,0.0,0.0,0.0,0.0,0.0,0.0,0.0,0.0,0.0,0.0,0.0,0.0,0.0,0.0,0.0,0.0,0.0,0.0,0.0,0.0,0.0,0.0,0.0,0.0,0.0,0.0,0.0,0.0,0.0,0.0,0.0,0.0,0.0,0.0,0.0,0.0,0.0,0.0,0.0,0.0,0.0,0.0,0.0,0.0,0.0,0.0,0.0,0.0,0.0,0.0,0.0,0.0,0.0,0.0,-2.5695,-2.6251,-2.6504,-2.6462,-2.5726,-2.4552,-2.2928,0.0,0.0,0.0,0.0,0.0,0.0,0.0,0.0,0.0,0.0,0.0,0.0,0.0,0.0,0.0,0.0,0.0,0.0,0.0,0.0,0.0,0.0,0.0,0.0,0.0,0.0,0.0,0.0,0.0,0.0,0.0,0.0,0.0,0.0,0.0,0.0,0.0,0.0,0.0,0.0,0.0,0.0,0.0,0.0,0.0,0.0,0.0,0.0,0.0,0.0,0.0,0.0,0.0,0.0,0.0,0.0,0.0,0.0,0.0,0.0,0.0,0.0,0.0,0.0,0.0,0.0,0.0,0.0,0.0,0.0,0.0,0.0,0.0,0.0,0.0,0.0,0.0,0.0,0.0,0.0,0.0,0.0,0.0,0.0,0.0,0.0,0.0,0.0,0.0,0.0,0.0,0.0,0.0,0.0,0.0,0.0,0.0,0.0,0.0,0.0,0.0,0.0,0.0,0.0,0.0,0.0,0.0,0.0,-2.8071,-2.8398,-2.8459,-2.8252,-2.7594,-2.6397,0.0,0.0,0.0,0.0,0.0,0.0,0.0,0.0,0.0,0.0,0.0,0.0,0.0,0.0,0.0,0.0,0.0,0.0,0.0,0.0,0.0,0.0,0.0,0.0,0.0,0.0,0.0,0.0,0.0,0.0,0.0,0.0,0.0,0.0,0.0,0.0,0.0,0.0,0.0,0.0,0.0,0.0,0.0,0.0,0.0,0.0,0.0,0.0,0.0,0.0,0.0,0.0,0.0,0.0,0.0,0.0,0.0,0.0,0.0,0.0,0.0,0.0,0.0,0.0,0.0,0.0,0.0,0.0,0.0,0.0,0.0,0.0,0.0,0.0,0.0,0.0,0.0,0.0,0.0,0.0,0.0,0.0,0.0,0.0,0.0,0.0,0.0,0.0,0.0,0.0,0.0,0.0,0.0,0.0,0.0,0.0,0.0,0.0,0.0,0.0,0.0,0.0,0.0,0.0,0.0,0.0,0.0,0.0,0.0,-2.9284,-3.1439,-3.1796,-3.022,-2.9426,-2.7875,0.0,0.0,0.0,0.0,0.0,0.0,0.0,0.0,0.0,0.0,0.0,0.0,0.0,0.0,0.0,0.0,0.0,0.0,0.0,0.0,0.0,0.0,0.0,0.0,0.0,0.0,0.0,0.0,0.0,0.0,0.0,0.0,0.0,0.0,0.0,0.0,0.0,0.0,0.0,0.0,0.0,0.0,0.0,0.0,0.0,0.0,0.0,0.0,0.0,0.0,0.0,0.0,0.0,0.0,0.0,0.0,0.0,0.0,0.0,0.0,0.0,0.0,0.0,0.0,0.0,0.0,0.0,0.0,0.0,0.0,0.0,0.0,0.0,0.0,0.0,0.0,0.0,0.0,0.0,0.0,0.0,0.0,0.0,0.0,0.0,0.0,0.0,0.0,0.0,0.0,0.0,0.0,0.0,0.0,0.0,0.0,0.0,0.0,0.0,0.0,0.0,0.0,0.0,0.0,0.0,0.0,0.0,0.0,-2.8256,-3.0392,-3.2915,-3.3634,-3.2418,-3.1482,-2.9462,0.0,0.0,0.0,0.0,0.0,0.0,0.0,0.0,0.0,0.0,0.0,0.0,0.0,0.0,0.0,0.0,0.0,0.0,0.0,0.0,0.0,0.0,0.0,0.0,0.0,0.0,0.0,0.0,0.0,0.0,0.0,0.0,0.0,0.0,0.0,0.0,0.0,0.0,0.0,0.0,0.0,0.0,0.0,0.0,0.0,0.0,0.0,0.0,0.0,0.0,0.0,0.0,0.0,0.0,0.0,0.0,0.0,0.0,0.0,0.0,0.0,0.0,0.0,0.0,0.0,0.0,0.0,0.0,0.0,0.0,0.0,0.0,0.0,0.0,0.0,0.0,0.0,0.0,0.0,0.0,0.0,0.0,0.0,0.0,0.0,0.0,0.0,0.0,0.0,0.0,0.0,0.0,0.0,0.0,0.0,0.0,0.0,0.0,0.0,0.0,0.0,0.0,0.0,0.0,0.0,0.0,0.0,0.0,-2.9423,-3.1441,-3.3542,-3.4675,-3.464,-3.3373,-3.103,0.0,0.0,0.0,0.0,0.0,0.0,0.0,0.0,0.0,0.0,0.0,0.0,0.0,0.0,0.0,0.0,0.0,0.0,0.0,0.0,0.0,0.0,0.0,0.0,0.0,0.0,0.0,0.0,0.0,0.0,0.0,0.0,0.0,0.0,0.0,0.0,0.0,0.0,0.0,0.0,0.0,0.0,0.0,0.0,0.0,0.0,0.0,0.0,0.0,0.0,0.0,0.0,0.0,0.0,0.0,0.0,0.0,0.0,0.0,0.0,0.0,0.0,0.0,0.0,0.0,0.0,0.0,0.0,0.0,0.0,0.0,0.0,0.0,0.0,0.0,0.0,0.0,0.0,0.0,0.0,0.0,0.0,0.0,0.0,0.0,0.0,0.0,0.0,0.0,0.0,0.0,0.0,0.0,0.0,0.0,0.0,0.0,0.0,0.0,0.0,0.0,0.0,0.0,0.0,0.0,0.0,0.0,0.0,-2.99,-3.2354,-3.4891,-3.612,-3.5904,-3.3885,-3.1604,0.0,0.0,0.0,0.0,0.0,0.0,0.0,0.0,0.0,0.0,0.0,0.0,0.0,0.0,0.0,0.0,0.0,0.0,0.0,0.0,0.0,0.0,0.0,0.0,0.0,0.0,0.0,0.0,0.0,0.0,0.0,0.0,0.0,0.0,0.0,0.0,0.0,0.0,0.0,0.0,0.0,0.0,0.0,0.0,0.0,0.0,0.0,0.0,-1.7143,0.0,0.0,0.0,0.0,0.0,0.0,0.0,0.0,0.0,0.0,0.0,0.0,0.0,0.0,0.0,0.0,0.0,0.0,0.0,0.0,0.0,0.0,0.0,0.0,0.0,0.0,0.0,0.0,0.0,0.0,0.0,0.0,0.0,0.0,0.0,0.0,0.0,0.0,0.0,0.0,0.0,0.0,0.0,0.0,0.0,0.0,0.0,0.0,0.0,0.0,0.0,0.0,0.0,0.0,0.0,0.0,0.0,0.0,0.0,-3.0919,-3.3673,-3.5615,-3.6742,-3.6984,-3.5236,-3.2804,0.0,0.0,0.0,0.0,0.0,0.0,0.0,0.0,0.0,0.0,0.0,0.0,0.0,0.0,0.0,0.0,0.0,0.0,0.0,0.0,0.0,0.0,0.0,0.0,0.0,0.0,0.0,0.0,0.0,0.0,0.0,0.0,0.0,0.0,0.0,0.0,0.0,0.0,0.0,0.0,0.0,0.0,0.0,0.0,0.0,0.0,0.0,0.0,0.0,0.0,0.0,0.0,0.0,0.0,0.0,0.0,0.0,0.0,0.0,0.0,0.0,0.0,0.0,0.0,0.0,0.0,0.0,0.0,0.0,0.0,0.0,0.0,0.0,0.0,0.0,0.0,0.0,0.0,0.0,0.0,0.0,0.0,0.0,0.0,0.0,0.0,0.0,0.0,0.0,0.0,0.0,0.0,0.0,0.0,0.0,0.0,0.0,0.0,0.0,0.0,0.0,0.0,0.0,0.0,0.0,0.0,0.0,-2.951,-3.1978,-3.502,-3.6105,-3.7061,-3.7939,-3.6627,-3.4121,-3.0344,0.0,0.0,0.0,0.0,0.0,0.0,0.0,0.0,0.0,0.0,0.0,0.0,0.0,0.0,0.0,0.0,0.0,0.0,0.0,0.0,0.0,0.0,0.0,0.0,0.0,0.0,0.0,0.0,0.0,0.0,0.0,0.0,0.0,0.0,0.0,0.0,0.0,0.0,-1.7888,-1.87,0.0,0.0,0.0,0.0,0.0,0.0,0.0,0.0,-1.8607,0.0,0.0,0.0,0.0,0.0,0.0,0.0,0.0,0.0,0.0,0.0,0.0,0.0,0.0,0.0,0.0,0.0,0.0,0.0,0.0,0.0,0.0,0.0,0.0,0.0,0.0,0.0,0.0,0.0,0.0,0.0,0.0,0.0,0.0,0.0,0.0,0.0,0.0,0.0,0.0,0.0,0.0,0.0,0.0,0.0,0.0,0.0,0.0,0.0,0.0,0.0,0.0,0.0,0.0,0.0,0.0,-2.8372,-2.9715,-3.2306,-3.6063,-3.7207,-3.7839,-3.7965,-3.6892,-3.4847,-3.1789,0.0,0.0,0.0,0.0,0.0,0.0,0.0,0.0,0.0,0.0,0.0,0.0,0.0,0.0,0.0,0.0,0.0,0.0,0.0,0.0,0.0,0.0,0.0,0.0,0.0,0.0,0.0,0.0,0.0,0.0,0.0,0.0,0.0,0.0,0.0,0.0,0.0,0.0,0.0,-2.0152,-2.0525,0.0,0.0,0.0,0.0,0.0,0.0,0.0,0.0,-2.0006,0.0,0.0,0.0,0.0,0.0,0.0,0.0,0.0,0.0,0.0,0.0,0.0,0.0,0.0,0.0,0.0,0.0,0.0,0.0,0.0,0.0,0.0,0.0,0.0,0.0,0.0,0.0,0.0,0.0,0.0,0.0,0.0,0.0,0.0,0.0,0.0,0.0,0.0,0.0,0.0,0.0,0.0,0.0,0.0,0.0,0.0,0.0,0.0,0.0,0.0,0.0,0.0,0.0,0.0,0.0,-2.9045,-3.0991,-3.3555,-3.6707,-3.7889,-3.8592,-3.8818,-3.7253,-3.5081,0.0,0.0,0.0,0.0,0.0,0.0,0.0,0.0,0.0,0.0,0.0,0.0,0.0,0.0,0.0,0.0,0.0,0.0,0.0,0.0,0.0,0.0,0.0,0.0,0.0,0.0,0.0,0.0,0.0,0.0,0.0,0.0,0.0,0.0,0.0,0.0,0.0,0.0,0.0,0.0,-2.1274,-2.1733,-2.1719,0.0,0.0,0.0,0.0,0.0,0.0,-2.1668,-2.1277,0.0,0.0,0.0,0.0,0.0,0.0,0.0,0.0,0.0,0.0,0.0,0.0,0.0,0.0,0.0,0.0,0.0,0.0,0.0,0.0,0.0,0.0,0.0,0.0,0.0,0.0,0.0,0.0,0.0,0.0,0.0,0.0,0.0,0.0,0.0,0.0,0.0,0.0,0.0,0.0,0.0,0.0,0.0,0.0,0.0,0.0,0.0,0.0,0.0,0.0,0.0,0.0,0.0,0.0,0.0,-2.9698,-3.2283,-3.4819,-3.7285,-3.8341,-3.912,-3.9597,-3.7479,-3.515,0.0,0.0,0.0,0.0,0.0,0.0,0.0,0.0,0.0,0.0,0.0,0.0,0.0,0.0,0.0,0.0,0.0,0.0,0.0,0.0,0.0,0.0,0.0,0.0,0.0,0.0,0.0,0.0,0.0,0.0,0.0,0.0,0.0,0.0,0.0,0.0,0.0,0.0,0.0,0.0,0.0,-2.2879,-2.2604,-2.268,0.0,0.0,0.0,0.0,-2.2606,-2.2799,0.0,0.0,0.0,0.0,0.0,0.0,0.0,0.0,0.0,0.0,0.0,0.0,0.0,0.0,0.0,0.0,0.0,0.0,0.0,0.0,0.0,0.0,0.0,0.0,0.0,0.0,0.0,0.0,0.0,0.0,0.0,0.0,0.0,0.0,0.0,0.0,0.0,0.0,0.0,0.0,0.0,0.0,0.0,0.0,0.0,0.0,0.0,0.0,0.0,0.0,0.0,0.0,0.0,0.0,0.0,0.0,-3.0125,-3.2998,-3.5607,-3.7789,-3.8542,-3.9196,-3.9622,-3.7423,-3.5103,0.0,0.0,0.0,0.0,0.0,0.0,0.0,0.0,0.0,0.0,0.0,0.0,0.0,0.0,0.0,0.0,0.0,0.0,0.0,0.0,0.0,0.0,0.0,0.0,0.0,0.0,0.0,0.0,0.0,0.0,0.0,0.0,0.0,0.0,0.0,0.0,0.0,0.0,0.0,0.0,0.0,-2.3979,-2.3832,-2.4101,-2.3961,0.0,0.0,-2.3741,-2.3806,-2.4462,0.0,0.0,0.0,0.0,0.0,0.0,0.0,0.0,0.0,0.0,0.0,0.0,0.0,0.0,0.0,0.0,0.0,0.0,0.0,0.0,0.0,0.0,0.0,0.0,0.0,0.0,0.0,0.0,0.0,0.0,0.0,0.0,0.0,0.0,0.0,0.0,0.0,0.0,0.0,0.0,0.0,0.0,0.0,0.0,0.0,0.0,0.0,0.0,0.0,0.0,0.0,0.0,0.0,0.0,0.0,-2.8403,-3.041,-3.3658,-3.6102,-3.7519,-3.8412,-3.8983,-3.9206,-3.6785,-3.4432,0.0,0.0,0.0,0.0,0.0,0.0,0.0,0.0,0.0,0.0,0.0,0.0,0.0,0.0,0.0,0.0,0.0,0.0,0.0,0.0,0.0,0.0,0.0,0.0,0.0,0.0,0.0,0.0,0.0,0.0,0.0,0.0,0.0,0.0,0.0,0.0,0.0,0.0,0.0,0.0,0.0,0.0,-2.5106,-2.5467,0.0,0.0,0.0,-2.5389,-2.5129,0.0,0.0,0.0,0.0,0.0,0.0,0.0,0.0,0.0,0.0,0.0,0.0,0.0,0.0,0.0,0.0,0.0,0.0,0.0,0.0,0.0,0.0,0.0,0.0,0.0,0.0,0.0,0.0,0.0,0.0,0.0,0.0,0.0,0.0,0.0,0.0,0.0,0.0,0.0,0.0,0.0,0.0,0.0,0.0,0.0,0.0,0.0,0.0,0.0,0.0,0.0,0.0,0.0,0.0,0.0,0.0,0.0,-3.0726,-3.4371,-3.6675,-3.7389,-3.8297,-3.8788,-3.8739,-3.6622,0.0,0.0,0.0,0.0,0.0,0.0,0.0,0.0,0.0,0.0,0.0,0.0,0.0,0.0,0.0,0.0,0.0,0.0,0.0,0.0,0.0,0.0,0.0,0.0,0.0,0.0,0.0,-1.8186,0.0,0.0,0.0,0.0,0.0,0.0,0.0,0.0,0.0,0.0,0.0,0.0,0.0,0.0,-2.5714,-2.6365,-2.6788,-2.7007,0.0,0.0,-2.6735,-2.6348,-2.6665,-2.624,0.0,0.0,0.0,0.0,0.0,0.0,0.0,0.0,0.0,0.0,0.0,0.0,0.0,0.0,0.0,0.0,0.0,0.0,0.0,0.0,0.0,0.0,0.0,0.0,0.0,0.0,0.0,0.0,0.0,0.0,0.0,0.0,0.0,0.0,0.0,0.0,0.0,0.0,0.0,0.0,0.0,0.0,0.0,0.0,0.0,0.0,0.0,0.0,0.0,0.0,0.0,0.0,0.0,0.0,0.0,-3.1306,-3.5127,-3.7389,-3.7929,-3.8494,-3.8788,-3.8764,-3.7519,-3.5546,0.0,0.0,0.0,0.0,0.0,0.0,0.0,0.0,0.0,0.0,0.0,0.0,0.0,0.0,0.0,0.0,0.0,0.0,0.0,0.0,0.0,0.0,0.0,0.0,0.0,0.0,0.0,0.0,0.0,0.0,0.0,0.0,0.0,0.0,0.0,0.0,0.0,0.0,0.0,0.0,0.0,-2.6687,-2.7487,-2.7925,-2.8147,0.0,0.0,-2.7244,-2.7325,-2.8047,-2.7745,-2.5074,0.0,0.0,0.0,0.0,0.0,0.0,0.0,0.0,0.0,0.0,0.0,0.0,0.0,0.0,0.0,0.0,0.0,0.0,0.0,0.0,0.0,0.0,0.0,0.0,0.0,0.0,0.0,0.0,0.0,0.0,0.0,0.0,0.0,0.0,0.0,0.0,0.0,0.0,0.0,0.0,0.0,0.0,0.0,0.0,0.0,0.0,0.0,0.0,0.0,0.0,0.0,0.0,0.0,-2.9859,-3.0978,-3.5055,-3.7467,-3.8,-3.8849,-3.9164,-3.8771,-3.7759,-3.5722,0.0,0.0,0.0,0.0,0.0,0.0,0.0,0.0,0.0,0.0,0.0,0.0,0.0,0.0,0.0,0.0,0.0,0.0,0.0,0.0,0.0,0.0,0.0,0.0,0.0,0.0,0.0,0.0,-2.0678,-2.096,-2.037,0.0,0.0,0.0,0.0,0.0,0.0,0.0,0.0,0.0,0.0,-2.8064,-2.8866,-2.9432,0.0,0.0,-2.9451,-2.9246,-2.8808,-2.864,-2.7888,-2.5923,-2.459,0.0,0.0,0.0,0.0,0.0,0.0,0.0,0.0,0.0,0.0,0.0,0.0,0.0,0.0,0.0,0.0,0.0,0.0,0.0,0.0,0.0,0.0,0.0,0.0,0.0,0.0,0.0,0.0,0.0,0.0,0.0,0.0,0.0,0.0,0.0,0.0,0.0,0.0,0.0,0.0,0.0,0.0,0.0,0.0,0.0,0.0,0.0,0.0,0.0,0.0,0.0,0.0,-3.0234,-3.114,-3.5283,-3.7685,-3.8214,-3.9128,-3.9441,-3.9032,-3.8202,-3.6456,0.0,0.0,0.0,0.0,0.0,0.0,0.0,0.0,0.0,0.0,0.0,0.0,0.0,0.0,0.0,0.0,0.0,0.0,0.0,0.0,0.0,0.0,0.0,0.0,0.0,0.0,0.0,0.0,-2.1757,-2.1821,-2.1008,0.0,0.0,0.0,0.0,0.0,0.0,0.0,0.0,0.0,0.0,-2.9267,-2.9744,-3.0367,-3.0745,-3.0663,-3.0545,-3.0343,-3.0034,-2.9253,-2.8202,-2.6727,0.0,0.0,0.0,0.0,0.0,0.0,0.0,0.0,0.0,0.0,0.0,0.0,0.0,0.0,0.0,0.0,0.0,0.0,0.0,0.0,0.0,0.0,0.0,0.0,0.0,0.0,0.0,0.0,0.0,0.0,-1.9732,0.0,0.0,0.0,0.0,0.0,0.0,0.0,0.0,0.0,0.0,0.0,0.0,0.0,0.0,0.0,0.0,0.0,0.0,0.0,0.0,0.0,0.0,-3.0438,-3.2081,-3.5965,-3.8238,-3.8815,-3.9345,-3.9633,-3.9585,-3.9056,-3.7972,-3.6284,0.0,0.0,0.0,0.0,0.0,0.0,0.0,0.0,0.0,0.0,0.0,0.0,0.0,0.0,0.0,0.0,0.0,0.0,0.0,0.0,0.0,0.0,0.0,0.0,0.0,0.0,-2.1097,-2.1745,-2.2009,0.0,0.0,0.0,0.0,0.0,0.0,0.0,0.0,0.0,0.0,-2.9342,-3.0348,-2.9935,-3.0628,-3.121,-3.1229,-3.0579,-3.0217,-3.0697,-3.005,-2.8973,0.0,0.0,0.0,0.0,0.0,0.0,0.0,0.0,0.0,0.0,0.0,0.0,0.0,0.0,0.0,0.0,0.0,0.0,0.0,0.0,0.0,0.0,0.0,0.0,0.0,0.0,0.0,-2.5195,-2.514,0.0,0.0,0.0,0.0,0.0,0.0,0.0,0.0,0.0,0.0,0.0,-2.9821,-3.1032,0.0,0.0,0.0,0.0,0.0,0.0,0.0,0.0,0.0,0.0,0.0,0.0,-3.1339,-3.2746,-3.655,-3.8984,-3.985,-4.0403,-4.0499,-4.0138,-3.9633,-3.8093,-3.5471,0.0,0.0,0.0,0.0,0.0,0.0,0.0,0.0,0.0,0.0,0.0,0.0,0.0,0.0,0.0,0.0,0.0,0.0,0.0,0.0,0.0,0.0,0.0,0.0,0.0,-2.264,0.0,0.0,0.0,0.0,0.0,0.0,0.0,0.0,0.0,0.0,0.0,-2.7837,-2.8647,-3.0341,-3.1308,-3.0961,-3.1687,-3.2267,0.0,0.0,0.0,0.0,0.0,0.0,0.0,0.0,0.0,0.0,0.0,0.0,0.0,0.0,-2.4397,-2.2355,-2.2207,-2.2395,-2.2338,0.0,0.0,0.0,0.0,0.0,0.0,0.0,0.0,0.0,0.0,0.0,0.0,0.0,0.0,0.0,0.0,-2.7394,0.0,0.0,0.0,0.0,0.0,0.0,0.0,0.0,-3.0094,-3.1805,-3.3008,-3.401,-3.4678,0.0,-3.446,-3.2853,0.0,0.0,0.0,0.0,0.0,0.0,0.0,0.0,-3.2306,-3.3687,-3.711,-3.943,-4.0355,-4.0908,-4.1028,-4.0667,-3.997,-3.8447,-3.6039,-3.4069,-3.2542,0.0,0.0,0.0,0.0,0.0,0.0,0.0,0.0,0.0,0.0,0.0,0.0,0.0,0.0,0.0,0.0,0.0,0.0,0.0,0.0,0.0,0.0,0.0,-2.3797,0.0,0.0,0.0,0.0,0.0,0.0,0.0,0.0,0.0,-2.6273,-2.7814,-2.9204,-2.9951,-3.1363,-3.2113,-3.1448,0.0,0.0,0.0,0.0,0.0,0.0,0.0,-3.0723,-2.9702,-2.8935,-2.8432,-2.8319,-2.8109,-2.7923,-2.7705,0.0,0.0,-2.4807,-2.4464,-2.4486,-2.4486,-2.4749,-2.5054,-2.5401,-2.5563,-2.5719,0.0,0.0,0.0,0.0,0.0,0.0,0.0,0.0,-2.9253,-2.8722,0.0,-2.934,0.0,0.0,0.0,0.0,0.0,-2.9161,0.0,0.0,-3.543,-3.6855,-3.6381,-3.6871,-3.714,-3.7115,-3.6529,-3.6202,-3.6026,-3.3208,0.0,0.0,0.0,0.0,0.0,0.0,-3.3333,-3.495,-3.7748,-3.9594,-4.0403,-4.0932,-4.1172,-4.1124,-4.0162,-3.9104,-3.8003,-3.6528,-3.5273,-3.416,-3.1392,0.0,0.0,0.0,0.0,0.0,0.0,0.0,0.0,0.0,0.0,0.0,0.0,0.0,0.0,0.0,0.0,0.0,0.0,0.0,0.0,-2.4494,0.0,0.0,0.0,0.0,0.0,0.0,0.0,0.0,0.0,0.0,-2.8385,-2.8978,-2.9851,-3.1321,0.0,0.0,0.0,0.0,-3.2899,-3.214,-3.265,-3.291,-3.2401,-3.2177,-3.1736,-3.0877,0.0,0.0,-3.0024,-2.9814,-2.9584,-2.9397,-2.921,-2.8642,-2.7217,-2.6992,-2.706,-2.7082,-2.7104,-2.7147,-2.7147,-2.7076,-2.6984,-3.3822,0.0,0.0,0.0,0.0,-3.042,-3.1502,-3.3205,-3.3051,-3.3128,-3.326,-3.2747,0.0,0.0,0.0,0.0,0.0,0.0,-3.3567,-3.5452,-3.655,-3.8,-3.9726,-3.9509,-3.9688,-4.0137,-3.9272,-3.9038,-3.9272,-3.7714,-3.5353,-3.2342,0.0,0.0,0.0,0.0,-3.5073,-3.6207,-3.8481,-4.0151,-4.0932,-4.11,-4.1004,-4.0643,-4.0331,-3.9489,-3.8046,-3.7553,-3.6646,-3.518,-3.299,0.0,0.0,0.0,0.0,0.0,0.0,0.0,0.0,0.0,0.0,0.0,0.0,0.0,0.0,0.0,0.0,0.0,0.0,0.0,-2.5959,-2.6824,-2.6888,0.0,0.0,0.0,0.0,0.0,0.0,0.0,0.0,0.0,-3.118,-3.1571,-3.1792,0.0,0.0,-3.2631,-3.2069,-3.2448,-3.277,-3.2535,0.0,0.0,0.0,-3.283,-3.2567,-3.1915,-3.1367,-3.0999,-3.0999,-3.0905,-3.0852,-3.0811,-3.0757,-3.0567,-3.0151,-2.899,-2.8244,-2.8181,-2.8432,-2.8663,-2.8684,-2.8864,-2.9199,-3.7323,-3.5565,-3.416,-3.3922,-3.4418,-3.4238,-3.5121,-3.6675,-3.6474,-3.6442,-3.6455,-3.6133,-3.4812,-3.2827,-3.1793,0.0,0.0,0.0,-3.6284,-3.8922,-3.8728,-3.9782,-4.1701,-4.1369,-4.1362,-4.1781,-4.1046,-4.0786,-4.1094,-4.0159,-3.8553,-3.6349,0.0,0.0,-3.3284,-3.5123,-3.6571,-3.7491,-3.914,-4.0394,-4.1148,-4.1196,-4.1028,-4.0715,-4.0306,-3.9633,-3.8671,-3.8214,-3.7456,-3.6232,-3.4291,-3.2743,0.0,0.0,0.0,0.0,0.0,0.0,0.0,0.0,0.0,0.0,0.0,-2.4195,0.0,0.0,0.0,0.0,-2.6323,-2.6778,-2.7678,-2.8125,0.0,0.0,0.0,0.0,0.0,0.0,0.0,-2.9478,-3.0271,-3.1255,-3.2785,-3.3271,-3.3454,-3.3281,-3.3305,-3.3186,-3.2785,0.0,-3.3293,-3.3212,-3.3472,-3.3635,-3.344,-3.3375,-3.3176,-3.2563,-3.2146,-3.1923,-3.1923,-3.1899,-3.1836,-3.156,-3.1464,-3.1347,-3.1072,-3.0056,-2.9445,-2.9653,-2.9932,-3.0118,-3.0139,-3.0346,-3.0636,-4.1007,-4.1045,-3.8089,-3.7659,-3.8896,-3.843,-3.8618,-3.922,-3.9293,-3.8769,-3.7896,-3.9104,-3.7877,-3.4885,-3.4198,0.0,-3.7302,-3.7236,-3.8954,-4.2062,-4.1557,-4.1904,-4.2808,-4.246,-4.2304,-4.2291,-4.1942,-4.1761,-4.1798,-4.1062,-4.0644,-4.0531,-3.8736,-3.7245,-3.6278,-3.6944,-3.7842,-3.8859,-3.9642,-4.0442,-4.1148,-4.1148,-4.1124,-4.11,-4.0138,-3.9585,-3.9513,-3.8575,-3.7805,-3.7176,-3.5354,-3.4028,-3.3351,0.0,0.0,0.0,0.0,0.0,0.0,0.0,0.0,0.0,0.0,0.0,0.0,0.0,0.0,0.0,-2.8058,0.0,-2.9265,-2.8846,0.0,0.0,0.0,-2.977,-3.0177,-3.0971,-3.1699,-3.2123,0.0,0.0,-3.3503,0.0,-3.4691,-3.4731,-3.4458,-3.4101,-3.3511,-3.3868,-3.4184,-3.3891,-3.4273,-3.4455,-3.3921,-3.3697,-3.3363,-3.2874,-3.2727,-3.2644,-3.2644,-3.2664,-3.2406,-3.183,-3.1692,-3.1513,-3.0676,-3.0596,-3.0726,-3.1313,-3.1306,-3.134,-3.1278,-3.1278,-3.1319,-4.2911,-4.3351,-4.2616,-4.1614,-4.0515,-4.0405,-4.0627,-4.1067,-4.0364,-4.0174,-4.0383,-3.9604,-3.883,-3.8202,-3.885,-3.9476,-4.009,-4.0952,-4.1976,-4.3072,-4.2615,-4.2711,-4.3313,-4.2651,-4.2373,-4.2376,-4.1742,-4.1644,-4.1908,-4.1694,-4.1208,-4.0604,-4.0585,-3.9834,-3.8434,-3.8775,-3.923,-3.9715,-4.0293,-4.0781,-4.1206,-4.0787,-4.0595,-4.0571,-3.9946,-3.9417,-3.9008,-3.855,-3.806,-3.7512,-3.5888,-3.4565,-3.3719,-3.1467,0.0,0.0,0.0,0.0,0.0,0.0,0.0,0.0,0.0,-2.5605,-2.5193,0.0,-2.8357,0.0,-3.0254,-3.1009,-3.1089,-3.0852,0.0,0.0,-3.0868,-3.1129,-3.2035,-3.2404,-3.2841,-3.3568,-3.3545,-3.3738,-3.4528,-3.448,-3.453,-3.4836,-3.4395,-3.3923,-3.3775,-3.3831,-3.3877,-3.3907,-3.4051,-3.4196,-3.401,-3.363,-3.3261,-3.3126,-3.2841,-3.2669,-3.2669,-3.2669,-3.2628,-3.2468,-3.2447,-3.2272,-3.1864,-3.1808,-3.1864,-3.1994,-3.1502,-3.1121,-3.136,-3.1402,-3.1485,-4.4021,-4.4732,-4.4709,-4.4052,-4.3018,-4.3041,-4.3175,-4.3309,-4.2548,-4.2276,-4.2308,-4.0813,-4.0327,-4.056,-4.1088,-4.1552,-4.2005,-4.2556,-4.3168,-4.3842,-4.3337,-4.3385,-4.3805,-4.3272,-4.299,-4.3042,-4.2474,-4.2312,-4.2568,-4.2621,-4.2458,-4.2051,-4.2083,-4.1695,-4.0776,-4.0367,-4.0184,-4.0335,-4.0733,-4.0934,-4.0836,-4.066,-4.0265,-3.9673,-3.9029,-3.8355,-3.7626,-3.6986,-3.6547,-3.6231,-3.5015,-3.4126,-3.3586,-3.173,-3.0088,0.0,0.0,0.0,0.0,0.0,0.0,0.0,0.0,0.0,0.0,0.0,-2.9756,0.0,-3.1241,-3.1978,-3.1977,-3.2063,-3.2219,-3.2584,-3.2611,-3.2835,-3.3624,-3.3787,-3.4074,-3.4527,-3.4458,-3.4524,-3.4956,-3.484,-3.4795,-3.4803,-3.4567,-3.435,-3.4176,-3.4146,-3.4085,-3.4129,-3.413,-3.3974,-3.3749,-3.3409,-3.3146,-3.3033,-3.2841,-3.2669,-3.2669,-3.2669,-3.2669,-3.2555,-3.2383,-3.2248,-3.2076,-3.1845,-3.1808,-3.2129,-3.1803,-3.1554,-3.1849,-3.1981,-3.2064,-4.48,-4.5438,-4.5438,-4.5438,-4.5438,-4.5438,-4.5438,-4.5392,-4.4819,-4.4267,-4.3625,-4.2339,-4.1907,-4.2188,-4.2075,-4.2428,-4.3174,-4.3048,-4.3457,-4.4237,-4.3842,-4.389,-4.4285,-4.395,-4.3802,-4.3802,-4.3428,-4.3326,-4.3326,-4.3615,-4.3707,-4.3555,-4.312,-4.2795,-4.2517,-4.1483,-4.0918,-4.0869,-4.1046,-4.0932,-4.0427,-4.0587,-4.0038,-3.8659,-3.7885,-3.7072,-3.6146,-3.5173,-3.4674,-3.4674,-3.3925,-3.3453,-3.3506,-3.1863,-3.0668,0.0,-2.9098,0.0,0.0,0.0,0.0,0.0,0.0,0.0,0.0,-3.0319,-3.0978,-3.1125,-3.1889,-3.2426,-3.2609,-3.2998,-3.3547,-3.4282,-3.4372,-3.452,-3.4906,-3.5093,-3.5205,-3.5182,-3.5318,-3.5312,-3.5046,-3.5202,-3.5146,-3.4734,-3.4857,-3.4924,-3.4722,-3.4556,-3.4447,-3.4479,-3.4199,-3.3749,-3.3296,-3.3146,-3.3033,-3.2727,-3.2727,-3.2669,-3.2669,-3.2669,-3.2612,-3.244,-3.219,-3.196,-3.1903,-3.1441,-3.1402,-3.2133,-3.2035,-3.2015,-3.2493,-3.2587,-3.2669,-4.5278,-4.5438,-4.5438,-4.5438,-4.5438,-4.5438,-4.5438,-4.5392,-4.4819,-4.4084,-4.3211,-4.2936,-4.276,-4.2683,-4.2903,-4.3254,-4.366,-4.3897,-4.4093,-4.4285,-4.4165,-4.4189,-4.4285,-4.395,-4.3802,-4.3802,-4.3451,-4.3326,-4.3326,-4.3615,-4.3344,-4.2565,-4.3108,-4.2697,-4.1525,0.0,0.0,0.0,-4.1182,-4.0932,-4.0403,-4.0224,-3.9472,-3.8096,-3.7714,0.0,-3.6218,-3.5754,-3.5561,-3.5561,-3.4782,0.0,0.0,0.0,0.0,0.0,0.0,0.0,0.0,0.0,0.0,0.0,-3.1758,-3.1174,-3.035,-3.1595,-3.2786,-3.3482,-3.3695,-3.3948,-3.4299,-3.4411,-3.4685,-3.5201,-3.5241,-3.5419,-3.591,-3.5799,-3.5649,-3.5649,-3.5521,-3.5312,-3.5058,-3.5035,-3.5079,-3.5072,-3.5137,-3.5312,-3.5605,-3.5037,-3.4444,-3.4199,-3.3813,-3.3317,-3.2841,-3.2825,-3.2924,-3.2727,-3.2669,-3.269,-3.2669,-3.2669,-3.2669,-3.2612,-3.2555,-3.244,-3.2248,-3.2096,-3.2018,-3.2248,-3.2248,-3.2305,-3.2612,-3.2669,-3.2669,-4.6104,0.0,-4.6173,-4.5967,0.0,-4.5737,-4.5576,-4.5415,-4.5094,-4.4543,-4.3831,-4.3775,-4.3641,-4.3472,-4.3765,-4.4001,-4.4075,-4.4223,-4.4285,-4.4285,-4.4285,-4.4285,-4.4285,-4.4161,-4.4075,-4.4075,-4.3888,-4.3764,-4.3764,-4.395,-4.3791,-4.3265,-4.3445,-4.3096,-4.2317,-4.2141,-4.1701,-4.1196,-4.1196,-4.0932,-4.0403,-4.0127,-3.9477,-3.8341,0.0,0.0,0.0,0.0,0.0,0.0,0.0,0.0,0.0,0.0,0.0,-3.3025,-3.2533,-3.2316,-3.2618,-3.279,-3.3173,-3.3934,-3.3908,-3.3363,-3.2241,-3.3197,-3.3995,-3.447,-3.4722,-3.4941,-3.5136,-3.5382,-3.5611,-3.5864,-3.5887,-3.5948,-3.6013,-3.5895,-3.5698,-3.5423,-3.5312,-3.518,-3.5121,-3.5087,-3.5229,-3.5553,-3.5583,-3.567,-3.5867,-3.5561,-3.5062,-3.4662,-3.4489,-3.4086,-3.3564,-3.3564,-3.346,-3.3178,-3.3058,-3.2954,-3.2768,-3.2669,-3.2669,-3.2669,-3.2612,-3.2498,-3.2498,-3.2248,-3.2133,-3.2383,-3.2363,-3.242,-3.2612,-3.2669,-3.2669,-4.7026,-4.7003,-4.7073,-4.6773,-4.6266,-4.6243,-4.6035,-4.5551,0.0,0.0,0.0,-4.4681,-4.4495,-4.4189,-4.4484,-4.4514,-4.4285,-4.4285,-4.4285,-4.4285,-4.4285,-4.4285,-4.4285,-4.4285,-4.4285,-4.4285,-4.4285,-4.4285,-4.4285,-4.4285,-4.4285,-4.4237,-4.389,-4.3601,-4.3457,-4.2591,-4.1846,-4.1341,-4.1244,-4.0932,-4.0403,-4.0224,-3.9721,-3.8708,-3.8107,-3.7345,-3.6324,-3.5871,-3.5372,-3.4831,-3.4594,-3.4459,-3.4399,-3.4115,-3.4,-3.4077,-3.3815,-3.3957,-3.4537,-3.443,-3.4653,-3.5439,-3.5486,-3.509,-3.4333,-3.4647,-3.4969,-3.506,-3.5405,-3.5657,-3.5657,-3.6002,-3.6254,-3.6254,-3.6254,-3.6168,-3.5972,-3.5785,-3.5611,-3.5257,-3.5191,-3.5178,-3.5334,-3.54,-3.5597,-3.6034,-3.6144,-3.6209,-3.6173,-3.5983,-3.5635,-3.5146,-3.5125,-3.5093,-3.4526,-3.4446,-3.44,-3.3751,-3.3547,-3.3302,-3.2954,-3.2789,-3.2669,-3.2669,-3.2498,-3.2498,-3.2612,-3.2326,-3.2133,-3.2612,-3.2555,-3.244,-3.2612,-3.2669,-3.2669,-4.7353,-4.7353,-4.7679,-4.7513,-4.7045,-4.7045,-4.6763,-4.6227,-4.5957,-4.5543,-4.5056,-4.5384,-4.5149,-4.4524,-4.4587,-4.4514,-4.4309,-4.4285,-4.4285,0.0,-4.4285,-4.4285,-4.4285,-4.4285,-4.4285,-4.4285,-4.4285,-4.4285,-4.4285,-4.4285,-4.4285,-4.4285,-4.4213,-4.3925,-4.3505,-4.2952,-4.2458,-4.1928,-4.1471,-4.0932,-4.0403,-4.0563,-4.0032,-3.8782,-3.8822,-3.8335,-3.7196,-3.6921,-3.6476,-3.5917,-3.5858,-3.5791,-3.5556,-3.5322,-3.5429,-3.5845,-3.5485,-3.5455,-3.5933,-3.5949,-3.6125,-3.6456,-3.6479,-3.6247,-3.5765,-3.5495,-3.5588,-3.6002,-3.6094,-3.6162,-3.6217,-3.6208,-3.6254,-3.6277,-3.6277,-3.6277,-3.6246,-3.5853,-3.5624,-3.5871,-3.5747,-3.5663,-3.5873,-3.6077,-3.6274,-3.6516,-3.6588,-3.6719,-3.6894,-3.622,-3.5589,-3.5429,-3.5253,-3.5099,-3.4964,-3.4981,-3.488,-3.4522,-3.4085,-3.3696,-3.3319,-3.2991,-3.2747,-3.2727,-3.2669,-3.2669,-3.2669,-3.2669,-3.2555,-3.2669,-3.2612,-3.2612,-3.2669,-3.2727,-3.2727,-4.852,-4.8568,-4.8427,-4.8075,-4.7581,-4.7017,-4.6641,-4.6405,-4.6496,-4.6221,-4.5853,-4.5927,-4.5646,-4.5039,-4.492,-4.464,-4.4285,-4.4285,-4.4285,-4.4285,-4.4285,-4.4285,-4.4285,-4.4285,-4.4285,-4.4285,-4.4285,-4.4285,-4.4285,-4.4285,-4.4285,-4.4285,-4.4285,-4.3997,-4.3529,-4.3289,-4.2904,-4.2458,-4.187,-4.1365,-4.0836,-4.0636,-4.0386,-4.0061,-3.988,-3.9545,-3.9004,-3.8867,-3.8477,-3.7609,-3.7291,-3.6932,-3.6549,-3.615,-3.6021,-3.6263,-3.6048,-3.6025,-3.6309,-3.6603,-3.6874,-3.7143,-3.722,-3.7126,-3.6891,-3.6256,-3.6025,-3.6309,-3.6254,-3.6254,-3.6254,-3.6254,-3.6254,-3.6254,-3.6397,-3.647,-3.6437,-3.6521,-3.641,-3.6327,-3.6315,-3.6343,-3.6362,-3.6465,-3.6699,-3.7019,-3.7068,-3.7134,-3.7309,-3.6687,-3.6161,-3.628,-3.6324,-3.6075,-3.5563,-3.558,-3.5328,-3.4588,-3.4255,-3.3943,-3.3618,-3.3173,-3.2996,-3.2955,-3.2841,-3.2727,-3.2669,-3.2669,-3.2669,-3.2669,-3.2669,-3.2669,-3.2727,-3.2841,-3.2898,-4.9652,-4.9605,-4.9157,-4.859,-4.8021,-4.7008,-4.663,-4.6697,-4.6965,-4.6965,-4.6626,-4.6418,-4.6025,-4.5524,-4.5254,-4.4789,-4.4333,-4.4285,-4.4285,-4.4285,-4.4285,-4.4285,-4.4285,-4.4285,-4.4285,-4.4285,-4.4285,-4.4285,-4.4285,-4.4285,-4.4285,-4.4285,-4.4285,-4.4069,-4.366,-4.3697,-4.3457,-4.2928,-4.2519,-4.2014,-4.1365,-4.0836,-4.0787,-4.1124,-4.0787,-4.0514,-4.0458,-4.0394,-3.9962,-3.9029,-3.854,-3.806,-3.7519,-3.7053,-3.6711,-3.6656,-3.6541,-3.6495,-3.6495,-3.6928,-3.7304,-3.7596,-3.7596,-3.7596,-3.7542,-3.7045,-3.661,-3.6409,-3.6424,-3.6461,-3.6484,-3.6576,-3.6599,-3.6645,-3.6799,-3.686,-3.6793,-3.6997,-3.7061,-3.6667,-3.6769,-3.6808,-3.6706,-3.6697,-3.6741,-3.6915,-3.7068,-3.7068,-3.7025,-3.6741,-3.66,-3.6698,-3.6948,-3.6671,-3.5913,-3.5946,-3.5644,-3.4666,-3.4517,-3.4268,-3.3855,-3.3536,-3.3317,-3.3239,-3.3069,-3.2955,-3.2898,-3.2955,-3.2955,-3.2955,-3.2955,-3.2955,-3.2955,-3.3126,-3.3182,-5.0033,-5.0009,-4.9766,-4.9208,-4.8204,-4.7604,-4.7364,-4.7364,-4.7431,-4.7431,-4.7316,-4.6879,-4.635,-4.5846,-4.5293,-4.4765,-4.4309,-4.4285,-4.4285,-4.4285,-4.4285,-4.4285,-4.4285,-4.4285,-4.4285,-4.4285,-4.4285,-4.4285,-4.4285,-4.4285,-4.4285,-4.4285,-4.4285,-4.4261,-4.4189,-4.4189,-4.3925,-4.3457,-4.3385,-4.2904,-4.1942,-4.1389,-4.1124,-4.1172,-4.1148,-4.0985,-4.0673,-4.0473,-4.0129,-3.95,-3.9443,-3.9157,-3.8594,-3.8327,-3.8067,-3.7747,-3.727,-3.7036,-3.7036,-3.7358,-3.7542,-3.7596,-3.7619,-3.7643,-3.7667,-3.7699,-3.7419,-3.6944,-3.6879,-3.6966,-3.6933,-3.7333,-3.7596,-3.7607,-3.7632,-3.761,-3.7292,-3.7029,-3.6943,-3.7038,-3.6839,-3.6713,-3.6631,-3.6653,-3.6522,-3.6319,-3.6341,-3.6319,-3.626,-3.6129,-3.6042,-3.6107,-3.6166,-3.6085,-3.5903,-3.5962,-3.5736,-3.5294,-3.5013,-3.4597,-3.4175,-3.3848,-3.3579,-3.3579,-3.3523,-3.3409,-3.3445,-3.3501,-3.3466,-3.3409,-3.3409,-3.3445,-3.3523,-3.3523,-3.3523,-4.998,-4.9908,-4.9208,-4.8507,-4.7834,-4.7593,-4.7497,-4.7497,-4.7497,-4.7497,-4.7377,-4.6607,-4.6126,-4.5862,-4.4981,-4.4477,-4.4285,-4.4285,-4.4285,-4.4285,-4.4285,-4.4285,-4.4285,-4.4285,-4.4285,-4.4285,-4.4285,-4.4285,-4.4285,-4.4285,-4.4285,-4.4285,-4.4285,-4.4285,-4.4285,-4.4285,-4.4165,-4.3949,-4.3673,-4.3313,-4.288,-4.2375,-4.2024,-4.1677,-4.1653,-4.1427,-4.1024,-4.0899,-4.0602,-4.0063,-3.9905,-3.9586,-3.9054,-3.8761,-3.839,-3.7919,-3.7425,-3.7197,-3.7358,-3.7542,-3.7792,-3.824,-3.8341,-3.8461,-3.8718,-3.8713,-3.8493,-3.8241,-3.8082,-3.8032,-3.7999,-3.8218,-3.8335,-3.8325,-3.8102,-3.7941,-3.7999,-3.7479,-3.7125,-3.7104,-3.6788,-3.6436,-3.6319,-3.626,-3.6173,-3.6056,-3.6012,-3.5969,-3.5991,-3.5714,-3.5539,-3.5474,-3.5299,-3.5255,-3.543,-3.5517,-3.5351,-3.4997,-3.478,-3.4536,-3.4402,-3.4146,-3.3918,-3.3918,-3.3749,-3.3636,-3.3558,-3.3614,-3.3614,-3.3614,-3.3636,-3.3636,-3.3861,-3.3918,-3.3974,-4.9878,-4.971,-4.8724,-4.7978,-4.7497,-4.7497,-4.7497,-4.7497,-4.7497,-4.7497,-4.7377,-4.6391,-4.5934,-4.5702,-4.4765,-4.4285,-4.4285,-4.4285,-4.4285,-4.4285,-4.4285,-4.4285,-4.4285,-4.4285,-4.4285,-4.4285,-4.4285,-4.4285,-4.4285,-4.4285,-4.4285,-4.4285,-4.4285,-4.4285,-4.4285,-4.4285,-4.4285,-4.4237,-4.3877,-4.3746,-4.3697,-4.3385,-4.288,-4.2313,-4.2097,-4.1774,-4.1413,-4.1268,-4.1004,-4.0643,-4.0425,-4.0168,-3.9786,-3.9371,-3.8927,-3.8398,-3.7996,-3.7892,-3.8132,-3.8132,-3.8407,-3.8905,-3.9032,-3.92,-3.9482,-3.9563,-3.9547,-3.9547,-3.9418,-3.932,-3.8963,-3.9024,-3.9038,-3.8891,-3.8516,-3.8238,-3.8099,-3.7448,-3.6927,-3.6846,-3.6523,-3.6178,-3.5837,-3.5648,-3.5517,-3.5517,-3.5539,-3.5561,-3.5539,-3.5233,-3.5015,-3.5015,-3.4731,-3.4687,-3.4949,-3.5015,-3.484,-3.4687,-3.45,-3.4522,-3.4479,-3.4311,-3.4199,-3.4199,-3.3974,-3.3918,-3.3974,-3.3896,-3.384,-3.3861,-3.3861,-3.3918,-3.4142,-3.4199,-3.4255,-4.9878,-4.9686,-4.8724,-4.7954,-4.7497,-4.7497,-4.7497,-4.7497,-4.7497,-4.7497,-4.7353,-4.6391,-4.5934,-4.5838,-4.4765,-4.4285,-4.4285,-4.4285,-4.4285,-4.4285,-4.4285,-4.4285,-4.4285,-4.4285,-4.4285,-4.4285,-4.4285,-4.4285,-4.4285,-4.4285,-4.4285,-4.4285,-4.4285,-4.4285,-4.4285,-4.4285,-4.4285,-4.4261,-4.4213,-4.4237,-4.4213,-4.4189,-4.3721,-4.2832,-4.2313,-4.2014,-4.1928,-4.1437,-4.1172,-4.1148,-4.1124,-4.11,-4.1052,-4.0538,-4.0034,-3.9578,-3.9458,-3.9434,-3.9434,-3.9386,-3.9489,-3.9561,-3.9561,-3.9609,-3.9777,-4.0082,-4.0298,-4.0355,-4.0682,-4.0526,-3.9689,-3.9773,-3.9767,-3.9267,-3.8792,-3.818,-3.7339,-3.68,-3.6369,-3.6114,-3.6005,-3.5706,-3.5277,-3.484,-3.4675,-3.4709,-3.4644,-3.4687,-3.4731,-3.4622,-3.4622,-3.4622,-3.45,-3.4479,-3.4556,-3.4666,-3.4622,-3.4479,-3.4479,-3.4479,-3.4479,-3.4479,-3.4479,-3.4479,-3.4367,-3.4367,-3.4423,-3.4423,-3.4367,-3.4367,-3.4311,-3.4423,-3.4367,-3.4423,-3.4457,-4.8964,-4.8315,-4.7954,-4.7666,-4.7497,-4.7497,-4.7497,-4.7497,-4.7497,-4.7497,-4.7305,-4.6391,-4.5934,-4.5862,-4.4765,-4.4285,-4.4285,-4.4285,-4.4285,-4.4285,-4.4285,-4.4285,-4.4285,-4.4285,-4.4285,-4.4285,-4.4285,-4.4285,-4.4285,-4.4285,-4.4285,-4.4285,-4.4285,-4.4285,-4.4285,-4.4285,-4.4285,-4.4285,-4.4285,-4.4285,-4.4285,-4.4285,-4.4093,-4.3794,-4.3241,-4.2639,-4.199,-4.1774,-4.1591,-4.1196,-4.1196,-4.1196,-4.1148,-4.0691,-4.0306,-4.0114,-3.9801,-3.9609,-3.9609,-3.9609,-3.9753,-4.0066,-4.0114,-4.0258,-4.0571,-4.0787,-4.0908,-4.0932,-4.1028,-4.0841,-4.0344,-4.023,-4.0097,-3.9452,-3.8654,-3.7759,-3.7036,-3.6241,-3.5588,-3.5487,-3.5255,-3.4949,-3.484,-3.4622,-3.4479,-3.4479,-3.4479,-3.4479,-3.4479,-3.4479,-3.4479,-3.4479,-3.4479,-3.4479,-3.4479,-3.4479,-3.4479,-3.4479,-3.4479,-3.4479,-3.4479,-3.4479,-3.4479,-3.4479,-3.4479,-3.4479,-3.4479,-3.4479,-3.4479,-3.4479,-3.4479,-3.4479,-3.4479,-3.4479,-3.4479,-4.8315,-4.7569,-4.7497,-4.7497,-4.7497,-4.7497,-4.7497,-4.7497,-4.7497,-4.7497,-4.7305,-4.6391,-4.5934,-4.5742,-4.4765,-4.4285,-4.4285,-4.4285,-4.4285,-4.4285,-4.4285,-4.4285,-4.4285,-4.4285,-4.4285,-4.4285,-4.4285,-4.4285,-4.4285,-4.4285,-4.4285,-4.4285,-4.4285,-4.4285,-4.4285,-4.4285,-4.4285,-4.4285,-4.4285,-4.4285,-4.4285,-4.4285,-4.4285,-4.4237,-4.3986,-4.3289,-4.2338,-4.2121,-4.1725,-4.1268,-4.1196,-4.1196,-4.1148,-4.0836,-4.0643,-4.0595,-4.0306,-4.0114,-4.0114,-4.0114,-4.0282,-4.0619,-4.0643,-4.0836,-4.1148,-4.1196,-4.1124,-4.1004,-4.0932,-4.0715,-4.0202,-3.9802,-3.9418,-3.8924,-3.7952,-3.7031,-3.6417,-3.5562,-3.5072,-3.4949,-3.4775,-3.4578,-3.4479,-3.4479,-3.4479,-3.4479,-3.4479,-3.4479,-3.4479,-3.4479,-3.4479,-3.4479,-3.4479,-3.4479,-3.4479,-3.4479,-3.4479,-3.4479,-3.4479,-3.4479,-3.4479,-3.4479,-3.4479,-3.4479,-3.4479,-3.4479,-3.4479,-3.4479,-3.4479,-3.4479,-3.4479,-3.4479,-3.4479,-3.4479,-3.4479,-4.8002,-4.7521,-4.7497,-4.7497,-4.7497,-4.7497,-4.7497,-4.7497,-4.7497,-4.7497,-4.7353,-4.6415,-4.6006,-4.5766,-4.4972,-4.4443,-4.4553,-4.4577,-4.4443,-4.4309,-4.4395,-4.4371,-4.4285,-4.4419,-4.4395,-4.4285,-4.4285,-4.4285,-4.4285,-4.4285,-4.4285,-4.4285,-4.4285,-4.4285,-4.4285,-4.4285,-4.4285,-4.4285,-4.4285,-4.4285,-4.4285,-4.4285,-4.4285,-4.4285,-4.4237,-4.3794,-4.2819,-4.2338,-4.1798,-4.1317,-4.1196,-4.1196,-4.1196,-4.1124,-4.1148,-4.1124,-4.1124,-4.1124,-4.11,-4.1052,-4.1004,-4.11,-4.1148,-4.1124,-4.1172,-4.1124,-4.0932,-4.0538,-4.0346,-4.0106,-3.9491,-3.8651,-3.8003,-3.7745,-3.694,-3.6027,-3.5351,-3.4818,-3.4479,-3.45,-3.4479,-3.4479,-3.4479,-3.4479,-3.4479,-3.4479,-3.4479,-3.4479,-3.4479,-3.4479,-3.4479,-3.4479,-3.4479,-3.4479,-3.4479,-3.4479,-3.4479,-3.4479,-3.4479,-3.4479,-3.4479,-3.4479,-3.4479,-3.4479,-3.4479,-3.4479,-3.4479,-3.4479,-3.4479,-3.4479,-3.4479,-3.4479,-3.4479,-3.4479,-3.4479,-4.7978,-4.7521,-4.7497,-4.7497,-4.7497,-4.7497,-4.7497,-4.7497,-4.7497,-4.7497,-4.7353,-4.6776,-4.6593,-4.6577,-4.606,-4.5872,-4.6099,-4.6099,-4.5483,-4.4577,-4.4981,-4.4933,-4.4529,-4.4957,-4.4957,-4.4395,-4.4285,-4.4285,-4.4285,-4.4285,-4.4285,-4.4285,-4.4285,-4.4285,-4.4285,-4.4285,-4.4285,-4.4285,-4.4285,-4.4285,-4.4285,-4.4285,-4.4285,-4.4285,-4.4285,-4.3842,-4.2832,-4.2651,-4.2254,-4.1725,-4.1389,-4.1196,-4.1196,-4.1196,-4.1196,-4.1196,-4.1196,-4.1196,-4.1196,-4.1196,-4.1196,-4.1196,-4.1196,-4.1196,-4.1124,-4.0836,-4.0538,-4.0105,-3.9786,-3.93,-3.8469,-3.7793,-3.7359,-3.7298,-3.6306,-3.5424,-3.4887,-3.4622,-3.4479,-3.4479,-3.4479,-3.4479,-3.4479,-3.4479,-3.4479,-3.4479,-3.4479,-3.4479,-3.4479,-3.4479,-3.4479,-3.4479,-3.4479,-3.4479,-3.4479,-3.4479,-3.4479,-3.4479,-3.4479,-3.4479,-3.4479,-3.4479,-3.4479,-3.4479,-3.4479,-3.4479,-3.4479,-3.4479,-3.4479,-3.4479,-3.4479,-3.4479,-3.4479,-3.4479,-3.4479,-4.781,-4.7497,-4.7497,-4.7497,-4.7497,-4.7497,-4.7497,-4.7497,-4.7497,-4.7497,-4.7401,-4.7075,-4.6964,-4.7102,-4.6792,-4.6763,-4.6992,-4.6992,-4.6371,-4.5483,-4.5865,-4.5705,-4.487,-4.4981,-4.4933,-4.4419,-4.4285,-4.4285,-4.4285,-4.4285,-4.4285,-4.4285,-4.4285,-4.4285,-4.4285,-4.4285,-4.4285,-4.4285,-4.4285,-4.4285,-4.4285,-4.4285,-4.4189,-4.4021,-4.3973,-4.3601,-4.2891,-4.2627,-4.2289,-4.1749,-4.1341,-4.1196,-4.1196,-4.1196,-4.1196,-4.1196,-4.1196,-4.1196,-4.1196,-4.1196,-4.1196,-4.1196,-4.1196,-4.1076,-4.0908,-4.0523,-4.0194,-3.9467,-3.9126,-3.8532,-3.7731,-3.7122,-3.6847,-3.6792,-3.5879,-3.5091,-3.459,-3.4479,-3.4479,-3.4479,-3.4479,-3.4479,-3.4479,-3.4479,-3.4479,-3.4479,-3.4479,-3.4479,-3.4479,-3.4479,-3.4479,-3.4479,-3.4479,-3.4479,-3.4479,-3.4479,-3.4479,-3.4479,-3.4479,-3.4479,-3.4479,-3.4479,-3.4479,-3.4479,-3.4479,-3.4479,-3.4479,-3.4479,-3.4479,-3.4479,-3.4479,-3.4479,-3.4479,-3.4479,-3.4479,-4.7497,-4.7497,-4.7497,-4.7497,-4.7497,-4.7497,-4.7497,-4.7497,-4.7497,-4.7497,-4.7509,-4.7368,-4.7321,-4.7304,-4.7332,-4.7301,-4.7129,-4.7241,-4.7167,-4.6956,-4.6956,-4.6609,-4.6001,-4.5105,-4.4629,-4.4591,-4.4457,-4.4347,-4.4409,-4.4347,-4.4285,-4.4285,-4.4285,-4.4285,-4.4285,-4.4285,-4.4285,-4.4285,-4.4237,-4.4189,-4.4165,-4.4117,-4.3925,-4.3505,-4.3457,-4.3216,-4.2747,-4.2241,-4.1701,-4.1268,-4.1196,-4.1196,-4.1196,-4.1196,-4.1196,-4.1196,-4.1196,-4.1196,-4.1196,-4.1196,-4.1196,-4.1196,-4.1172,-4.0956,-4.049,-4.0218,-3.9674,-3.8611,-3.8295,-3.7925,-3.7146,-3.6673,-3.6378,-3.6191,-3.5588,-3.498,-3.4568,-3.4534,-3.4568,-3.4513,-3.4479,-3.4479,-3.4479,-3.4479,-3.4479,-3.4479,-3.4479,-3.4479,-3.4479,-3.4479,-3.4479,-3.4479,-3.4479,-3.4479,-3.4479,-3.4479,-3.4479,-3.4479,-3.4479,-3.4479,-3.4479,-3.4479,-3.4479,-3.4479,-3.4479,-3.4479,-3.4479,-3.4479,-3.4479,-3.4479,-3.4479,-3.4479,-3.4479,-3.4479,-3.4479,-4.7497,-4.7497,-4.7497,-4.7497,-4.7497,-4.7497,-4.7497,-4.7497,-4.7497,-4.763,-4.778,-4.7814,-4.802,-4.8565,-4.8521,-4.8426,-4.8244,-4.8233,-4.8033,-4.7708,-4.7658,-4.7669,-4.7206,-4.5821,-4.522,-4.5464,-4.4949,-4.4656,-4.4656,-4.4409,-4.4285,-4.4285,-4.4285,-4.4285,-4.4285,-4.4285,-4.4285,-4.4213,-4.3914,-4.3746,-4.3697,-4.3409,-4.312,-4.3,-4.2952,-4.2687,-4.2265,-4.1677,-4.1365,-4.122,-4.1196,-4.1196,-4.1196,-4.1172,-4.123,-4.1196,-4.1196,-4.1196,-4.1196,-4.1196,-4.1196,-4.1196,-4.1196,-4.0899,-4.0144,-3.9738,-3.8959,-3.7934,-3.7395,-3.706,-3.6626,-3.6386,-3.6223,-3.595,-3.5588,-3.5202,-3.4924,-3.4869,-3.4758,-3.459,-3.4534,-3.4534,-3.4513,-3.4534,-3.4513,-3.4534,-3.4534,-3.4534,-3.459,-3.4534,-3.459,-3.4534,-3.4479,-3.4479,-3.4479,-3.4479,-3.4479,-3.4479,-3.4479,-3.4479,-3.4479,-3.4479,-3.4479,-3.4479,-3.4479,-3.4479,-3.4479,-3.4479,-3.4479,-3.4479,-3.4479,-3.4479,-3.4479,-3.4479,-3.4479,-4.7497,-4.7497,-4.7497,-4.7497,-4.7497,-4.7497,-4.7497,-4.7497,-4.763,-4.7828,-4.7977,-4.811,-4.8361,-4.8724,-4.8668,-4.8521,-4.8435,-4.841,-4.8209,-4.7933,-4.762,-4.7696,-4.7408,-4.6155,-4.5601,-4.5908,-4.5207,-4.4865,-4.4717,-4.447,-4.4347,-4.4285,-4.4285,-4.4285,-4.4285,-4.4285,-4.4285,-4.4237,-4.401,-4.377,-4.3505,-4.3241,-4.2808,-4.2567,-4.2482,-4.2241,-4.1677,-4.1341,-4.1196,-4.1196,-4.1196,-4.1196,-4.1196,-4.1344,-4.1287,-4.123,-4.1287,-4.1344,-4.1254,-4.1196,-4.1196,-4.1196,-4.1196,-4.0793,-4.0135,-3.9617,-3.8989,-3.7682,-3.72,-3.6804,-3.6409,-3.6254,-3.6223,-3.6059,-3.584,-3.5643,-3.5202,-3.5146,-3.5091,-3.4924,-3.4869,-3.4869,-3.4847,-3.4847,-3.4847,-3.4902,-3.4924,-3.4869,-3.4813,-3.4758,-3.4646,-3.459,-3.4534,-3.4479,-3.4479,-3.4479,-3.4479,-3.4479,-3.4479,-3.4479,-3.4479,-3.4479,-3.4479,-3.4479,-3.4479,-3.4479,-3.4479,-3.4479,-3.4479,-3.4479,-3.4479,-3.4479,-3.4479,-3.4479,-3.4479,-4.7497,-4.7497,-4.7497,-4.7497,-4.7497,-4.7563,-4.7563,-4.763,-4.7894,-4.8043,-4.8093,-4.8244,-4.8263,-4.8242,-4.8121,-4.7933,-4.7832,-4.7832,-4.7757,-4.7531,-4.7244,-4.7207,-4.7309,-4.6216,-4.5834,-4.6069,-4.533,-4.4988,-4.484,-4.4532,-4.4347,-4.4347,-4.4285,-4.4285,-4.4285,-4.4285,-4.4285,-4.4261,-4.4093,-4.3829,-4.3505,-4.3241,-4.2784,-4.241,-4.2145,-4.1798,-4.1389,-4.1196,-4.123,-4.123,-4.1254,-4.123,-4.123,-4.1492,-4.1492,-4.1402,-4.1516,-4.1492,-4.1287,-4.123,-4.1196,-4.1196,-4.1196,-4.0817,-4.0159,-3.9774,-3.9137,-3.7813,-3.7539,-3.7118,-3.6616,-3.6346,-3.6277,-3.6223,-3.6223,-3.6004,-3.5643,-3.5478,-3.5423,-3.5423,-3.5368,-3.5423,-3.5423,-3.5423,-3.5368,-3.5146,-3.5202,-3.5146,-3.5035,-3.4924,-3.4813,-3.4646,-3.459,-3.4479,-3.4479,-3.4479,-3.4479,-3.4479,-3.4479,-3.4479,-3.4479,-3.4479,-3.4479,-3.4479,-3.4479,-3.4479,-3.4479,-3.4479,-3.4479,-3.4479,-3.4479,-3.4479,-3.4479,-3.4479,-3.4479,-4.7497,-4.7497,-4.7497,-4.7497,-4.7563,-4.7762,-4.787,-4.7911,-4.8289,-4.8281,-4.8244,-4.8263,-4.8131,-4.7983,-4.7845,-4.7707,-4.733,-4.728,-4.7079,-4.6652,-4.6577,-4.6742,-4.6957,-4.6334,-4.6409,-4.6512,-4.6005,-4.5477,-4.5147,-4.484,-4.4532,-4.4347,-4.4285,-4.4285,-4.4285,-4.4285,-4.4285,-4.4213,-4.3901,-4.3721,-4.3409,-4.2832,-4.2543,-4.253,-4.2265,-4.1725,-4.1317,-4.1196,-4.1287,-4.1402,-4.1344,-4.1344,-4.1516,-4.1606,-4.172,-4.1802,-4.1688,-4.1606,-4.1492,-4.1344,-4.1196,-4.1196,-4.1172,-4.0841,-4.0078,-3.9803,-3.9212,-3.8278,-3.7914,-3.7515,-3.6943,-3.6507,-3.6369,-3.6346,-3.63,-3.6277,-3.6114,-3.5863,-3.5676,-3.5533,-3.5478,-3.5423,-3.5423,-3.5478,-3.5478,-3.5423,-3.5423,-3.5368,-3.5257,-3.5146,-3.498,-3.4813,-3.4813,-3.4702,-3.459,-3.459,-3.4479,-3.4479,-3.4479,-3.459,-3.459,-3.459,-3.459,-3.4534,-3.4479,-3.4479,-3.4479,-3.4479,-3.4479,-3.4479,-3.4534,-3.4568,-3.4568,-3.4568,-3.4736,-4.7209,-4.68,-4.704,-4.7058,-4.7037,-4.7142,-4.7337,-4.7531,-4.7878,-4.7986,-4.7905,-4.7782,-4.7646,-4.7469,-4.728,-4.6979,-4.6803,-4.6753,-4.6602,-4.6351,-4.6326,-4.6476,-4.6627,-4.6527,-4.6577,-4.6892,-4.6188,-4.566,-4.527,-4.4963,-4.4594,-4.4347,-4.4285,-4.4285,-4.4285,-4.4285,-4.4285,-4.4261,-4.3997,-4.3794,-4.3409,-4.3024,-4.2591,-4.2795,-4.253,-4.2086,-4.1629,-4.1707,-4.1677,-4.1622,-4.1631,-4.1688,-4.1859,-4.1948,-4.2086,-4.2029,-4.2086,-4.1834,-4.1663,-4.1492,-4.1344,-4.1254,-4.1196,-4.088,-4.0493,-4.0134,-3.9588,-3.8871,-3.8457,-3.8101,-3.7425,-3.692,-3.6668,-3.6576,-3.6392,-3.6277,-3.6277,-3.6114,-3.6004,-3.584,-3.584,-3.584,-3.584,-3.573,-3.5785,-3.584,-3.5621,-3.5588,-3.5368,-3.5257,-3.5146,-3.5035,-3.5035,-3.4924,-3.4758,-3.4646,-3.4534,-3.4479,-3.4479,-3.4646,-3.4758,-3.4758,-3.4702,-3.4702,-3.4624,-3.4479,-3.4479,-3.4479,-3.4568,-3.4534,-3.4568,-3.468,-3.4847,-3.5013,-3.529,-4.6848,-4.6143,-4.6504,-4.6601,-4.6533,-4.6597,-4.6812,-4.7041,-4.7332,-4.7545,-4.7321,-4.7182,-4.7143,-4.6928,-4.6577,-4.6351,-4.6326,-4.6351,-4.6326,-4.6326,-4.6326,-4.6351,-4.6376,-4.6401,-4.6502,-4.6867,-4.6284,-4.5721,-4.5331,-4.5025,-4.4717,-4.4409,-4.4285,-4.4285,-4.4285,-4.4285,-4.4285,-4.4261,-4.4237,-4.4045,-4.3721,-4.3505,-4.3192,-4.2891,-4.288,-4.2591,-4.2217,-4.2234,-4.219,-4.1867,-4.2021,-4.2142,-4.2256,-4.2369,-4.2457,-4.228,-4.2425,-4.2231,-4.1891,-4.172,-4.1573,-4.1344,-4.1369,-4.1254,-4.1033,-4.0846,-4.0425,-3.9763,-3.9218,-3.878,-3.8135,-3.7504,-3.715,-3.6966,-3.6677,-3.6501,-3.6386,-3.6386,-3.6386,-3.6223,-3.6168,-3.6114,-3.6168,-3.6168,-3.6223,-3.6277,-3.6004,-3.5785,-3.5588,-3.5423,-3.5368,-3.5257,-3.5257,-3.5202,-3.5035,-3.498,-3.4791,-3.4813,-3.4736,-3.4869,-3.5091,-3.5124,-3.5124,-3.4847,-3.4791,-3.4736,-3.4847,-3.5013,-3.5013,-3.4736,-3.4902,-3.529,-3.5433,-3.5543,-3.5817,-4.6882,-4.6948,-4.6585,-4.6582,-4.6802,-4.7118,-4.7194,-4.7394,-4.7583,-4.7533,-4.7157,-4.7093,-4.6828,-4.6527,-4.6401,-4.6326,-4.6326,-4.6326,-4.6326,-4.6326,-4.6326,-4.6326,-4.6326,-4.6326,-4.6401,-4.6401,-4.6205,-4.5878,-4.5453,-4.5208,-4.484,-4.447,-4.4285,-4.4285,-4.4285,-4.4285,-4.4285,-4.4285,-4.4285,-4.4189,-4.4021,-4.377,-4.3409,-4.3024,-4.3241,-4.3096,-4.2758,-4.25,-4.2476,-4.261,-4.2502,-4.2587,-4.2706,-4.2625,-4.2625,-4.2706,-4.2625,-4.2457,-4.2287,-4.2086,-4.2029,-4.194,-4.1883,-4.1883,-4.1745,-4.1573,-4.1224,-4.0875,-4.005,-3.9366,-3.9216,-3.8361,-3.7527,-3.7229,-3.7118,-3.7075,-3.6828,-3.6766,-3.6766,-3.6472,-3.6363,-3.6309,-3.6386,-3.6309,-3.6254,-3.6277,-3.6114,-3.6004,-3.5895,-3.573,-3.5643,-3.5588,-3.5533,-3.5423,-3.5312,-3.5312,-3.529,-3.5312,-3.529,-3.5345,-3.5511,-3.5598,-3.5543,-3.5511,-3.54,-3.54,-3.5511,-3.5621,-3.5621,-3.5455,-3.573,-3.5982,-3.6036,-3.6145,-3.62,-4.6714,-4.6397,-4.6256,-4.6301,-4.6328,-4.6489,-4.6674,-4.6834,-4.7018,-4.6954,-4.6753,-4.6702,-4.6577,-4.6351,-4.6326,-4.6326,-4.6326,-4.6326,-4.6326,-4.6326,-4.6326,-4.6326,-4.6326,-4.6326,-4.6326,-4.6326,-4.6266,-4.6059,-4.5574,-4.5392,-4.5025,-4.4656,-4.4409,-4.4285,-4.4285,-4.4285,-4.4285,-4.4285,-4.4285,-4.4285,-4.4285,-4.3973,-4.3794,-4.3746,-4.3721,-4.3649,-4.3337,-4.3514,-4.3262,-4.3029,-4.3084,-4.3119,-4.3006,-4.293,-4.2818,-4.293,-4.2849,-4.2625,-4.2513,-4.2369,-4.2256,-4.211,-4.211,-4.211,-4.2029,-4.1915,-4.1777,-4.1476,-4.1061,-4.0307,-4.0283,-3.9222,-3.8686,-3.8521,-3.8052,-3.7551,-3.7496,-3.7308,-3.7129,-3.689,-3.6681,-3.6626,-3.6495,-3.644,-3.6309,-3.6223,-3.6168,-3.6168,-3.6168,-3.6059,-3.6004,-3.5895,-3.584,-3.584,-3.5785,-3.5785,-3.5785,-3.584,-3.584,-3.5895,-3.6004,-3.6145,-3.6309,-3.6386,-3.6332,-3.6145,-3.6004,-3.6059,-3.6114,-3.6145,-3.62,-3.6309,-3.658,-3.6742,-3.682,-4.6582,-4.5806,-4.5957,-4.597,-4.5928,-4.5878,-4.6084,-4.6266,-4.6351,-4.6376,-4.6326,-4.6326,-4.6326,-4.6326,-4.6326,-4.6326,-4.6326,-4.6326,-4.6326,-4.6326,-4.6326,-4.6326,-4.6326,-4.6326,-4.6326,-4.6326,-4.6301,-4.612,-4.5757,-4.5453,-4.5147,-4.4779,-4.447,-4.4285,-4.4285,-4.4285,-4.4285,-4.4285,-4.4285,-4.4285,-4.4285,-4.4285,-4.4285,-4.4285,-4.4285,-4.4106,-4.3904,-4.3915,-4.3831,-4.3474,-4.3373,-4.3388,-4.3062,-4.2986,-4.2986,-4.2986,-4.2986,-4.2818,-4.2681,-4.2625,-4.2538,-4.2369,-4.2312,-4.2256,-4.2312,-4.2312,-4.2199,-4.1891,-4.1525,-4.1248,-4.107,-4.0209,-3.989,-3.9778,-3.8887,-3.8034,-3.8418,-3.8424,-3.8108,-3.7743,-3.7308,-3.6998,-3.6843,-3.6766,-3.6657,-3.6634,-3.6603,-3.6495,-3.6495,-3.644,-3.6332,-3.6223,-3.6223,-3.6332,-3.6332,-3.6332,-3.6386,-3.644,-3.644,-3.6495,-3.6603,-3.6766,-3.6928,-3.7036,-3.7036,-3.685,-3.6657,-3.6549,-3.6766,-3.682,-3.6712,-3.6796,-3.7173,-3.7334,-3.7388,-4.6494,-4.6464,-4.5993,-4.5988,-4.6205,-4.618,-4.624,-4.6326,-4.6326,-4.6326,-4.6326,-4.6326,-4.6326,-4.6326,-4.6326,-4.6326,-4.6326,-4.6326,-4.6326,-4.6326,-4.6326,-4.6326,-4.6326,-4.6326,-4.6326,-4.6326,-4.6326,-4.612,-4.5817,-4.5514,-4.5147,-4.484,-4.4532,-4.4285,-4.4285,-4.4285,-4.4285,-4.4285,-4.4285,-4.4285,-4.4285,-4.4285,-4.4285,-4.4285,-4.4347,-4.436,-4.4365,-4.4279,-4.3939,-4.4045,-4.3387,-4.3137,-4.2986,-4.2986,-4.2986,-4.2986,-4.2986,-4.2961,-4.293,-4.2874,-4.2874,-4.2762,-4.2818,-4.2874,-4.2818,-4.2762,-4.2762,-4.2874,-4.2344,-4.2004,-4.1866,-4.1265,-4.0853,-4.054,-4.0193,-3.9782,-3.9922,-3.9099,-3.8827,-3.8701,-3.821,-3.7625,-3.7321,-3.7167,-3.7036,-3.7036,-3.6982,-3.6874,-3.682,-3.6712,-3.6712,-3.6603,-3.6603,-3.6712,-3.682,-3.682,-3.6928,-3.6982,-3.7036,-3.7036,-3.712,-3.7304,-3.7411,-3.7489,-3.7518,-3.7441,-3.7173,-3.7197,-3.7518,-3.7518,-3.7304,-3.7495,-3.7814,-3.7921,-3.7814,-4.655,-4.6588,-4.6224,-4.6205,-4.6326,-4.6326,-4.6326,-4.6326,-4.6326,-4.6326,-4.6326,-4.6326,-4.6326,-4.6326,-4.6326,-4.6326,-4.6326,-4.6326,-4.6326,-4.6326,-4.6326,-4.6326,-4.6326,-4.6326,-4.6326,-4.6326,-4.6301,-4.6266,-4.5999,-4.5757,-4.5392,-4.5086,-4.4717,-4.447,-4.4347,-4.4285,-4.4285,-4.4285,-4.4285,-4.4285,-4.4285,-4.4285,-4.4285,-4.4285,-4.4285,-4.447,-4.4633,-4.4804,-4.4565,-4.4625,-4.4119,-4.394,-4.374,-4.3413,-4.3087,-4.3438,-4.3137,-4.2986,-4.2986,-4.2986,-4.2986,-4.2986,-4.2986,-4.2986,-4.2986,-4.2986,-4.2986,-4.2986,-4.2737,-4.2625,-4.2438,-4.1879,-4.1854,-4.1601,-4.1219,-4.1072,-4.0728,-3.9897,-3.9399,-3.9296,-3.9194,-3.8629,-3.8013,-3.7607,-3.7422,-3.7291,-3.7237,-3.716,-3.7059,-3.6982,-3.6982,-3.7012,-3.7036,-3.7089,-3.7197,-3.7328,-3.7459,-3.7566,-3.7649,-3.7649,-3.7655,-3.7732,-3.7838,-3.7838,-3.7838,-3.7708,-3.7601,-3.7655,-3.7785,-3.7838,-3.7945,-3.7974,-3.7974,-3.7974,-3.7921,-4.6561,-4.6512,-4.6355,-4.6326,-4.6326,-4.6326,-4.6326,-4.6326,-4.6326,-4.6326,-4.6326,-4.6326,-4.6326,-4.6326,-4.6326,-4.6326,-4.6326,-4.6326,-4.6326,-4.6326,-4.6326,-4.6326,-4.6326,-4.6326,-4.6326,-4.6326,-4.6326,-4.6266,-4.618,-4.5999,-4.5696,-4.5331,-4.4902,-4.4594,-4.4409,-4.4285,-4.4285,-4.4285,-4.4285,-4.4285,-4.4285,-4.4285,-4.4285,-4.4285,-4.4347,-4.4532,-4.4878,-4.4902,-4.491,-4.5092,-4.4669,-4.4418,-4.4141,-4.3639,-4.3288,-4.3413,-4.3112,-4.2986,-4.2986,-4.2986,-4.2986,-4.2986,-4.2986,-4.2986,-4.2986,-4.2986,-4.2986,-4.2986,-4.2986,-4.2986,-4.2855,-4.2388,-4.2382,-4.2252,-4.1947,-4.1872,-4.1693,-4.1002,-4.0518,-4.0414,-4.0183,-3.9677,-3.9062,-3.8275,-3.7863,-3.7625,-3.7547,-3.747,-3.7523,-3.7523,-3.7554,-3.7655,-3.775,-3.7756,-3.7697,-3.7804,-3.7987,-3.8142,-3.8224,-3.8248,-3.8297,-3.8229,-3.8262,-3.821,-3.8157,-3.8185,-3.8185,-3.808,-3.7974,-3.7974,-3.7974,-3.7974,-3.7974,-3.8027,-3.8027,-4.6291,-4.6316,-4.6326,-4.6326,-4.6326,-4.6326,-4.6326,-4.6326,-4.6326,-4.6326,-4.6326,-4.6326,-4.6326,-4.6326,-4.6326,-4.6326,-4.6326,-4.6326,-4.6326,-4.6326,-4.6326,-4.6326,-4.6326,-4.6326,-4.6326,-4.6326,-4.6326,-4.6326,-4.6301,-4.624,-4.5817,-4.5331,-4.5086,-4.4656,-4.4409,-4.4285,-4.4285,-4.4285,-4.4285,-4.4285,-4.4285,-4.4285,-4.4285,-4.4347,-4.4347,-4.4594,-4.5184,-4.4986,-4.5041,-4.5454,-4.5012,-4.4593,-4.4317,-4.384,-4.3564,-4.3313,-4.3112,-4.2986,-4.2986,-4.2986,-4.2986,-4.2986,-4.2986,-4.2986,-4.2986,-4.2986,-4.2986,-4.2986,-4.2986,-4.2986,-4.2961,-4.2936,-4.2805,-4.273,-4.2549,-4.2549,-4.2443,-4.2313,-4.1848,-4.1588,-4.1082,-4.0321,-3.982,-3.898,-3.8717,-3.8503,-3.8179,-3.8131,-3.8419,-3.8497,-3.8425,-3.8503,-3.8593,-3.8551,-3.8268,-3.8398,-3.8698,-3.8752,-3.881,-3.8858,-3.8956,-3.8867,-3.8579,-3.8579,-3.8526,-3.8631,-3.8684,-3.8473,-3.8238,-3.808,-3.8027,-3.8185,-3.8185,-3.8185,-3.8185,-4.6326,-4.6326,-4.6326,-4.6326,-4.6326,-4.6326,-4.6326,-4.6326,-4.6326,-4.6326,-4.6326,-4.6326,-4.6326,-4.6326,-4.6326,-4.6326,-4.6326,-4.6326,-4.6326,-4.6326,-4.6326,-4.6326,-4.6326,-4.6326,-4.6326,-4.6326,-4.6326,-4.6326,-4.6326,-4.6326,-4.6059,-4.5635,-4.527,-4.4779,-4.447,-4.4347,-4.4285,-4.4285,-4.4285,-4.4285,-4.4285,-4.4347,-4.4409,-4.4594,-4.4594,-4.4963,-4.5489,-4.5401,-4.5604,-4.5704,-4.5397,-4.497,-4.4543,-4.4116,-4.3689,-4.3388,-4.3137,-4.2986,-4.2986,-4.2986,-4.2986,-4.2986,-4.2986,-4.2986,-4.2986,-4.2986,-4.2986,-4.2986,-4.2986,-4.2986,-4.2986,-4.2986,-4.2961,-4.2986,-4.2986,-4.2986,-4.2936,-4.2755,-4.2293,-4.1703,-4.1092,-4.0409,-4.0009,-3.9611,-3.9525,-3.936,-3.9062,-3.8863,-3.9077,-3.9218,-3.9097,-3.9024,-3.9169,-3.9345,-3.9029,-3.9233,-3.9462,-3.9418,-3.9296,-3.9271,-3.9247,-3.8953,-3.8736,-3.8788,-3.8841,-3.8841,-3.8788,-3.8631,-3.8526,-3.8396,-3.8396,-3.8526,-3.8526,-3.8421,-3.8421,-4.6326,-4.6326,-4.6326,-4.6326,-4.6326,-4.6326,-4.6326,-4.6326,-4.6326,-4.6326,-4.6326,-4.6326,-4.6326,-4.6326,-4.6326,-4.6326,-4.6326,-4.6326,-4.6326,-4.6326,-4.6326,-4.6326,-4.6326,-4.6326,-4.6326,-4.6326,-4.6326,-4.6326,-4.6326,-4.6326,-4.6059,-4.5817,-4.5574,-4.5086,-4.4594,-4.4347,-4.4285,-4.4285,-4.4285,-4.4409,-4.4409,-4.447,-4.4656,-4.4902,-4.4963,-4.5208,-4.5635,-4.5682,-4.5764,-4.5805,-4.5623,-4.5296,-4.4819,-4.4317,-4.379,-4.3489,-4.3237,-4.2986,-4.2986,-4.2986,-4.2986,-4.2986,-4.2986,-4.2986,-4.2986,-4.2986,-4.2986,-4.2986,-4.2986,-4.2986,-4.2986,-4.2986,-4.2986,-4.2986,-4.2986,-4.2986,-4.2911,-4.2755,-4.2223,-4.1638,-4.1205,-4.1056,-4.0554,-4.0202,-3.9865,-3.98,-3.9712,-3.9414,-3.9267,-3.9462,-3.9565,-3.9516,-3.957,-3.9746,-3.9898,-3.9828,-3.9759,-3.9627,-3.9558,-3.9541,-3.9417,-3.9146,-3.9074,-3.9206,-3.9206,-3.9102,-3.9074,-3.9127,-3.8945,-3.8788,-3.8813,-3.8838,-3.8684,-3.8631,-3.8684,-4.6326,-4.6326,-4.6326,-4.6326,-4.6326,-4.6326,-4.6326,-4.6326,-4.6326,-4.6326,-4.6326,-4.6326,-4.6326,-4.6326,-4.6326,-4.6326,-4.6326,-4.6326,-4.6326,-4.6326,-4.6326,-4.6326,-4.6326,-4.6326,-4.6326,-4.6326,-4.6326,-4.6326,-4.6326,-4.6326,-4.612,-4.5839,-4.5608,-4.5318,-4.4755,-4.447,-4.4347,-4.4347,-4.4347,-4.4594,-4.4717,-4.4779,-4.4963,-4.5208,-4.5147,-4.5341,-4.5643,-4.5579,-4.556,-4.5438,-4.5422,-4.4945,-4.4141,-4.3991,-4.3589,-4.3112,-4.3062,-4.2986,-4.2986,-4.2986,-4.2986,-4.2986,-4.2986,-4.2986,-4.2986,-4.2986,-4.2986,-4.2986,-4.2986,-4.2986,-4.2986,-4.2986,-4.2986,-4.2986,-4.2986,-4.2961,-4.2911,-4.283,-4.2323,-4.1898,-4.1952,-4.1907,-4.13,-4.0768,-4.0252,-4.0112,-4.0193,-4.0094,-3.9779,-4.0005,-4.031,-4.0236,-4.029,-4.0265,-4.0368,-4.0149,-4.0025,-3.9894,-3.9795,-3.978,-3.976,-3.9611,-3.959,-3.9644,-3.9667,-3.9611,-3.9615,-3.9671,-3.9586,-3.9523,-3.917,-3.9069,-3.889,-3.9016,-3.9294,-4.6326,-4.6326,-4.6326,-4.6326,-4.6326,-4.6326,-4.6326,-4.6326,-4.6326,-4.6326,-4.6326,-4.6326,-4.6326,-4.6326,-4.6326,-4.6326,-4.6326,-4.6326,-4.6326,-4.6326,-4.6326,-4.6326,-4.6326,-4.6326,-4.6326,-4.6326,-4.6326,-4.6326,-4.6326,-4.6326,-4.5965,-4.5695,-4.553,-4.5132,-4.4866,-4.4656,-4.4656,-4.4656,-4.484,-4.5025,-4.5086,-4.5147,-4.522,-4.5525,-4.5289,-4.5271,-4.5485,-4.5285,-4.5019,-4.497,-4.492,-4.4518,-4.389,-4.374,-4.3514,-4.3112,-4.2986,-4.2986,-4.2986,-4.2986,-4.2986,-4.2986,-4.2986,-4.2986,-4.2986,-4.2986,-4.2986,-4.2986,-4.2986,-4.2986,-4.2986,-4.2986,-4.2986,-4.2986,-4.2986,-4.2986,-4.2961,-4.2936,-4.271,-4.2308,-4.2187,-4.1856,-4.1404,-4.1125,-4.0686,-4.0611,-4.0724,-4.055,-4.0255,-4.0985,-4.1439,-4.1239,-4.1114,-4.096,-4.081,-4.0561,-4.0589,-4.0582,-4.0262,-3.9917,-3.9921,-4.0047,-3.9921,-3.9896,-3.9997,-4.0149,-4.0124,-4.0149,-4.0345,-4.0312,-4.0056,-3.973,-3.9556,-3.9907,-4.0411,-4.5899,-4.5748,-4.5949,-4.6024,-4.6075,-4.6225,-4.6326,-4.6326,-4.6326,-4.6326,-4.6326,-4.6326,-4.6326,-4.6326,-4.6326,-4.6326,-4.6326,-4.6326,-4.6326,-4.6326,-4.6326,-4.6326,-4.6326,-4.6326,-4.6326,-4.6326,-4.6326,-4.6326,-4.6326,-4.6326,-4.615,-4.5805,-4.545,-4.5215,-4.4963,-4.4915,-4.4963,-4.5025,-4.5147,-4.5331,-4.5342,-4.5365,-4.5338,-4.5405,-4.5251,-4.4935,-4.5037,-4.4844,-4.446,-4.4418,-4.4267,-4.4066,-4.3714,-4.3463,-4.3338,-4.3087,-4.2986,-4.2986,-4.2986,-4.2986,-4.2986,-4.2986,-4.2986,-4.2986,-4.2986,-4.2986,-4.2986,-4.2986,-4.2986,-4.2986,-4.2986,-4.2986,-4.2986,-4.2986,-4.2986,-4.2986,-4.2986,-4.2961,-4.2811,-4.2464,-4.2238,-4.1831,-4.1555,-4.1326,-4.1121,-4.1175,-4.1175,-4.1028,-4.0877,-4.148,-4.1982,-4.1756,-4.1501,-4.1272,-4.1121,-4.0971,-4.1075,-4.125,-4.0877,-4.035,-4.0501,-4.0648,-4.0373,-4.0249,-4.0526,-4.0676,-4.0551,-4.0573,-4.0874,-4.11,-4.1096,-4.0774,-4.035,-4.0701,-4.1254,-4.5146,-4.4744,-4.5221,-4.5497,-4.5598,-4.6024,-4.625,-4.6301,-4.6326,-4.6326,-4.6326,-4.6326,-4.6326,-4.6326,-4.6326,-4.6326,-4.6326,-4.6326,-4.6326,-4.6326,-4.6326,-4.6326,-4.6326,-4.6326,-4.6326,-4.6326,-4.6326,-4.6326,-4.6301,-4.615,-4.6125,-4.614,-4.581,-4.547,-4.5324,-4.5193,-4.5244,-4.5219,-4.528,-4.5437,-4.5509,-4.5221,-4.5141,-4.5094,-4.4886,-4.4611,-4.4543,-4.4392,-4.4141,-4.394,-4.3765,-4.3463,-4.3187,-4.3011,-4.2986,-4.2986,-4.2986,-4.2986,-4.2986,-4.2986,-4.2986,-4.2986,-4.2986,-4.2986,-4.2986,-4.2986,-4.2986,-4.2986,-4.2986,-4.2986,-4.2986,-4.2986,-4.2986,-4.2986,-4.2986,-4.2986,-4.2986,-4.2886,-4.2735,-4.2564,-4.2414,-4.2108,-4.1856,-4.1681,-4.1756,-4.1831,-4.1882,-4.1831,-4.1706,-4.1605,-4.1957,-4.1756,-4.158,-4.1401,-4.1275,-4.12,-4.1404,-4.158,-4.1326,-4.1003,-4.115,-4.1175,-4.0899,-4.0824,-4.1075,-4.1225,-4.1379,-4.1379,-4.1404,-4.158,-4.1882,-4.148,-4.1003,-4.1329,-4.1756,-4.4769,-4.4644,-4.4794,-4.5095,-4.5472,-4.5648,-4.5949,-4.6276,-4.6326,-4.6301,-4.6326,-4.6326,-4.6276,-4.6326,-4.6326,-4.6326,-4.6326,-4.6326,-4.6326,-4.6326,-4.6326,-4.6326,-4.6326,-4.6326,-4.6326,-4.6326,-4.6326,-4.6301,-4.6225,-4.6024,-4.605,-4.614,-4.5905,-4.572,-4.567,-4.5585,-4.5331,-4.5136,-4.5196,-4.5366,-4.5335,-4.4994,-4.4853,-4.4661,-4.4317,-4.4091,-4.4016,-4.3714,-4.3438,-4.3313,-4.3237,-4.3062,-4.3037,-4.2986,-4.2986,-4.2986,-4.2986,-4.2986,-4.2986,-4.2986,-4.2986,-4.2986,-4.2986,-4.2986,-4.2986,-4.2986,-4.2986,-4.2986,-4.2986,-4.2986,-4.2986,-4.2986,-4.2986,-4.2986,-4.2986,-4.2986,-4.2986,-4.2936,-4.2785,-4.2735,-4.2665,-4.2534,-4.2283,-4.2333,-4.2434,-4.2509,-4.2534,-4.2484,-4.2434,-4.2283,-4.2158,-4.1982,-4.1907,-4.1882,-4.1501,-4.1376,-4.1656,-4.1781,-4.1681,-4.1656,-4.1756,-4.1731,-4.1401,-4.1401,-4.163,-4.2032,-4.2434,-4.2308,-4.1982,-4.2359,-4.2585,-4.2108,-4.1781,-4.2032,-4.2183,-4.4166,-4.4016,-4.4217,-4.4618,-4.5095,-4.5146,-4.5347,-4.5623,-4.5648,-4.5748,-4.5974,-4.5974,-4.61,-4.6301,-4.6326,-4.6326,-4.6326,-4.6326,-4.6326,-4.6326,-4.6326,-4.6326,-4.6326,-4.6326,-4.6326,-4.6326,-4.6326,-4.6301,-4.62,-4.6075,-4.6075,-4.6225,-4.5899,-4.5723,-4.5623,-4.5388,-4.5078,-4.4869,-4.4794,-4.5062,-4.4945,-4.4593,-4.4392,-4.4192,-4.3765,-4.3564,-4.3463,-4.3087,-4.3011,-4.2986,-4.2986,-4.2986,-4.2986,-4.2986,-4.2986,-4.2986,-4.2986,-4.2986,-4.2986,-4.2986,-4.2986,-4.2986,-4.2986,-4.2986,-4.2986,-4.2986,-4.2986,-4.2986,-4.2986,-4.2986,-4.2986,-4.2986,-4.2986,-4.2986,-4.2986,-4.2986,-4.2986,-4.2986,-4.2961,-4.2961,-4.2936,-4.2936,-4.2936,-4.2986,-4.2961,-4.2861,-4.2811,-4.2811,-4.2785,-4.2735,-4.2635,-4.2509,-4.2459,-4.2409,-4.2057,-4.1856,-4.2108,-4.2333,-4.2333,-4.2333,-4.2384,-4.2333,-4.2183,-4.2108,-4.2082,-4.2459,-4.2811,-4.2735,-4.2615,-4.2861,-4.2986,-4.2635,-4.2359,-4.2509,-4.261,-4.3438,-4.3062,-4.3589,-4.4116,-4.4518,-4.4568,-4.4568,-4.4543,-4.4543,-4.4844,-4.5321,-4.5547,-4.5874,-4.6125,-4.6225,-4.6301,-4.6326,-4.6326,-4.6326,-4.6326,-4.6326,-4.6326,-4.6326,-4.6326,-4.6326,-4.6326,-4.6326,-4.6301,-4.6276,-4.61,-4.5974,-4.625,-4.5999,-4.5623,-4.502,-4.502,-4.4686,-4.4234,-4.4234,-4.4392,-4.4392,-4.4091,-4.374,-4.3664,-4.3338,-4.3037,-4.3037,-4.2986,-4.2986,-4.2986,-4.2986,-4.2986,-4.2986,-4.2986,-4.2986,-4.2986,-4.2986,-4.2986,-4.2986,-4.2986,-4.2986,-4.2986,-4.2986,-4.2986,-4.2986,-4.2986,-4.2986,-4.2986,-4.2986,-4.2986,-4.2986,-4.2986,-4.2986,-4.2986,-4.2986,-4.2986,-4.2986,-4.2986,-4.2986,-4.2986,-4.2986,-4.2986,-4.2986,-4.2986,-4.2986,-4.2986,-4.2986,-4.2986,-4.2986,-4.2986,-4.2936,-4.2886,-4.2811,-4.2735,-4.271,-4.2559,-4.2735,-4.2861,-4.2811,-4.2785,-4.271,-4.2811,-4.2961,-4.2735,-4.2509,-4.271,-4.2936,-4.2836,-4.2866,-4.2911,-4.2986,-4.2986,-4.2961,-4.2936,-4.2886,-4.3112,-4.3037,-4.3564,-4.389,-4.3991,-4.3991,-4.3991,-4.3966,-4.3539,-4.3966,-4.4844,-4.5598,-4.5874,-4.5698,-4.6024,-4.6175,-4.625,-4.62,-4.6301,-4.6326,-4.6326,-4.625,-4.6276,-4.62,-4.6225,-4.6326,-4.6326,-4.6225,-4.6075,-4.5874,-4.5673,-4.5623,-4.5422,-4.4895,-4.4568,-4.4568,-4.4116,-4.3714,-4.3589,-4.3765,-4.389,-4.3539,-4.3162,-4.3162,-4.2986,-4.2986,-4.2986,-4.2986,-4.2986,-4.2986,-4.2986,-4.2986,-4.2986,-4.2986,-4.2986,-4.2986,-4.2986,-4.2986,-4.2986,-4.2986,-4.2986,-4.2986,-4.2986,-4.2986,-4.2986,-4.2986,-4.2986,-4.2986,-4.2986,-4.2986,-4.2986,-4.2986,-4.2986,-4.2986,-4.2986,-4.2986,-4.2986,-4.2986,-4.2986,-4.2986,-4.2986,-4.2986,-4.2986,-4.2986,-4.2986,-4.2986,-4.2986,-4.2986,-4.2986,-4.2986,-4.2986,-4.2936,-4.2961,-4.2936,-4.2986,-4.2986,-4.2986,-4.2986,-4.2911,-4.2936,-4.2986,-4.2986,-4.2986,-4.2986,-4.2936,-4.2986,-4.2986,-4.2961,-4.2961,-4.2986,-4.2986,-4.2986,-4.2986,-4.2961,-4.2961,-4.2986,-4.3037,-4.3313,-4.3438,-4.3438,-4.3438,-4.3438,-4.3413,-4.3363,-4.3539,-4.3966,-4.4744,-4.5146,-4.507,-4.5447,-4.5799,-4.5899,-4.5924,-4.61,-4.6225,-4.6225,-4.61,-4.6075,-4.5949,-4.5648,-4.5673,-4.5849,-4.5824,-4.5648,-4.5648,-4.5447,-4.5121,-4.4719,-4.4468,-4.4292,-4.3915,-4.3639,-4.3413,-4.3112,-4.3212,-4.3463,-4.3162,-4.2986,-4.2986,-4.2986,-4.2986,-4.2986,-4.2986,-4.2986,-4.2986,-4.2986,-4.2986,-4.2986,-4.2986,-4.2986,-4.2986,-4.2986,-4.2986,-4.2986,-4.3042,-4.3042,-4.3098,-4.3042,-4.3042,-4.2986,-4.2986,-4.2986,-4.2986,-4.2986,-4.2986,-4.2986,-4.2986,-4.2986,-4.2986,-4.2986,-4.2986,-4.2986,-4.2986,-4.2986,-4.2986,-4.2986,-4.2986,-4.2986,-4.2986,-4.2986,-4.2986,-4.2986,-4.2986,-4.2986,-4.2986,-4.2986,-4.2986,-4.2986,-4.2986,-4.2986,-4.2986,-4.2986,-4.2986,-4.2986,-4.2986,-4.2986,-4.2986,-4.2986,-4.2986,-4.2986,-4.2986,-4.2986,-4.2986,-4.2986,-4.2986,-4.2986,-4.2986,-4.2986,-4.2986,-4.2986,-4.2986,-4.2986,-4.2986,-4.2986,-4.2986,-4.2986,-4.3011,-4.3062,-4.3463,-4.3413,-4.3162,-4.3564,-4.3991,-4.4367,-4.4644,-4.4995,-4.5246,-4.5347,-4.5673,-4.5899,-4.61,-4.5773,-4.5547,-4.5447,-4.5246,-4.5121,-4.5196,-4.507,-4.4844,-4.4895,-4.4844,-4.4568,-4.4367,-4.4166,-4.384,-4.3639,-4.3463,-4.3187,-4.2986,-4.2986,-4.3011,-4.2986,-4.2986,-4.2986,-4.2986,-4.2986,-4.2986,-4.2986,-4.2986,-4.2986,-4.2986,-4.2986,-4.2986,-4.2986,-4.2986,-4.3042,-4.3209,-4.3154,-4.3098,-4.3295,-4.3265,-4.3209,-4.3154,-4.3154,-4.3209,-4.3154,-4.3154,-4.3209,-4.3209,-4.3042,-4.3042,-4.3042,-4.3042,-4.3042,-4.3042,-4.3098,-4.3098,-4.3098,-4.3042,-4.3042,-4.3042,-4.3042,-4.3042,-4.3042,-4.3042,-4.3042,-4.3042,-4.2986,-4.2986,-4.2986,-4.2986,-4.2986,-4.2986,-4.2986,-4.2986,-4.2986,-4.2986,-4.2986,-4.2986,-4.2986,-4.2986,-4.2986,-4.2986,-4.2986,-4.2986,-4.2986,-4.2986,-4.2986,-4.2986,-4.2986,-4.2986,-4.2986,-4.2986,-4.2986,-4.2986,-4.2986,-4.2986,-4.2986,-4.2986,-4.2986,-4.2986,-4.2986,-4.3042,-4.3087,-4.3062,-4.3037,-4.3087,-4.3438,-4.3991,-4.4468,-4.4744,-4.4744,-4.4794,-4.4794,-4.4945,-4.5472,-4.5246,-4.497,-4.4895,-4.4995,-4.4844,-4.4644,-4.4669,-4.4342,-4.4217,-4.4116,-4.3966,-4.3489,-4.3313,-4.3263,-4.3137,-4.3162,-4.2986,-4.2986,-4.2986,-4.2986,-4.2986,-4.2986,-4.2986,-4.2986,-4.2986,-4.2986,-4.2986,-4.2986,-4.2986,-4.3042,-4.3098,-4.3209,-4.3209,-4.3265,-4.3351,-4.3543,-4.3487,-4.3517,-4.3848,-4.3903,-4.3708,-4.3764,-4.3874,-4.3874,-4.3819,-4.3874,-4.4013,-4.3848,-4.3321,-4.3209,-4.3209,-4.3209,-4.3184,-4.3184,-4.3432,-4.3543,-4.3295,-4.3129,-4.3129,-4.3098,-4.3098,-4.3154,-4.3154,-4.3154,-4.3154,-4.3265,-4.3209,-4.3154,-4.3098,-4.3042,-4.2986,-4.2986,-4.2986,-4.2986,-4.2986,-4.2986,-4.2986,-4.2986,-4.2986,-4.2986,-4.2986,-4.2986,-4.2986,-4.2986,-4.2986,-4.2986,-4.2986,-4.2986,-4.2986,-4.2986,-4.2986,-4.2986,-4.2986,-4.2986]},{"header":{"parameterUnit":"m.s-1","parameterCategory":1,"la1":31.0,"la2":29.5877,"lo1":-88.7671,"lo2":-86.6584,"dy":0.0162,"dx":0.0185,"nx":115,"ny":88,"refTime":"2023-07-21T06:00:00:Z","depth":0,"parameterNumber":3,"parameterNumberName":"V-component_of_WINDS"},"data":[0.0,0.0,0.0,0.0,0.0,0.0,0.0,0.0,0.0,0.0,0.0,0.0,0.0,0.0,0.0,0.0,0.0,0.0,0.0,0.0,0.0,0.0,0.0,0.0,0.0,0.0,0.0,0.0,0.0,0.0,0.0,0.0,0.0,0.0,0.0,0.0,0.0,0.0,0.0,0.0,0.0,0.0,0.0,0.0,0.0,0.0,0.0,0.0,0.0,0.0,0.0,0.0,0.0,0.0,0.0,0.0,0.0,0.0,0.0,0.0,0.0,0.0,0.0,0.0,0.0,0.0,0.0,0.0,0.0,0.0,0.0,0.0,0.0,0.0,0.0,0.0,0.0,0.0,0.0,0.0,0.0,0.0,0.0,0.0,0.0,0.0,0.0,0.0,0.0,0.0,0.0,0.0,0.0,0.0,0.0,0.0,0.0,0.0,0.0,0.0,0.0,0.0,0.0,0.0,0.0,0.0,0.0,0.0,0.0,0.0,0.0,0.0,0.0,0.0,0.0,0.0,0.0,0.0,0.0,0.0,0.0,0.0,0.0,0.0,0.0,0.0,0.0,0.0,0.0,0.0,0.0,0.0,0.0,0.0,0.0,0.0,0.0,0.0,0.0,0.0,0.0,0.0,0.0,0.0,0.0,0.0,0.0,0.0,0.0,0.0,0.0,0.0,0.0,0.0,0.0,0.0,0.0,0.0,0.0,0.0,0.0,0.0,0.0,0.0,0.0,0.0,0.0,0.0,0.0,0.0,0.0,0.0,0.0,0.0,0.0,0.0,0.0,0.0,0.0,0.0,0.0,0.0,0.0,0.0,0.0,0.0,0.0,0.0,0.0,0.0,0.0,0.0,0.0,0.0,0.0,0.0,0.0,0.0,0.0,0.0,0.0,0.0,0.0,0.0,0.0,0.0,0.0,0.0,0.0,0.0,0.0,0.0,0.0,0.0,0.0,0.0,0.0,0.0,0.0,0.0,0.0,0.0,0.0,0.0,0.0,0.0,0.0,0.0,0.0,0.0,0.0,0.0,0.0,0.0,0.0,0.0,0.0,0.0,0.0,0.0,0.0,0.0,0.0,0.0,0.0,0.0,0.0,0.0,0.0,0.0,0.0,0.0,0.0,0.0,0.0,0.0,0.0,0.0,0.0,0.0,0.0,0.0,0.0,0.0,0.0,0.0,0.0,0.0,0.0,0.0,0.0,0.0,0.0,0.0,0.0,0.0,0.0,0.0,0.0,0.0,0.0,0.0,0.0,0.0,0.0,0.0,0.0,0.0,0.0,0.0,0.0,0.0,0.0,0.0,0.0,0.0,0.0,0.0,0.0,0.0,0.0,0.0,0.0,0.0,0.0,0.0,0.0,0.0,0.0,0.0,0.0,0.0,0.0,0.0,0.0,0.0,0.0,0.0,0.0,0.0,0.0,0.0,0.0,0.0,0.0,0.0,0.0,0.0,0.0,0.0,0.0,0.0,0.0,0.0,0.0,0.0,0.0,0.0,0.0,0.0,0.0,0.0,0.0,0.0,0.0,0.0,0.0,0.0,0.0,0.0,0.0,0.0,0.0,0.0,0.0,0.0,0.0,0.0,0.0,0.0,0.0,0.0,0.0,0.0,0.0,0.0,0.0,0.0,0.0,0.0,0.0,0.0,0.0,0.0,0.0,0.0,0.0,0.0,0.0,0.0,0.0,0.0,0.0,0.0,0.0,0.0,0.0,0.0,0.0,0.0,0.0,0.0,0.0,0.0,0.0,0.0,0.0,0.0,0.0,0.0,0.0,0.0,0.0,0.0,0.0,0.0,0.0,0.0,0.0,0.0,0.0,0.0,0.0,0.0,0.0,0.0,0.0,0.0,0.0,0.0,0.0,0.0,0.0,0.0,0.0,0.0,0.0,0.0,0.0,0.0,0.0,0.0,0.0,0.0,0.0,0.0,0.0,0.0,0.0,0.0,0.0,0.0,0.0,0.0,0.0,0.0,0.0,0.0,0.0,0.0,0.0,0.0,0.0,0.0,0.0,0.0,0.0,0.0,0.0,0.0,0.0,0.0,0.0,0.0,0.0,0.0,0.0,0.0,0.0,0.0,0.0,0.0,0.0,0.0,0.0,0.0,0.0,0.0,0.0,0.0,0.0,0.0,0.0,0.0,0.0,0.0,0.0,0.0,0.0,0.0,0.0,0.0,0.0,0.0,0.0,0.0,0.0,0.0,0.0,0.0,0.0,0.0,0.0,0.0,0.0,0.0,0.0,0.0,0.0,0.0,0.0,0.0,0.0,0.0,0.0,0.0,0.0,0.0,0.0,0.0,0.0,0.0,0.0,0.0,0.0,0.0,0.0,0.0,0.0,0.0,0.0,0.0,0.0,0.0,0.0,0.0,0.0,0.0,0.0,0.0,0.0,0.0,0.0,0.0,0.0,0.0,0.0,0.0,0.0,0.0,0.0,0.0,0.0,0.0,0.0,0.0,0.0,0.0,0.0,0.0,0.0,0.0,0.0,0.0,0.0,0.0,0.0,0.0,0.0,0.0,0.0,0.0,0.0,0.0,0.0,0.0,0.0,0.0,0.0,0.0,0.0,0.0,0.0,0.0,0.0,0.0,0.0,0.0,0.0,0.0,0.0,0.0,0.0,0.0,0.0,0.0,0.0,0.0,0.0,0.0,0.0,0.0,0.0,0.0,0.0,0.0,0.0,0.0,0.0,0.0,0.0,0.0,0.0,0.0,0.0,0.0,0.0,0.0,0.0,0.0,0.0,0.0,0.0,0.0,0.0,0.0,0.0,0.0,0.0,0.0,0.0,0.0,0.0,0.0,0.0,0.0,0.0,0.0,0.0,0.0,0.0,0.0,0.0,0.0,0.0,0.0,0.0,0.0,0.0,0.0,0.0,0.0,0.0,0.0,0.0,0.0,0.0,0.0,0.0,0.0,0.0,0.0,0.0,0.0,0.0,0.0,0.0,0.0,0.0,0.0,0.0,0.0,0.0,0.0,0.0,0.0,0.0,0.0,0.0,0.0,0.0,0.0,0.0,0.0,0.0,0.0,0.0,0.0,0.0,0.0,0.0,0.0,0.0,0.0,0.0,0.0,0.0,0.0,0.0,0.0,0.0,0.0,0.0,0.0,0.0,0.0,0.0,0.0,0.0,0.0,0.0,0.0,0.0,0.0,0.0,0.0,0.0,0.0,0.0,0.0,0.0,0.0,0.0,0.0,0.0,0.0,0.0,0.0,0.0,0.0,0.0,0.0,0.0,0.0,0.0,0.0,0.0,0.0,0.0,0.0,0.0,0.0,0.0,0.0,0.0,0.0,0.0,0.0,0.0,0.0,0.0,0.0,0.0,0.0,0.0,0.0,0.0,0.0,0.0,0.0,0.0,0.0,0.0,0.0,0.0,0.0,0.0,0.0,0.0,0.0,0.0,0.0,0.0,0.0,0.0,0.0,0.0,0.0,0.0,0.0,0.0,0.0,0.0,0.0,0.0,0.0,0.0,0.0,0.0,0.0,0.0,0.0,0.0,0.0,0.0,0.0,0.0,0.0,0.0,0.0,0.0,0.0,0.0,0.0,0.0,0.0,0.0,0.0,0.0,0.0,0.0,0.0,0.0,0.0,0.0,0.0,0.0,0.0,0.0,0.0,0.0,0.0,0.0,0.0,0.0,0.0,0.0,0.0,0.0,0.0,0.0,0.0,0.0,0.0,0.0,0.0,0.0,0.0,0.0,0.0,0.0,0.0,0.0,0.0,0.0,0.0,0.0,0.0,0.0,0.0,0.0,0.0,0.0,0.0,0.0,0.0,0.0,0.0,0.0,0.0,0.0,0.0,0.0,0.0,0.0,0.0,0.0,0.0,0.0,0.0,0.0,0.0,0.0,0.0,0.0,0.0,0.0,0.0,0.0,0.0,0.0,0.0,0.0,0.0,0.0,0.0,0.0,0.0,0.0,0.0,0.0,0.0,0.0,0.0,0.0,0.0,0.0,0.0,0.0,0.0,0.0,0.0,0.0,0.0,0.0,0.0,0.0,0.0,0.0,0.0,0.0,0.0,0.0,0.0,0.0,0.0,0.0,0.0,0.0,0.0,0.0,0.0,0.0,0.0,0.0,0.0,0.0,0.0,0.0,0.0,0.0,0.0,0.0,0.0,0.0,0.0,0.0,0.0,0.0,0.0,0.0,0.0,0.0,0.0,0.0,0.0,0.0,0.0,0.0,0.0,0.0,0.0,0.0,0.0,0.0,0.0,0.0,0.0,0.0,0.0,0.0,0.0,0.0,0.0,0.0,0.0,-0.8747,0.0,0.0,0.0,0.0,0.0,0.0,0.0,0.0,0.0,0.0,0.0,0.0,0.0,0.0,0.0,0.0,0.0,0.0,0.0,0.0,0.0,0.0,0.0,0.0,0.0,0.0,0.0,0.0,0.0,0.0,0.0,0.0,0.0,0.0,0.0,0.0,0.0,0.0,0.0,0.0,0.0,0.0,0.0,0.0,0.0,0.0,0.0,0.0,0.0,0.0,0.0,0.0,0.0,0.0,0.0,0.0,0.0,0.0,0.0,0.0,0.0,0.0,0.0,0.0,0.0,0.0,0.0,0.0,0.0,0.0,0.0,0.0,0.0,0.0,0.0,0.0,0.0,0.0,0.0,0.0,0.0,0.0,0.0,0.0,0.0,0.0,0.0,0.0,0.0,0.0,0.0,0.0,0.0,0.0,0.0,0.0,0.0,0.0,0.0,0.0,0.0,0.0,0.0,0.0,0.0,0.0,0.0,0.0,0.0,0.0,-0.9858,-0.9771,-0.9032,-0.8701,-0.8897,0.0,0.0,0.0,0.0,0.0,0.0,0.0,0.0,0.0,0.0,0.0,0.0,0.0,0.0,0.0,0.0,0.0,0.0,0.0,0.0,0.0,0.0,0.0,0.0,0.0,0.0,0.0,0.0,0.0,0.0,0.0,0.0,0.0,0.0,0.0,0.0,0.0,0.0,0.0,0.0,0.0,0.0,0.0,0.0,0.0,0.0,0.0,0.0,0.0,0.0,0.0,0.0,0.0,0.0,0.0,0.0,0.0,0.0,0.0,0.0,0.0,0.0,0.0,0.0,0.0,0.0,0.0,0.0,0.0,0.0,0.0,0.0,0.0,0.0,0.0,0.0,0.0,0.0,0.0,0.0,0.0,0.0,0.0,0.0,0.0,0.0,0.0,0.0,0.0,0.0,0.0,0.0,0.0,0.0,0.0,0.0,0.0,0.0,0.0,0.0,0.0,0.0,0.0,0.0,0.0,0.0,0.0,0.0,0.0,0.0,0.0,0.0,-0.9427,-0.9101,-0.9093,0.0,0.0,0.0,0.0,0.0,0.0,0.0,0.0,0.0,0.0,0.0,0.0,0.0,0.0,0.0,0.0,0.0,0.0,0.0,0.0,0.0,0.0,0.0,0.0,0.0,0.0,0.0,0.0,0.0,0.0,0.0,0.0,0.0,0.0,0.0,0.0,0.0,0.0,0.0,0.0,0.0,0.0,0.0,0.0,0.0,0.0,0.0,0.0,0.0,0.0,0.0,0.0,0.0,0.0,0.0,0.0,0.0,0.0,0.0,0.0,0.0,0.0,0.0,0.0,0.0,0.0,0.0,0.0,0.0,0.0,0.0,0.0,0.0,0.0,0.0,0.0,0.0,0.0,0.0,0.0,0.0,0.0,0.0,0.0,0.0,0.0,0.0,0.0,0.0,0.0,0.0,0.0,0.0,0.0,0.0,0.0,0.0,0.0,0.0,0.0,0.0,0.0,0.0,0.0,0.0,0.0,0.0,0.0,0.0,0.0,-1.0153,-0.9856,-0.9969,0.0,-0.9692,0.0,0.0,0.0,0.0,0.0,0.0,0.0,0.0,0.0,0.0,0.0,0.0,0.0,0.0,0.0,0.0,0.0,0.0,0.0,0.0,0.0,0.0,0.0,0.0,0.0,0.0,0.0,0.0,0.0,0.0,0.0,0.0,0.0,0.0,0.0,0.0,0.0,0.0,0.0,0.0,0.0,0.0,0.0,0.0,0.0,0.0,0.0,0.0,0.0,0.0,0.0,0.0,0.0,0.0,0.0,0.0,0.0,0.0,0.0,0.0,0.0,0.0,0.0,0.0,0.0,0.0,0.0,0.0,0.0,0.0,0.0,0.0,0.0,0.0,0.0,0.0,0.0,0.0,0.0,0.0,0.0,0.0,0.0,0.0,0.0,0.0,0.0,0.0,0.0,0.0,0.0,0.0,0.0,0.0,0.0,0.0,0.0,0.0,0.0,0.0,0.0,0.0,0.0,0.0,0.0,0.0,0.0,0.0,0.0,0.0,-1.1002,-1.0456,-1.0441,-1.0328,0.0,0.0,0.0,0.0,0.0,0.0,0.0,0.0,0.0,0.0,0.0,0.0,0.0,0.0,0.0,0.0,0.0,0.0,0.0,0.0,0.0,0.0,0.0,0.0,0.0,0.0,0.0,0.0,0.0,0.0,0.0,0.0,0.0,0.0,0.0,0.0,0.0,0.0,0.0,0.0,0.0,0.0,0.0,0.0,0.0,0.0,0.0,0.0,0.0,0.0,0.0,0.0,0.0,0.0,0.0,0.0,0.0,0.0,0.0,0.0,0.0,0.0,0.0,0.0,0.0,0.0,0.0,0.0,0.0,0.0,0.0,0.0,0.0,0.0,0.0,0.0,0.0,0.0,0.0,0.0,0.0,0.0,0.0,0.0,0.0,0.0,0.0,0.0,0.0,0.0,0.0,0.0,0.0,0.0,0.0,0.0,0.0,0.0,0.0,0.0,0.0,0.0,0.0,0.0,0.0,0.0,0.0,0.0,0.0,0.0,-1.2017,-1.1724,-1.1315,-1.1217,-1.1042,-1.0797,0.0,0.0,0.0,0.0,0.0,0.0,0.0,0.0,0.0,0.0,0.0,0.0,0.0,0.0,0.0,0.0,0.0,0.0,0.0,0.0,0.0,0.0,0.0,0.0,0.0,0.0,0.0,0.0,0.0,0.0,0.0,0.0,0.0,0.0,0.0,0.0,0.0,0.0,0.0,0.0,0.0,0.0,0.0,0.0,0.0,0.0,0.0,0.0,0.0,0.0,0.0,0.0,0.0,0.0,0.0,0.0,0.0,0.0,0.0,0.0,0.0,0.0,0.0,0.0,0.0,0.0,0.0,0.0,0.0,0.0,0.0,0.0,0.0,0.0,0.0,0.0,0.0,0.0,0.0,0.0,0.0,0.0,0.0,0.0,0.0,0.0,0.0,0.0,0.0,0.0,0.0,0.0,0.0,0.0,0.0,0.0,0.0,0.0,0.0,0.0,0.0,0.0,0.0,0.0,0.0,0.0,0.0,0.0,-1.2289,-1.2184,-1.2141,-1.2246,-1.2491,-1.2351,0.0,0.0,0.0,0.0,0.0,0.0,0.0,0.0,0.0,0.0,0.0,0.0,0.0,0.0,0.0,0.0,0.0,0.0,0.0,0.0,0.0,0.0,0.0,0.0,0.0,0.0,0.0,0.0,0.0,0.0,0.0,0.0,0.0,0.0,0.0,0.0,0.0,0.0,0.0,0.0,0.0,0.0,0.0,0.0,0.0,0.0,0.0,0.0,0.0,0.0,0.0,0.0,0.0,0.0,0.0,0.0,0.0,0.0,0.0,0.0,0.0,0.0,0.0,0.0,0.0,0.0,0.0,0.0,0.0,0.0,0.0,0.0,0.0,0.0,0.0,0.0,0.0,0.0,0.0,0.0,0.0,0.0,0.0,0.0,0.0,0.0,0.0,0.0,0.0,0.0,0.0,0.0,0.0,0.0,0.0,0.0,0.0,0.0,0.0,0.0,0.0,0.0,0.0,0.0,0.0,0.0,0.0,0.0,0.0,-1.2632,-1.2603,-1.2608,-1.273,-1.2997,-1.2816,0.0,0.0,0.0,0.0,0.0,0.0,0.0,0.0,0.0,0.0,0.0,0.0,0.0,0.0,0.0,0.0,0.0,0.0,0.0,0.0,0.0,0.0,0.0,0.0,0.0,0.0,0.0,0.0,0.0,0.0,0.0,0.0,0.0,0.0,0.0,0.0,0.0,0.0,0.0,0.0,0.0,0.0,0.0,0.0,0.0,0.0,0.0,0.0,0.0,0.0,0.0,0.0,0.0,0.0,0.0,0.0,0.0,0.0,0.0,0.0,0.0,0.0,0.0,0.0,0.0,0.0,0.0,0.0,0.0,0.0,0.0,0.0,0.0,0.0,0.0,0.0,0.0,0.0,0.0,0.0,0.0,0.0,0.0,0.0,0.0,0.0,0.0,0.0,0.0,0.0,0.0,0.0,0.0,0.0,0.0,0.0,0.0,0.0,0.0,0.0,0.0,0.0,0.0,0.0,0.0,0.0,0.0,0.0,0.0,-1.3293,0.0,-1.3372,-1.3784,-1.3813,-1.357,0.0,0.0,0.0,0.0,0.0,0.0,0.0,0.0,0.0,0.0,0.0,0.0,0.0,0.0,0.0,0.0,0.0,0.0,0.0,0.0,0.0,0.0,0.0,0.0,0.0,0.0,0.0,0.0,0.0,0.0,0.0,0.0,0.0,0.0,0.0,0.0,0.0,0.0,0.0,0.0,0.0,0.0,0.0,0.0,0.0,0.0,0.0,0.0,0.0,0.0,0.0,0.0,0.0,0.0,0.0,0.0,0.0,0.0,0.0,0.0,0.0,0.0,0.0,0.0,0.0,0.0,0.0,0.0,0.0,0.0,0.0,0.0,0.0,0.0,0.0,0.0,0.0,0.0,0.0,0.0,0.0,0.0,0.0,0.0,0.0,0.0,0.0,0.0,0.0,0.0,0.0,0.0,0.0,0.0,0.0,0.0,0.0,0.0,0.0,0.0,0.0,0.0,0.0,0.0,0.0,0.0,0.0,0.0,-1.4014,-1.4304,-1.4169,-1.4547,-1.5455,-1.4981,-1.4682,0.0,0.0,0.0,0.0,0.0,0.0,0.0,0.0,0.0,0.0,0.0,0.0,0.0,0.0,0.0,0.0,0.0,0.0,0.0,0.0,0.0,0.0,0.0,0.0,0.0,0.0,0.0,0.0,0.0,0.0,0.0,0.0,0.0,0.0,0.0,0.0,0.0,0.0,0.0,0.0,0.0,0.0,0.0,0.0,0.0,0.0,0.0,0.0,0.0,0.0,0.0,0.0,0.0,0.0,0.0,0.0,0.0,0.0,0.0,0.0,0.0,0.0,0.0,0.0,0.0,0.0,0.0,0.0,0.0,0.0,0.0,0.0,0.0,0.0,0.0,0.0,0.0,0.0,0.0,0.0,0.0,0.0,0.0,0.0,0.0,0.0,0.0,0.0,0.0,0.0,0.0,0.0,0.0,0.0,0.0,0.0,0.0,0.0,0.0,0.0,0.0,0.0,0.0,0.0,0.0,0.0,0.0,0.0,0.0,-1.5873,-1.6165,-1.6504,-1.677,-1.6392,-1.5886,0.0,0.0,0.0,0.0,0.0,0.0,0.0,0.0,0.0,0.0,0.0,0.0,0.0,0.0,0.0,0.0,0.0,0.0,0.0,0.0,0.0,0.0,0.0,0.0,0.0,0.0,0.0,0.0,0.0,0.0,0.0,0.0,0.0,0.0,0.0,0.0,0.0,0.0,0.0,0.0,0.0,0.0,0.0,0.0,0.0,0.0,0.0,0.0,0.0,0.0,0.0,0.0,0.0,0.0,0.0,0.0,0.0,0.0,0.0,0.0,0.0,0.0,0.0,0.0,0.0,0.0,0.0,0.0,0.0,0.0,0.0,0.0,0.0,0.0,0.0,0.0,0.0,0.0,0.0,0.0,0.0,0.0,0.0,0.0,0.0,0.0,0.0,0.0,0.0,0.0,0.0,0.0,0.0,0.0,0.0,0.0,0.0,0.0,0.0,0.0,0.0,0.0,0.0,0.0,0.0,0.0,0.0,0.0,0.0,-1.945,-1.9292,-1.9212,-1.927,-1.882,-1.8043,-1.6888,0.0,0.0,0.0,0.0,0.0,0.0,0.0,0.0,0.0,0.0,0.0,0.0,0.0,0.0,0.0,0.0,0.0,0.0,0.0,0.0,0.0,0.0,0.0,0.0,0.0,0.0,0.0,0.0,0.0,0.0,0.0,0.0,0.0,0.0,0.0,0.0,0.0,0.0,0.0,0.0,0.0,0.0,0.0,0.0,0.0,0.0,0.0,0.0,0.0,0.0,0.0,0.0,0.0,0.0,0.0,0.0,0.0,0.0,0.0,0.0,0.0,0.0,0.0,0.0,0.0,0.0,0.0,0.0,0.0,0.0,0.0,0.0,0.0,0.0,0.0,0.0,0.0,0.0,0.0,0.0,0.0,0.0,0.0,0.0,0.0,0.0,0.0,0.0,0.0,0.0,0.0,0.0,0.0,0.0,0.0,0.0,0.0,0.0,0.0,0.0,0.0,0.0,0.0,0.0,0.0,0.0,0.0,0.0,-2.451,-2.3461,-2.2892,-2.2776,-2.2097,-2.0904,0.0,0.0,0.0,0.0,0.0,0.0,0.0,0.0,0.0,0.0,0.0,0.0,0.0,0.0,0.0,0.0,0.0,0.0,0.0,0.0,0.0,0.0,0.0,0.0,0.0,0.0,0.0,0.0,0.0,0.0,0.0,0.0,0.0,0.0,0.0,0.0,0.0,0.0,0.0,0.0,0.0,0.0,0.0,0.0,0.0,0.0,0.0,0.0,0.0,0.0,0.0,0.0,0.0,0.0,0.0,0.0,0.0,0.0,0.0,0.0,0.0,0.0,0.0,0.0,0.0,0.0,0.0,0.0,0.0,0.0,0.0,0.0,0.0,0.0,0.0,0.0,0.0,0.0,0.0,0.0,0.0,0.0,0.0,0.0,0.0,0.0,0.0,0.0,0.0,0.0,0.0,0.0,0.0,0.0,0.0,0.0,0.0,0.0,0.0,0.0,0.0,0.0,0.0,0.0,0.0,0.0,0.0,0.0,0.0,-2.7248,-3.003,-3.0108,-2.715,-2.4911,-2.3235,0.0,0.0,0.0,0.0,0.0,0.0,0.0,0.0,0.0,0.0,0.0,0.0,0.0,0.0,0.0,0.0,0.0,0.0,0.0,0.0,0.0,0.0,0.0,0.0,0.0,0.0,0.0,0.0,0.0,0.0,0.0,0.0,0.0,0.0,0.0,0.0,0.0,0.0,0.0,0.0,0.0,0.0,0.0,0.0,0.0,0.0,0.0,0.0,0.0,0.0,0.0,0.0,0.0,0.0,0.0,0.0,0.0,0.0,0.0,0.0,0.0,0.0,0.0,0.0,0.0,0.0,0.0,0.0,0.0,0.0,0.0,0.0,0.0,0.0,0.0,0.0,0.0,0.0,0.0,0.0,0.0,0.0,0.0,0.0,0.0,0.0,0.0,0.0,0.0,0.0,0.0,0.0,0.0,0.0,0.0,0.0,0.0,0.0,0.0,0.0,0.0,0.0,0.0,0.0,0.0,0.0,0.0,0.0,-2.7646,-2.9931,-3.4084,-3.5289,-3.3424,-2.9358,-2.6181,0.0,0.0,0.0,0.0,0.0,0.0,0.0,0.0,0.0,0.0,0.0,0.0,0.0,0.0,0.0,0.0,0.0,0.0,0.0,0.0,0.0,0.0,0.0,0.0,0.0,0.0,0.0,0.0,0.0,0.0,0.0,0.0,0.0,0.0,0.0,0.0,0.0,0.0,0.0,0.0,0.0,0.0,0.0,0.0,0.0,0.0,0.0,0.0,0.0,0.0,0.0,0.0,0.0,0.0,0.0,0.0,0.0,0.0,0.0,0.0,0.0,0.0,0.0,0.0,0.0,0.0,0.0,0.0,0.0,0.0,0.0,0.0,0.0,0.0,0.0,0.0,0.0,0.0,0.0,0.0,0.0,0.0,0.0,0.0,0.0,0.0,0.0,0.0,0.0,0.0,0.0,0.0,0.0,0.0,0.0,0.0,0.0,0.0,0.0,0.0,0.0,0.0,0.0,0.0,0.0,0.0,0.0,0.0,-3.0668,-3.2629,-3.6605,-3.9107,-3.9761,-3.4184,-2.9383,0.0,0.0,0.0,0.0,0.0,0.0,0.0,0.0,0.0,0.0,0.0,0.0,0.0,0.0,0.0,0.0,0.0,0.0,0.0,0.0,0.0,0.0,0.0,0.0,0.0,0.0,0.0,0.0,0.0,0.0,0.0,0.0,0.0,0.0,0.0,0.0,0.0,0.0,0.0,0.0,0.0,0.0,0.0,0.0,0.0,0.0,0.0,0.0,0.0,0.0,0.0,0.0,0.0,0.0,0.0,0.0,0.0,0.0,0.0,0.0,0.0,0.0,0.0,0.0,0.0,0.0,0.0,0.0,0.0,0.0,0.0,0.0,0.0,0.0,0.0,0.0,0.0,0.0,0.0,0.0,0.0,0.0,0.0,0.0,0.0,0.0,0.0,0.0,0.0,0.0,0.0,0.0,0.0,0.0,0.0,0.0,0.0,0.0,0.0,0.0,0.0,0.0,0.0,0.0,0.0,0.0,0.0,0.0,-3.2205,-3.5309,-3.9698,-4.1735,-4.1303,-3.5319,-3.1261,0.0,0.0,0.0,0.0,0.0,0.0,0.0,0.0,0.0,0.0,0.0,0.0,0.0,0.0,0.0,0.0,0.0,0.0,0.0,0.0,0.0,0.0,0.0,0.0,0.0,0.0,0.0,0.0,0.0,0.0,0.0,0.0,0.0,0.0,0.0,0.0,0.0,0.0,0.0,0.0,0.0,0.0,0.0,0.0,0.0,0.0,0.0,0.0,-1.7218,0.0,0.0,0.0,0.0,0.0,0.0,0.0,0.0,0.0,0.0,0.0,0.0,0.0,0.0,0.0,0.0,0.0,0.0,0.0,0.0,0.0,0.0,0.0,0.0,0.0,0.0,0.0,0.0,0.0,0.0,0.0,0.0,0.0,0.0,0.0,0.0,0.0,0.0,0.0,0.0,0.0,0.0,0.0,0.0,0.0,0.0,0.0,0.0,0.0,0.0,0.0,0.0,0.0,0.0,0.0,0.0,0.0,0.0,0.0,-3.3816,-3.7645,-4.1242,-4.3209,-4.3208,-3.8707,-3.4569,0.0,0.0,0.0,0.0,0.0,0.0,0.0,0.0,0.0,0.0,0.0,0.0,0.0,0.0,0.0,0.0,0.0,0.0,0.0,0.0,0.0,0.0,0.0,0.0,0.0,0.0,0.0,0.0,0.0,0.0,0.0,0.0,0.0,0.0,0.0,0.0,0.0,0.0,0.0,0.0,0.0,0.0,0.0,0.0,0.0,0.0,0.0,0.0,0.0,0.0,0.0,0.0,0.0,0.0,0.0,0.0,0.0,0.0,0.0,0.0,0.0,0.0,0.0,0.0,0.0,0.0,0.0,0.0,0.0,0.0,0.0,0.0,0.0,0.0,0.0,0.0,0.0,0.0,0.0,0.0,0.0,0.0,0.0,0.0,0.0,0.0,0.0,0.0,0.0,0.0,0.0,0.0,0.0,0.0,0.0,0.0,0.0,0.0,0.0,0.0,0.0,0.0,0.0,0.0,0.0,0.0,0.0,-3.1233,-3.5282,-3.9844,-4.2367,-4.4167,-4.5214,-4.2227,-3.7978,-3.2539,0.0,0.0,0.0,0.0,0.0,0.0,0.0,0.0,0.0,0.0,0.0,0.0,0.0,0.0,0.0,0.0,0.0,0.0,0.0,0.0,0.0,0.0,0.0,0.0,0.0,0.0,0.0,0.0,0.0,0.0,0.0,0.0,0.0,0.0,0.0,0.0,0.0,0.0,-1.7464,-1.87,0.0,0.0,0.0,0.0,0.0,0.0,0.0,0.0,-1.9608,0.0,0.0,0.0,0.0,0.0,0.0,0.0,0.0,0.0,0.0,0.0,0.0,0.0,0.0,0.0,0.0,0.0,0.0,0.0,0.0,0.0,0.0,0.0,0.0,0.0,0.0,0.0,0.0,0.0,0.0,0.0,0.0,0.0,0.0,0.0,0.0,0.0,0.0,0.0,0.0,0.0,0.0,0.0,0.0,0.0,0.0,0.0,0.0,0.0,0.0,0.0,0.0,0.0,0.0,0.0,0.0,-3.0425,-3.2216,-3.6195,-4.2505,-4.4146,-4.5095,-4.5244,-4.2721,-3.9215,-3.4767,0.0,0.0,0.0,0.0,0.0,0.0,0.0,0.0,0.0,0.0,0.0,0.0,0.0,0.0,0.0,0.0,0.0,0.0,0.0,0.0,0.0,0.0,0.0,0.0,0.0,0.0,0.0,0.0,0.0,0.0,0.0,0.0,0.0,0.0,0.0,0.0,0.0,0.0,0.0,-2.0778,-2.1069,0.0,0.0,0.0,0.0,0.0,0.0,0.0,0.0,-2.1881,0.0,0.0,0.0,0.0,0.0,0.0,0.0,0.0,0.0,0.0,0.0,0.0,0.0,0.0,0.0,0.0,0.0,0.0,0.0,0.0,0.0,0.0,0.0,0.0,0.0,0.0,0.0,0.0,0.0,0.0,0.0,0.0,0.0,0.0,0.0,0.0,0.0,0.0,0.0,0.0,0.0,0.0,0.0,0.0,0.0,0.0,0.0,0.0,0.0,0.0,0.0,0.0,0.0,0.0,0.0,-3.1559,-3.4646,-3.8686,-4.3648,-4.5155,-4.5992,-4.6262,-4.3234,-3.9739,0.0,0.0,0.0,0.0,0.0,0.0,0.0,0.0,0.0,0.0,0.0,0.0,0.0,0.0,0.0,0.0,0.0,0.0,0.0,0.0,0.0,0.0,0.0,0.0,0.0,0.0,0.0,0.0,0.0,0.0,0.0,0.0,0.0,0.0,0.0,0.0,0.0,0.0,0.0,0.0,-2.2516,-2.3103,-2.365,0.0,0.0,0.0,0.0,0.0,0.0,-2.4065,-2.3682,0.0,0.0,0.0,0.0,0.0,0.0,0.0,0.0,0.0,0.0,0.0,0.0,0.0,0.0,0.0,0.0,0.0,0.0,0.0,0.0,0.0,0.0,0.0,0.0,0.0,0.0,0.0,0.0,0.0,0.0,0.0,0.0,0.0,0.0,0.0,0.0,0.0,0.0,0.0,0.0,0.0,0.0,0.0,0.0,0.0,0.0,0.0,0.0,0.0,0.0,0.0,0.0,0.0,0.0,0.0,-3.2339,-3.6893,-4.0948,-4.4336,-4.5693,-4.6621,-4.7189,-4.3401,-3.973,0.0,0.0,0.0,0.0,0.0,0.0,0.0,0.0,0.0,0.0,0.0,0.0,0.0,0.0,0.0,0.0,0.0,0.0,0.0,0.0,0.0,0.0,0.0,0.0,0.0,0.0,0.0,0.0,0.0,0.0,0.0,0.0,0.0,0.0,0.0,0.0,0.0,0.0,0.0,0.0,0.0,-2.5023,-2.5325,-2.5466,0.0,0.0,0.0,0.0,-2.5948,-2.6401,0.0,0.0,0.0,0.0,0.0,0.0,0.0,0.0,0.0,0.0,0.0,0.0,0.0,0.0,0.0,0.0,0.0,0.0,0.0,0.0,0.0,0.0,0.0,0.0,0.0,0.0,0.0,0.0,0.0,0.0,0.0,0.0,0.0,0.0,0.0,0.0,0.0,0.0,0.0,0.0,0.0,0.0,0.0,0.0,0.0,0.0,0.0,0.0,0.0,0.0,0.0,0.0,0.0,0.0,0.0,0.0,-3.3165,-3.7461,-4.1507,-4.5035,-4.5933,-4.6608,-4.7219,-4.2673,-3.8986,0.0,0.0,0.0,0.0,0.0,0.0,0.0,0.0,0.0,0.0,0.0,0.0,0.0,0.0,0.0,0.0,0.0,0.0,0.0,0.0,0.0,0.0,0.0,0.0,0.0,0.0,0.0,0.0,0.0,0.0,0.0,0.0,0.0,0.0,0.0,0.0,0.0,0.0,0.0,0.0,0.0,-2.6399,-2.6585,-2.7182,-2.7202,0.0,0.0,-2.9581,-2.9529,-3.1451,0.0,0.0,0.0,0.0,0.0,0.0,0.0,0.0,0.0,0.0,0.0,0.0,0.0,0.0,0.0,0.0,0.0,0.0,0.0,0.0,0.0,0.0,0.0,0.0,0.0,0.0,0.0,0.0,0.0,0.0,0.0,0.0,0.0,0.0,0.0,0.0,0.0,0.0,0.0,0.0,0.0,0.0,0.0,0.0,0.0,0.0,0.0,0.0,0.0,0.0,0.0,0.0,0.0,0.0,0.0,-3.2034,-3.4222,-3.9934,-4.3796,-4.5615,-4.6701,-4.7395,-4.7666,-4.2503,-3.8748,0.0,0.0,0.0,0.0,0.0,0.0,0.0,0.0,0.0,0.0,0.0,0.0,0.0,0.0,0.0,0.0,0.0,0.0,0.0,0.0,0.0,0.0,0.0,0.0,0.0,0.0,0.0,0.0,0.0,0.0,0.0,0.0,0.0,0.0,0.0,0.0,0.0,0.0,0.0,0.0,0.0,0.0,-2.8691,-2.9361,0.0,0.0,0.0,-3.1564,-3.1171,0.0,0.0,0.0,0.0,0.0,0.0,0.0,0.0,0.0,0.0,0.0,0.0,0.0,0.0,0.0,0.0,0.0,0.0,0.0,0.0,0.0,0.0,0.0,0.0,0.0,0.0,0.0,0.0,0.0,0.0,0.0,0.0,0.0,0.0,0.0,0.0,0.0,0.0,0.0,0.0,0.0,0.0,0.0,0.0,0.0,0.0,0.0,0.0,0.0,0.0,0.0,0.0,0.0,0.0,0.0,0.0,0.0,-3.5037,-4.1881,-4.5696,-4.6275,-4.7399,-4.8007,-4.7946,-4.326,0.0,0.0,0.0,0.0,0.0,0.0,0.0,0.0,0.0,0.0,0.0,0.0,0.0,0.0,0.0,0.0,0.0,0.0,0.0,0.0,0.0,0.0,0.0,0.0,0.0,0.0,0.0,-1.4661,0.0,0.0,0.0,0.0,0.0,0.0,0.0,0.0,0.0,0.0,0.0,0.0,0.0,0.0,-2.9974,-3.0598,-3.1573,-3.2257,0.0,0.0,-3.3838,-3.3347,-3.5225,-3.5543,0.0,0.0,0.0,0.0,0.0,0.0,0.0,0.0,0.0,0.0,0.0,0.0,0.0,0.0,0.0,0.0,0.0,0.0,0.0,0.0,0.0,0.0,0.0,0.0,0.0,0.0,0.0,0.0,0.0,0.0,0.0,0.0,0.0,0.0,0.0,0.0,0.0,0.0,0.0,0.0,0.0,0.0,0.0,0.0,0.0,0.0,0.0,0.0,0.0,0.0,0.0,0.0,0.0,0.0,0.0,-3.5776,-4.2423,-4.6275,-4.6943,-4.7642,-4.8007,-4.7976,-4.5514,-4.2175,0.0,0.0,0.0,0.0,0.0,0.0,0.0,0.0,0.0,0.0,0.0,0.0,0.0,0.0,0.0,0.0,0.0,0.0,0.0,0.0,0.0,0.0,0.0,0.0,0.0,0.0,0.0,0.0,0.0,0.0,0.0,0.0,0.0,0.0,0.0,0.0,0.0,0.0,0.0,0.0,0.0,-3.1454,-3.1901,-3.3577,-3.4759,0.0,0.0,-3.6987,-3.6927,-3.9778,-4.0275,-3.499,0.0,0.0,0.0,0.0,0.0,0.0,0.0,0.0,0.0,0.0,0.0,0.0,0.0,0.0,0.0,0.0,0.0,0.0,0.0,0.0,0.0,0.0,0.0,0.0,0.0,0.0,0.0,0.0,0.0,0.0,0.0,0.0,0.0,0.0,0.0,0.0,0.0,0.0,0.0,0.0,0.0,0.0,0.0,0.0,0.0,0.0,0.0,0.0,0.0,0.0,0.0,0.0,0.0,-3.4961,-3.6111,-4.3289,-4.7313,-4.7987,-4.9059,-4.9457,-4.9071,-4.6629,-4.3046,0.0,0.0,0.0,0.0,0.0,0.0,0.0,0.0,0.0,0.0,0.0,0.0,0.0,0.0,0.0,0.0,0.0,0.0,0.0,0.0,0.0,0.0,0.0,0.0,0.0,0.0,0.0,0.0,-2.0588,-2.119,-2.0729,0.0,0.0,0.0,0.0,0.0,0.0,0.0,0.0,0.0,0.0,-3.4121,-3.5886,-3.7084,0.0,0.0,-3.8995,-3.9344,-3.8404,-3.9691,-3.946,-3.5436,-3.3846,0.0,0.0,0.0,0.0,0.0,0.0,0.0,0.0,0.0,0.0,0.0,0.0,0.0,0.0,0.0,0.0,0.0,0.0,0.0,0.0,0.0,0.0,0.0,0.0,0.0,0.0,0.0,0.0,0.0,0.0,0.0,0.0,0.0,0.0,0.0,0.0,0.0,0.0,0.0,0.0,0.0,0.0,0.0,0.0,0.0,0.0,0.0,0.0,0.0,0.0,0.0,0.0,-3.5872,-3.6948,-4.4159,-4.8235,-4.8912,-5.0082,-5.0482,-4.9959,-4.8026,-4.4819,0.0,0.0,0.0,0.0,0.0,0.0,0.0,0.0,0.0,0.0,0.0,0.0,0.0,0.0,0.0,0.0,0.0,0.0,0.0,0.0,0.0,0.0,0.0,0.0,0.0,0.0,0.0,0.0,-2.2432,-2.2696,-2.1471,0.0,0.0,0.0,0.0,0.0,0.0,0.0,0.0,0.0,0.0,-3.6466,-3.8328,-3.9131,-3.9529,-3.9691,-4.0078,-4.0084,-3.9141,-3.9533,-3.8995,-3.6203,0.0,0.0,0.0,0.0,0.0,0.0,0.0,0.0,0.0,0.0,0.0,0.0,0.0,0.0,0.0,0.0,0.0,0.0,0.0,0.0,0.0,0.0,0.0,0.0,0.0,0.0,0.0,0.0,0.0,0.0,-2.0478,0.0,0.0,0.0,0.0,0.0,0.0,0.0,0.0,0.0,0.0,0.0,0.0,0.0,0.0,0.0,0.0,0.0,0.0,0.0,0.0,0.0,0.0,-3.6517,-3.8402,-4.5114,-4.8943,-4.9682,-5.0359,-5.0728,-5.0667,-4.9989,-4.8059,-4.4707,0.0,0.0,0.0,0.0,0.0,0.0,0.0,0.0,0.0,0.0,0.0,0.0,0.0,0.0,0.0,0.0,0.0,0.0,0.0,0.0,0.0,0.0,0.0,0.0,0.0,0.0,-1.9416,-2.1509,-2.2841,0.0,0.0,0.0,0.0,0.0,0.0,0.0,0.0,0.0,0.0,-3.6154,-3.8152,-3.8575,-3.9026,-3.9412,-3.9348,-3.8964,-3.8851,-3.9468,-4.006,-3.9787,0.0,0.0,0.0,0.0,0.0,0.0,0.0,0.0,0.0,0.0,0.0,0.0,0.0,0.0,0.0,0.0,0.0,0.0,0.0,0.0,0.0,0.0,0.0,0.0,0.0,0.0,0.0,-2.8353,-2.7982,0.0,0.0,0.0,0.0,0.0,0.0,0.0,0.0,0.0,0.0,0.0,-3.4839,-3.6014,0.0,0.0,0.0,0.0,0.0,0.0,0.0,0.0,0.0,0.0,0.0,0.0,-3.7597,-3.9373,-4.5847,-4.9897,-5.1005,-5.1713,-5.1836,-5.1374,-5.0728,-4.8212,-4.3706,0.0,0.0,0.0,0.0,0.0,0.0,0.0,0.0,0.0,0.0,0.0,0.0,0.0,0.0,0.0,0.0,0.0,0.0,0.0,0.0,0.0,0.0,0.0,0.0,0.0,-2.2989,0.0,0.0,0.0,0.0,0.0,0.0,0.0,0.0,0.0,0.0,0.0,-3.3396,-3.4906,-3.7053,-3.8835,-3.9807,-4.0924,-4.1957,0.0,0.0,0.0,0.0,0.0,0.0,0.0,0.0,0.0,0.0,0.0,0.0,0.0,0.0,-3.5086,-3.1268,-3.1277,-3.191,-3.1902,0.0,0.0,0.0,0.0,0.0,0.0,0.0,0.0,0.0,0.0,0.0,0.0,0.0,0.0,0.0,0.0,-3.2288,0.0,0.0,0.0,0.0,0.0,0.0,0.0,0.0,-3.5786,-3.8327,-4.0221,-4.1166,-4.1881,0.0,-4.125,-3.8466,0.0,0.0,0.0,0.0,0.0,0.0,0.0,0.0,-3.8672,-4.0775,-4.6549,-5.0242,-5.1652,-5.2359,-5.2513,-5.2052,-5.1159,-4.8879,-4.5004,-4.1421,-3.8525,0.0,0.0,0.0,0.0,0.0,0.0,0.0,0.0,0.0,0.0,0.0,0.0,0.0,0.0,0.0,0.0,0.0,0.0,0.0,0.0,0.0,0.0,0.0,-2.5022,0.0,0.0,0.0,0.0,0.0,0.0,0.0,0.0,0.0,-3.0626,-3.3517,-3.6064,-3.7319,-3.899,-4.0191,-4.0615,0.0,0.0,0.0,0.0,0.0,0.0,0.0,-4.0678,-3.9686,-4.0008,-4.0606,-4.1302,-4.1869,-4.2087,-4.1857,0.0,0.0,-3.6179,-3.5846,-3.6303,-3.6303,-3.6691,-3.7145,-3.757,-3.8168,-3.8674,0.0,0.0,0.0,0.0,0.0,0.0,0.0,0.0,-3.9533,-3.7685,0.0,-3.6557,0.0,0.0,0.0,0.0,0.0,-3.514,0.0,0.0,-4.4641,-4.6751,-4.5431,-4.594,-4.6275,-4.6245,-4.4709,-4.3916,-4.3606,-3.9751,0.0,0.0,0.0,0.0,0.0,0.0,-3.9901,-4.2872,-4.7139,-5.0113,-5.1713,-5.239,-5.2698,-5.2637,-5.1405,-5.0051,-4.8532,-4.5614,-4.3364,-4.1903,-3.6837,0.0,0.0,0.0,0.0,0.0,0.0,0.0,0.0,0.0,0.0,0.0,0.0,0.0,0.0,0.0,0.0,0.0,0.0,0.0,0.0,-2.5868,0.0,0.0,0.0,0.0,0.0,0.0,0.0,0.0,0.0,0.0,-3.3753,-3.5946,-3.8294,-4.0269,0.0,0.0,0.0,0.0,-4.2109,-4.0769,-4.0863,-4.1005,-4.0461,-4.2124,-4.3381,-4.299,0.0,0.0,-4.6454,-4.5799,-4.5016,-4.4203,-4.498,-4.4743,-4.171,-4.0877,-4.0691,-4.0723,-4.0756,-4.0821,-4.0821,-4.1102,-4.1256,-4.9558,0.0,0.0,0.0,0.0,-4.2549,-4.4368,-4.7421,-4.6765,-4.5701,-4.4439,-4.3457,0.0,0.0,0.0,0.0,0.0,0.0,-4.1176,-4.4073,-4.5847,-4.7987,-5.0506,-5.023,-5.0685,-5.1722,-5.0266,-4.9854,-5.0266,-4.8163,-4.3852,-3.7618,0.0,0.0,0.0,0.0,-4.2264,-4.4316,-4.8054,-5.0818,-5.239,-5.2606,-5.2483,-5.2021,-5.1621,-5.0543,-4.8696,-4.7743,-4.607,-4.354,-4.0739,0.0,0.0,0.0,0.0,0.0,0.0,0.0,0.0,0.0,0.0,0.0,0.0,0.0,0.0,0.0,0.0,0.0,0.0,0.0,-2.8082,-2.9988,-3.0192,0.0,0.0,0.0,0.0,0.0,0.0,0.0,0.0,0.0,-3.8937,-3.9074,-3.9347,0.0,0.0,-4.0477,-4.0226,-4.1718,-4.29,-4.3274,0.0,0.0,0.0,-4.529,-4.5239,-4.5368,-4.6833,-4.7964,-4.7964,-4.8395,-4.8661,-4.8363,-4.8629,-4.8564,-4.7671,-4.5725,-4.4441,-4.4342,-4.4737,-4.51,-4.5133,-4.5527,-4.6055,-5.6523,-5.1869,-4.8898,-4.811,-4.8813,-4.8557,-5.0275,-5.3238,-5.2333,-5.1208,-4.9947,-4.9166,-4.6303,-4.2017,-4.0693,0.0,0.0,0.0,-4.5209,-4.9151,-4.8906,-5.0463,-5.3375,-5.3189,-5.354,-5.445,-5.3734,-5.3637,-5.4041,-5.21,-4.8795,-4.3997,0.0,0.0,-3.8971,-4.1765,-4.4168,-4.6092,-4.8877,-5.1124,-5.2667,-5.2729,-5.2513,-5.2113,-5.159,-5.0728,-4.9497,-4.8912,-4.762,-4.555,-4.34,-4.0888,0.0,0.0,0.0,0.0,0.0,0.0,0.0,0.0,0.0,0.0,0.0,-2.5721,0.0,0.0,0.0,0.0,-2.9493,-3.0134,-3.1215,-3.2071,0.0,0.0,0.0,0.0,0.0,0.0,0.0,-3.513,-3.8312,-4.101,-4.2248,-4.2015,-4.187,-4.2406,-4.2437,-4.2381,-4.2248,0.0,-4.5096,-4.5399,-4.6176,-4.6829,-4.7207,-4.7444,-4.7822,-4.8618,-4.9501,-5.0109,-5.0109,-5.0679,-5.0949,-5.0753,-5.0721,-5.0656,-5.0458,-4.8927,-4.7698,-4.7569,-4.7901,-4.8199,-4.8233,-4.8564,-4.9028,-6.1955,-6.0424,-5.4778,-5.341,-5.4783,-5.4252,-5.5409,-5.7603,-5.6509,-5.473,-5.2762,-5.3575,-5.0839,-4.5463,-4.4068,0.0,-4.8285,-4.7446,-4.9524,-5.3837,-5.3191,-5.3514,-5.4791,-5.4962,-5.5132,-5.524,-5.5407,-5.5544,-5.5468,-5.3032,-5.1673,-5.1414,-4.8049,-4.5586,-4.4106,-4.4519,-4.5906,-4.8201,-4.9726,-5.1185,-5.2667,-5.2667,-5.2637,-5.2606,-5.1374,-5.0667,-5.0574,-4.9374,-4.8389,-4.769,-4.5149,-4.3359,-4.24,0.0,0.0,0.0,0.0,0.0,0.0,0.0,0.0,0.0,0.0,0.0,0.0,0.0,0.0,0.0,-3.3364,0.0,-3.4646,-3.3256,0.0,0.0,0.0,-3.5088,-3.6935,-3.8503,-3.9673,-4.0384,0.0,0.0,-4.4159,0.0,-4.5415,-4.651,-4.6567,-4.6296,-4.5809,-4.7046,-4.7925,-4.7078,-4.7717,-4.7971,-4.7776,-4.9029,-5.0525,-5.1726,-5.2373,-5.2241,-5.2241,-5.2274,-5.2113,-5.1688,-5.159,-5.1425,-5.0928,-5.0794,-5.076,-5.0355,-5.0221,-5.0154,-5.0055,-5.0055,-5.0121,-6.3171,-6.249,-6.1003,-5.9987,-5.9226,-5.9065,-5.9669,-6.0599,-5.9282,-5.8181,-5.7273,-5.5909,-5.4063,-5.1863,-5.1673,-5.2032,-5.2841,-5.2771,-5.3607,-5.513,-5.4545,-5.4668,-5.5438,-5.5209,-5.5472,-5.6108,-5.59,-5.6022,-5.6507,-5.5204,-5.3461,-5.1506,-5.1022,-4.9522,-4.6936,-4.7565,-4.8554,-4.9817,-5.0655,-5.1615,-5.2622,-5.2206,-5.1959,-5.1929,-5.1128,-5.0451,-4.9928,-4.9789,-4.9378,-4.8666,-4.7302,-4.5559,-4.3451,-3.9207,0.0,0.0,0.0,0.0,0.0,0.0,0.0,0.0,0.0,-2.8562,-2.7194,0.0,-3.2335,0.0,-3.6619,-3.8723,-3.891,-3.8699,0.0,0.0,-3.8034,-3.8527,-4.0004,-4.1851,-4.2895,-4.2677,-4.4617,-4.6224,-4.6661,-4.7133,-4.7965,-4.9521,-4.734,-4.5845,-4.6487,-4.7649,-4.8381,-4.8312,-4.9544,-5.0579,-5.0422,-5.1051,-5.1711,-5.2122,-5.2302,-5.2409,-5.2409,-5.2409,-5.2343,-5.2213,-5.2179,-5.215,-5.2126,-5.216,-5.2126,-5.1955,-5.1156,-5.029,-5.0187,-5.0253,-5.0386,-6.3309,-6.2856,-6.2825,-6.2333,-6.1436,-6.1468,-6.166,-6.1996,-6.0907,-6.0096,-5.9451,-5.7351,-5.6017,-5.5317,-5.5023,-5.5017,-5.5115,-5.4838,-5.5253,-5.6115,-5.5468,-5.553,-5.6193,-5.6013,-5.6279,-5.6731,-5.6621,-5.6791,-5.7136,-5.6559,-5.5457,-5.3944,-5.3622,-5.2535,-5.092,-5.0296,-5.0293,-5.0822,-5.1553,-5.2041,-5.2267,-5.1809,-5.1076,-5.01,-4.9066,-4.8004,-4.6986,-4.6498,-4.6049,-4.5651,-4.4918,-4.3877,-4.2414,-3.9096,-3.6097,0.0,0.0,0.0,0.0,0.0,0.0,0.0,0.0,0.0,0.0,0.0,-3.5305,0.0,-3.8838,-4.0747,-4.02,-4.0581,-4.1054,-4.1612,-4.174,-4.2407,-4.4018,-4.5557,-4.6365,-4.6028,-4.7536,-4.8737,-4.9006,-4.9184,-4.9693,-5.0876,-4.9138,-4.8046,-4.8696,-4.9336,-4.971,-4.9774,-5.0719,-5.1573,-5.1721,-5.1941,-5.2155,-5.2227,-5.2302,-5.2409,-5.2409,-5.2409,-5.2409,-5.248,-5.2587,-5.2624,-5.2729,-5.2868,-5.2937,-5.2559,-5.2026,-5.1491,-5.1217,-5.1181,-5.1313,-6.2808,-6.2396,-6.2396,-6.2396,-6.2396,-6.2396,-6.2396,-6.2333,-6.1687,-6.0929,-6.0044,-5.8274,-5.7284,-5.6883,-5.609,-5.5922,-5.6138,-5.5347,-5.5622,-5.6748,-5.6115,-5.6176,-5.681,-5.7019,-5.7084,-5.7084,-5.737,-5.7495,-5.7495,-5.7227,-5.696,-5.6634,-5.544,-5.4652,-5.4175,-5.2503,-5.1556,-5.1495,-5.2301,-5.239,-5.1744,-5.1369,-5.011,-4.8061,-4.6576,-4.5072,-4.3557,-4.2385,-4.1783,-4.1783,-4.1338,-4.1219,-4.1377,-3.8482,-3.663,0.0,-3.407,0.0,0.0,0.0,0.0,0.0,0.0,0.0,0.0,-3.7524,-3.8598,-3.8781,-4.0816,-4.1785,-4.0995,-4.1484,-4.2842,-4.5186,-4.551,-4.6228,-4.7934,-4.8859,-4.9356,-4.9324,-5.009,-5.0666,-5.0755,-5.0743,-5.0781,-5.1253,-5.1075,-5.0934,-5.1356,-5.1232,-5.107,-5.1237,-5.1424,-5.1721,-5.2013,-5.2155,-5.2227,-5.2373,-5.2373,-5.2409,-5.2409,-5.2409,-5.2445,-5.2551,-5.2659,-5.2799,-5.2834,-5.311,-5.3178,-5.2694,-5.2662,-5.2629,-5.2381,-5.2277,-5.2409,-6.2464,-6.2396,-6.2396,-6.2396,-6.2396,-6.2396,-6.2396,-6.2333,-6.1687,-6.0676,-5.9475,-5.9096,-5.8451,-5.7683,-5.7324,-5.7011,-5.6898,-5.6567,-5.6563,-5.681,-5.6656,-5.6686,-5.681,-5.7019,-5.7084,-5.7084,-5.7401,-5.7495,-5.7495,-5.7227,-5.6106,-5.4237,-5.5052,-5.4282,-5.1971,0.0,0.0,0.0,-5.2592,-5.239,-5.1713,-5.091,-4.9512,-4.7361,-4.6263,0.0,-4.3548,-4.3374,-4.3331,-4.3331,-4.2857,0.0,0.0,0.0,0.0,0.0,0.0,0.0,0.0,0.0,0.0,0.0,-3.9925,-3.9191,-3.79,-3.9455,-4.1403,-4.3437,-4.4111,-4.4949,-4.6247,-4.6504,-4.6982,-4.8009,-4.8173,-4.8527,-4.9426,-4.9843,-5.0094,-5.0094,-5.0377,-5.0666,-5.089,-5.0858,-5.116,-5.1874,-5.1971,-5.223,-5.2786,-5.1944,-5.1307,-5.1424,-5.1819,-5.2046,-5.2302,-5.2404,-5.2434,-5.2373,-5.2409,-5.2442,-5.2409,-5.2409,-5.2409,-5.2445,-5.248,-5.2551,-5.2624,-5.2762,-5.2764,-5.2624,-5.2624,-5.2589,-5.2445,-5.2409,-5.2409,-6.3457,0.0,-6.3407,-6.3268,0.0,-6.2951,-6.273,-6.2365,-6.2067,-6.1308,-6.0329,-5.9838,-5.9112,-5.8216,-5.7947,-5.7473,-5.6923,-5.6858,-5.681,-5.681,-5.681,-5.681,-5.681,-5.6906,-5.6923,-5.6923,-5.7067,-5.7163,-5.7163,-5.7019,-5.6303,-5.5128,-5.5483,-5.4913,-5.3438,-5.3576,-5.3375,-5.2729,-5.2729,-5.239,-5.1713,-5.0787,-4.9408,-4.7665,0.0,0.0,0.0,0.0,0.0,0.0,0.0,0.0,0.0,0.0,0.0,-4.2556,-4.1454,-4.1177,-4.2032,-4.254,-4.3231,-4.4223,-4.439,-4.3676,-4.1829,-4.3361,-4.5011,-4.6266,-4.6711,-4.7327,-4.825,-4.8699,-4.9015,-4.9363,-4.9394,-4.9591,-5.0026,-5.0207,-5.0395,-5.0589,-5.0666,-5.0948,-5.1462,-5.1533,-5.1862,-5.2586,-5.2754,-5.2883,-5.3175,-5.2721,-5.2351,-5.2617,-5.273,-5.2992,-5.3324,-5.3324,-5.3159,-5.2967,-5.2904,-5.2738,-5.244,-5.2409,-5.2409,-5.2409,-5.2445,-5.2516,-5.2516,-5.2624,-5.2694,-5.2587,-5.2553,-5.2518,-5.2445,-5.2409,-5.2409,-6.4429,-6.4398,-6.4346,-6.3936,-6.3388,-6.3356,-6.2928,-6.2266,0.0,0.0,0.0,-6.0383,-5.9451,-5.8508,-5.8235,-5.7621,-5.681,-5.681,-5.681,-5.681,-5.681,-5.681,-5.681,-5.681,-5.681,-5.681,-5.681,-5.681,-5.681,-5.681,-5.681,-5.6748,-5.6176,-5.5807,-5.5622,-5.4514,-5.356,-5.2914,-5.279,-5.239,-5.1713,-5.091,-4.9713,-4.8122,-4.6849,-4.5404,-4.3967,-4.3226,-4.2625,-4.216,-4.2153,-4.2364,-4.2765,-4.2792,-4.3033,-4.3519,-4.3575,-4.4254,-4.5728,-4.6003,-4.6617,-4.7784,-4.7847,-4.7314,-4.5978,-4.7253,-4.813,-4.8256,-4.8731,-4.9078,-4.9078,-4.9552,-4.99,-4.99,-4.99,-5.001,-5.02,-5.0285,-5.0505,-5.0942,-5.1083,-5.1424,-5.2262,-5.2359,-5.265,-5.3298,-5.3459,-5.3556,-5.3628,-5.3473,-5.3331,-5.3607,-5.3574,-5.3782,-5.4194,-5.4199,-5.3997,-5.3622,-5.3427,-5.3165,-5.2738,-5.2473,-5.2409,-5.2409,-5.2516,-5.2516,-5.2445,-5.2622,-5.2694,-5.2445,-5.248,-5.2551,-5.2445,-5.2409,-5.2409,-6.414,-6.414,-6.385,-6.3339,-6.2714,-6.2714,-6.2339,-6.1765,-6.1966,-6.1689,-6.1029,-6.0639,-5.9643,-5.8155,-5.8107,-5.7621,-5.684,-5.681,-5.681,0.0,-5.681,-5.681,-5.681,-5.681,-5.681,-5.681,-5.681,-5.681,-5.681,-5.681,-5.681,-5.681,-5.6717,-5.6347,-5.5684,-5.4976,-5.4222,-5.3545,-5.2961,-5.239,-5.1713,-5.1339,-5.0214,-4.8213,-4.7728,-4.6815,-4.5526,-4.469,-4.4348,-4.4552,-4.3693,-4.41,-4.6129,-4.5619,-4.6276,-4.8553,-4.8285,-4.8355,-4.9119,-4.9253,-4.9269,-4.9268,-4.9299,-4.8985,-4.8224,-4.852,-4.8983,-4.9552,-4.9679,-4.9773,-4.9734,-4.9837,-4.99,-4.9931,-4.9931,-4.9931,-5.0003,-5.0381,-5.0877,-5.1467,-5.1649,-5.2133,-5.2935,-5.2986,-5.3276,-5.4009,-5.4244,-5.4438,-5.4697,-5.4208,-5.3642,-5.3655,-5.377,-5.3918,-5.4098,-5.3995,-5.3967,-5.4058,-5.3503,-5.3148,-5.3063,-5.2669,-5.2407,-5.2373,-5.2409,-5.2409,-5.2409,-5.2409,-5.248,-5.2409,-5.2445,-5.2445,-5.2409,-5.2373,-5.2373,-6.4977,-6.4892,-6.4412,-6.3797,-6.3142,-6.2393,-6.1894,-6.1582,-6.1563,-6.1477,-6.1265,-6.0671,-5.9756,-5.8696,-5.8146,-5.7523,-5.681,-5.681,-5.681,-5.681,-5.681,-5.681,-5.681,-5.681,-5.681,-5.681,-5.681,-5.681,-5.681,-5.681,-5.681,-5.681,-5.681,-5.644,-5.5715,-5.5407,-5.4914,-5.4222,-5.3591,-5.2944,-5.2267,-5.1778,-5.123,-5.059,-5.0136,-4.9603,-4.9035,-4.8645,-4.8157,-4.7599,-4.7303,-4.7484,-4.8173,-4.8082,-4.8569,-4.9797,-4.9615,-4.9584,-4.986,-4.9693,-4.9493,-4.9291,-4.9281,-4.9157,-4.8845,-4.9221,-4.9584,-4.986,-4.99,-4.99,-4.99,-4.99,-4.99,-4.99,-5.0327,-5.066,-5.0731,-5.12,-5.1758,-5.2244,-5.2348,-5.2756,-5.3783,-5.3808,-5.4027,-5.4754,-5.4956,-5.5053,-5.5312,-5.4648,-5.4247,-5.4684,-5.4749,-5.4633,-5.4502,-5.4397,-5.4142,-5.3644,-5.3255,-5.2898,-5.2642,-5.2323,-5.2296,-5.223,-5.2302,-5.2373,-5.2409,-5.2409,-5.2409,-5.2409,-5.2409,-5.2409,-5.2373,-5.2302,-5.2266,-6.5592,-6.553,-6.4791,-6.4044,-6.3151,-6.1959,-6.1461,-6.141,-6.1206,-6.1206,-6.1317,-6.0493,-5.9711,-5.9061,-5.8184,-5.7457,-5.6871,-5.681,-5.681,-5.681,-5.681,-5.681,-5.681,-5.681,-5.681,-5.681,-5.681,-5.681,-5.681,-5.681,-5.681,-5.681,-5.681,-5.6532,-5.6009,-5.593,-5.5622,-5.4945,-5.4422,-5.3775,-5.2944,-5.2267,-5.2206,-5.2637,-5.2206,-5.1973,-5.2017,-5.1819,-5.1264,-5.0406,-5.0339,-5.0165,-4.979,-4.9846,-4.9953,-4.9993,-4.9836,-4.9773,-4.9773,-4.9452,-4.9169,-4.8996,-4.8996,-4.8996,-4.9037,-4.9609,-4.993,-4.9884,-5.0018,-5.0184,-5.0216,-5.0342,-5.0374,-5.0437,-5.1,-5.1438,-5.1582,-5.2108,-5.2684,-5.3102,-5.3126,-5.3431,-5.4164,-5.4405,-5.447,-5.4729,-5.4956,-5.4956,-5.4891,-5.447,-5.4518,-5.4922,-5.5037,-5.4752,-5.4646,-5.4437,-5.3981,-5.3128,-5.2899,-5.2642,-5.2257,-5.2138,-5.2046,-5.205,-5.2158,-5.223,-5.2266,-5.223,-5.223,-5.223,-5.223,-5.223,-5.223,-5.2122,-5.2086,-6.5351,-6.5173,-6.4274,-6.3125,-6.1976,-6.1205,-6.0897,-6.0897,-6.0845,-6.0845,-6.0835,-6.0137,-5.9459,-5.8812,-5.8104,-5.7426,-5.684,-5.681,-5.681,-5.681,-5.681,-5.681,-5.681,-5.681,-5.681,-5.681,-5.681,-5.681,-5.681,-5.681,-5.681,-5.681,-5.681,-5.6779,-5.6686,-5.6686,-5.6347,-5.5622,-5.553,-5.4914,-5.3683,-5.2975,-5.2637,-5.2698,-5.2667,-5.2695,-5.2887,-5.2154,-5.1827,-5.2063,-5.1172,-5.0801,-5.0985,-5.0403,-5.0061,-5.0205,-4.9684,-4.9372,-4.9372,-4.9128,-4.9037,-4.8996,-4.9027,-4.9058,-4.9089,-4.9801,-5.011,-4.9927,-5.0411,-5.0879,-5.0951,-5.1385,-5.1629,-5.1524,-5.1796,-5.2005,-5.2281,-5.2516,-5.3005,-5.389,-5.3979,-5.4301,-5.4308,-5.4341,-5.4146,-5.3718,-5.3751,-5.3718,-5.3758,-5.3563,-5.3434,-5.3531,-5.3492,-5.3499,-5.348,-5.3441,-5.3357,-5.3323,-5.29,-5.2519,-5.2375,-5.2122,-5.1831,-5.1831,-5.1868,-5.1941,-5.1871,-5.1835,-5.1904,-5.1941,-5.1941,-5.1871,-5.1868,-5.1868,-5.1868,-6.4405,-6.4313,-6.3125,-6.2086,-6.1225,-6.0917,-6.0794,-6.0794,-6.0794,-6.0794,-6.064,-5.9655,-5.9039,-5.8701,-5.7703,-5.7056,-5.681,-5.681,-5.681,-5.681,-5.681,-5.681,-5.681,-5.681,-5.681,-5.681,-5.681,-5.681,-5.681,-5.681,-5.681,-5.681,-5.681,-5.681,-5.681,-5.681,-5.6656,-5.6378,-5.5899,-5.5438,-5.4884,-5.4237,-5.3668,-5.3345,-5.3314,-5.3143,-5.2863,-5.2466,-5.2202,-5.1976,-5.1654,-5.1358,-5.1126,-5.0858,-5.06,-5.032,-4.9665,-4.925,-4.9128,-4.9037,-4.914,-4.9387,-4.9407,-4.9561,-5.0005,-5.0452,-5.0621,-5.0518,-5.0882,-5.1163,-5.1236,-5.1414,-5.157,-5.1675,-5.2323,-5.2825,-5.2784,-5.3154,-5.364,-5.3987,-5.3777,-5.3639,-5.3718,-5.3758,-5.3628,-5.333,-5.3265,-5.32,-5.3233,-5.2948,-5.2689,-5.2592,-5.2333,-5.2268,-5.2527,-5.2657,-5.2533,-5.2253,-5.1929,-5.181,-5.1852,-5.1834,-5.161,-5.161,-5.1721,-5.1794,-5.1798,-5.1762,-5.1762,-5.1762,-5.1794,-5.1794,-5.1647,-5.161,-5.1573,-6.3841,-6.3626,-6.2364,-6.1409,-6.0794,-6.0794,-6.0794,-6.0794,-6.0794,-6.0794,-6.064,-5.9378,-5.8793,-5.8627,-5.7426,-5.681,-5.681,-5.681,-5.681,-5.681,-5.681,-5.681,-5.681,-5.681,-5.681,-5.681,-5.681,-5.681,-5.681,-5.681,-5.681,-5.681,-5.681,-5.681,-5.681,-5.681,-5.681,-5.6748,-5.6286,-5.5992,-5.593,-5.553,-5.4884,-5.4037,-5.376,-5.3468,-5.3006,-5.2821,-5.2483,-5.2021,-5.2092,-5.1994,-5.15,-5.1425,-5.1076,-5.0496,-4.9968,-4.9605,-4.947,-4.947,-4.9603,-4.9909,-4.9959,-5.0174,-5.0648,-5.0981,-5.1191,-5.1191,-5.1487,-5.1709,-5.1588,-5.1786,-5.1923,-5.2081,-5.2892,-5.3238,-5.3289,-5.3606,-5.3729,-5.3737,-5.339,-5.3011,-5.3006,-5.2851,-5.2657,-5.2657,-5.2689,-5.2721,-5.2689,-5.2236,-5.1912,-5.1912,-5.1491,-5.1426,-5.1815,-5.1912,-5.1653,-5.1426,-5.1269,-5.1302,-5.1237,-5.135,-5.1424,-5.1424,-5.1573,-5.161,-5.1573,-5.1577,-5.1614,-5.1647,-5.1647,-5.161,-5.1462,-5.1424,-5.1387,-6.3841,-6.3595,-6.2364,-6.1379,-6.0794,-6.0794,-6.0794,-6.0794,-6.0794,-6.0794,-6.0609,-5.9378,-5.8793,-5.867,-5.7426,-5.681,-5.681,-5.681,-5.681,-5.681,-5.681,-5.681,-5.681,-5.681,-5.681,-5.681,-5.681,-5.681,-5.681,-5.681,-5.681,-5.681,-5.681,-5.681,-5.681,-5.681,-5.681,-5.6779,-5.6717,-5.6748,-5.6717,-5.6686,-5.5961,-5.4822,-5.4037,-5.3775,-5.3545,-5.3037,-5.2698,-5.2667,-5.2637,-5.2606,-5.2544,-5.2004,-5.1357,-5.0771,-5.0617,-5.0586,-5.0586,-5.0525,-5.0543,-5.0636,-5.0636,-5.0697,-5.0913,-5.1418,-5.1696,-5.1652,-5.2188,-5.2458,-5.2312,-5.2542,-5.3133,-5.3553,-5.3271,-5.3279,-5.3824,-5.3295,-5.3165,-5.3291,-5.3129,-5.2812,-5.23,-5.1653,-5.1529,-5.1459,-5.1361,-5.1426,-5.1491,-5.1329,-5.1329,-5.1329,-5.1269,-5.1237,-5.1232,-5.1394,-5.1329,-5.1237,-5.1237,-5.1237,-5.1237,-5.1237,-5.1237,-5.1237,-5.1312,-5.1312,-5.1275,-5.1275,-5.1312,-5.1312,-5.135,-5.1275,-5.1312,-5.1275,-5.1205,-6.2671,-6.184,-6.1379,-6.1009,-6.0794,-6.0794,-6.0794,-6.0794,-6.0794,-6.0794,-6.0547,-5.9378,-5.8793,-5.8701,-5.7426,-5.681,-5.681,-5.681,-5.681,-5.681,-5.681,-5.681,-5.681,-5.681,-5.681,-5.681,-5.681,-5.681,-5.681,-5.681,-5.681,-5.681,-5.681,-5.681,-5.681,-5.681,-5.681,-5.681,-5.681,-5.681,-5.681,-5.681,-5.6563,-5.6053,-5.5345,-5.4576,-5.3745,-5.3468,-5.3114,-5.2729,-5.2729,-5.2729,-5.2667,-5.2082,-5.159,-5.1344,-5.0944,-5.0697,-5.0697,-5.0697,-5.0882,-5.1282,-5.1344,-5.1528,-5.1929,-5.2206,-5.2359,-5.239,-5.2513,-5.251,-5.2105,-5.2193,-5.2492,-5.2833,-5.2597,-5.2571,-5.2893,-5.2731,-5.2514,-5.2489,-5.2268,-5.1815,-5.1653,-5.1329,-5.1237,-5.1237,-5.1237,-5.1237,-5.1237,-5.1237,-5.1237,-5.1237,-5.1237,-5.1237,-5.1237,-5.1237,-5.1237,-5.1237,-5.1237,-5.1237,-5.1237,-5.1237,-5.1237,-5.1237,-5.1237,-5.1237,-5.1237,-5.1237,-5.1237,-5.1237,-5.1237,-5.1237,-5.1237,-5.1237,-5.1237,-6.184,-6.0886,-6.0794,-6.0794,-6.0794,-6.0794,-6.0794,-6.0794,-6.0794,-6.0794,-6.0547,-5.9378,-5.8793,-5.8547,-5.7426,-5.681,-5.681,-5.681,-5.681,-5.681,-5.681,-5.681,-5.681,-5.681,-5.681,-5.681,-5.681,-5.681,-5.681,-5.681,-5.681,-5.681,-5.681,-5.681,-5.681,-5.681,-5.681,-5.681,-5.681,-5.681,-5.681,-5.681,-5.681,-5.6748,-5.63,-5.5407,-5.4068,-5.3791,-5.3406,-5.2821,-5.2729,-5.2729,-5.2667,-5.2267,-5.2021,-5.1959,-5.159,-5.1344,-5.1344,-5.1344,-5.1559,-5.199,-5.2021,-5.2267,-5.2667,-5.2729,-5.2637,-5.2483,-5.239,-5.2113,-5.1572,-5.129,-5.1487,-5.2008,-5.1998,-5.2036,-5.2372,-5.2107,-5.1874,-5.1815,-5.1556,-5.1264,-5.1237,-5.1237,-5.1237,-5.1237,-5.1237,-5.1237,-5.1237,-5.1237,-5.1237,-5.1237,-5.1237,-5.1237,-5.1237,-5.1237,-5.1237,-5.1237,-5.1237,-5.1237,-5.1237,-5.1237,-5.1237,-5.1237,-5.1237,-5.1237,-5.1237,-5.1237,-5.1237,-5.1237,-5.1237,-5.1237,-5.1237,-5.1237,-5.1237,-6.144,-6.0824,-6.0794,-6.0794,-6.0794,-6.0794,-6.0794,-6.0794,-6.0794,-6.0794,-6.0609,-5.9408,-5.8885,-5.8577,-5.7562,-5.6884,-5.6897,-5.6928,-5.6884,-5.684,-5.6823,-5.6792,-5.681,-5.6854,-5.6823,-5.681,-5.681,-5.681,-5.681,-5.681,-5.681,-5.681,-5.681,-5.681,-5.681,-5.681,-5.681,-5.681,-5.681,-5.681,-5.681,-5.681,-5.681,-5.681,-5.6748,-5.6053,-5.4683,-5.4068,-5.3498,-5.2883,-5.2729,-5.2729,-5.2729,-5.2637,-5.2667,-5.2637,-5.2637,-5.2637,-5.2606,-5.2544,-5.2483,-5.2606,-5.2667,-5.2637,-5.2698,-5.2637,-5.239,-5.2004,-5.1757,-5.1449,-5.0888,-5.0599,-5.0892,-5.1714,-5.1669,-5.1692,-5.192,-5.162,-5.1237,-5.1269,-5.1237,-5.1237,-5.1237,-5.1237,-5.1237,-5.1237,-5.1237,-5.1237,-5.1237,-5.1237,-5.1237,-5.1237,-5.1237,-5.1237,-5.1237,-5.1237,-5.1237,-5.1237,-5.1237,-5.1237,-5.1237,-5.1237,-5.1237,-5.1237,-5.1237,-5.1237,-5.1237,-5.1237,-5.1237,-5.1237,-5.1237,-5.1237,-5.1237,-5.1237,-5.1237,-6.1409,-6.0824,-6.0794,-6.0794,-6.0794,-6.0794,-6.0794,-6.0794,-6.0794,-6.0794,-6.0609,-5.987,-5.9369,-5.9083,-5.8296,-5.7798,-5.7567,-5.7567,-5.7308,-5.6928,-5.7058,-5.6997,-5.6867,-5.7027,-5.7027,-5.6823,-5.681,-5.681,-5.681,-5.681,-5.681,-5.681,-5.681,-5.681,-5.681,-5.681,-5.681,-5.681,-5.681,-5.681,-5.681,-5.681,-5.681,-5.681,-5.681,-5.6115,-5.4822,-5.4468,-5.4083,-5.3406,-5.2975,-5.2729,-5.2729,-5.2729,-5.2729,-5.2729,-5.2729,-5.2729,-5.2729,-5.2729,-5.2729,-5.2729,-5.2729,-5.2729,-5.2637,-5.2267,-5.2004,-5.1796,-5.15,-5.0986,-5.059,-5.061,-5.0834,-5.1218,-5.1017,-5.1064,-5.148,-5.1329,-5.1237,-5.1237,-5.1237,-5.1237,-5.1237,-5.1237,-5.1237,-5.1237,-5.1237,-5.1237,-5.1237,-5.1237,-5.1237,-5.1237,-5.1237,-5.1237,-5.1237,-5.1237,-5.1237,-5.1237,-5.1237,-5.1237,-5.1237,-5.1237,-5.1237,-5.1237,-5.1237,-5.1237,-5.1237,-5.1237,-5.1237,-5.1237,-5.1237,-5.1237,-5.1237,-5.1237,-5.1237,-6.1194,-6.0794,-6.0794,-6.0794,-6.0794,-6.0794,-6.0794,-6.0794,-6.0794,-6.0794,-6.0671,-5.9983,-5.9574,-5.9215,-5.8563,-5.8136,-5.7901,-5.7901,-5.7649,-5.7308,-5.7403,-5.7331,-5.7046,-5.7058,-5.6997,-5.6854,-5.681,-5.681,-5.681,-5.681,-5.681,-5.681,-5.681,-5.681,-5.681,-5.681,-5.681,-5.681,-5.681,-5.681,-5.681,-5.681,-5.6686,-5.6471,-5.6409,-5.5807,-5.4775,-5.4437,-5.4006,-5.3437,-5.2914,-5.2729,-5.2729,-5.2729,-5.2729,-5.2729,-5.2729,-5.2729,-5.2729,-5.2729,-5.2729,-5.2729,-5.2729,-5.2575,-5.2359,-5.1867,-5.1678,-5.1203,-5.0874,-5.0443,-5.0071,-5.0281,-5.0483,-5.0523,-5.065,-5.082,-5.1162,-5.1237,-5.1237,-5.1237,-5.1237,-5.1237,-5.1237,-5.1237,-5.1237,-5.1237,-5.1237,-5.1237,-5.1237,-5.1237,-5.1237,-5.1237,-5.1237,-5.1237,-5.1237,-5.1237,-5.1237,-5.1237,-5.1237,-5.1237,-5.1237,-5.1237,-5.1237,-5.1237,-5.1237,-5.1237,-5.1237,-5.1237,-5.1237,-5.1237,-5.1237,-5.1237,-5.1237,-5.1237,-5.1237,-6.0794,-6.0794,-6.0794,-6.0794,-6.0794,-6.0794,-6.0794,-6.0794,-6.0794,-6.0794,-6.0536,-5.9951,-5.949,-5.9204,-5.858,-5.8152,-5.794,-5.7949,-5.7859,-5.7728,-5.7728,-5.7557,-5.7445,-5.696,-5.6739,-5.6818,-5.6774,-5.6761,-5.6713,-5.6761,-5.681,-5.681,-5.681,-5.681,-5.681,-5.681,-5.681,-5.681,-5.6748,-5.6686,-5.6656,-5.6594,-5.6347,-5.5684,-5.5622,-5.5315,-5.4591,-5.3945,-5.3375,-5.2821,-5.2729,-5.2729,-5.2729,-5.2729,-5.2729,-5.2729,-5.2729,-5.2729,-5.2729,-5.2729,-5.2729,-5.2729,-5.2698,-5.2421,-5.1942,-5.1709,-5.124,-5.0432,-5.0133,-4.9874,-4.9631,-4.9787,-4.9955,-5.0042,-5.0473,-5.0896,-5.1129,-5.1199,-5.1129,-5.1167,-5.1237,-5.1237,-5.1237,-5.1237,-5.1237,-5.1237,-5.1237,-5.1237,-5.1237,-5.1237,-5.1237,-5.1237,-5.1237,-5.1237,-5.1237,-5.1237,-5.1237,-5.1237,-5.1237,-5.1237,-5.1237,-5.1237,-5.1237,-5.1237,-5.1237,-5.1237,-5.1237,-5.1237,-5.1237,-5.1237,-5.1237,-5.1237,-5.1237,-5.1237,-5.1237,-6.0794,-6.0794,-6.0794,-6.0794,-6.0794,-6.0794,-6.0794,-6.0794,-6.0794,-6.069,-6.0472,-6.0246,-5.9832,-5.9441,-5.9123,-5.8746,-5.8136,-5.7993,-5.7753,-5.7363,-5.7303,-5.7699,-5.7777,-5.6838,-5.6469,-5.6774,-5.6635,-5.6519,-5.6519,-5.6713,-5.681,-5.681,-5.681,-5.681,-5.681,-5.681,-5.681,-5.6717,-5.6207,-5.5992,-5.593,-5.5561,-5.5191,-5.5037,-5.4976,-5.4637,-5.3976,-5.3345,-5.2944,-5.276,-5.2729,-5.2729,-5.2729,-5.2698,-5.2653,-5.2729,-5.2729,-5.2729,-5.2729,-5.2729,-5.2729,-5.2729,-5.2729,-5.2466,-5.1964,-5.1438,-5.1002,-5.0455,-5.0078,-4.9743,-4.9724,-4.9852,-4.9971,-5.0168,-5.0473,-5.0743,-5.0934,-5.0972,-5.1048,-5.1162,-5.1199,-5.1199,-5.1167,-5.1199,-5.1167,-5.1199,-5.1199,-5.1199,-5.1162,-5.1199,-5.1162,-5.1199,-5.1237,-5.1237,-5.1237,-5.1237,-5.1237,-5.1237,-5.1237,-5.1237,-5.1237,-5.1237,-5.1237,-5.1237,-5.1237,-5.1237,-5.1237,-5.1237,-5.1237,-5.1237,-5.1237,-5.1237,-5.1237,-5.1237,-5.1237,-6.0794,-6.0794,-6.0794,-6.0794,-6.0794,-6.0794,-6.0794,-6.0794,-6.069,-6.0534,-6.0316,-5.981,-5.9455,-5.9108,-5.8647,-5.8211,-5.7723,-5.7693,-5.7453,-5.7124,-5.6877,-5.7221,-5.751,-5.6617,-5.6313,-5.6818,-5.6579,-5.6403,-5.647,-5.6664,-5.6761,-5.681,-5.681,-5.681,-5.681,-5.681,-5.681,-5.6748,-5.633,-5.6023,-5.5684,-5.5345,-5.4791,-5.4483,-5.4252,-5.3945,-5.3345,-5.2914,-5.2729,-5.2729,-5.2729,-5.2729,-5.2729,-5.2563,-5.2608,-5.2653,-5.2608,-5.2563,-5.2684,-5.2729,-5.2729,-5.2729,-5.2729,-5.2449,-5.2069,-5.163,-5.1274,-5.0693,-5.0272,-5.0079,-4.9884,-4.99,-4.9971,-5.0089,-5.0246,-5.0434,-5.0743,-5.0781,-5.082,-5.0934,-5.0972,-5.0972,-5.094,-5.094,-5.094,-5.0902,-5.0934,-5.0972,-5.101,-5.1048,-5.1124,-5.1162,-5.1199,-5.1237,-5.1237,-5.1237,-5.1237,-5.1237,-5.1237,-5.1237,-5.1237,-5.1237,-5.1237,-5.1237,-5.1237,-5.1237,-5.1237,-5.1237,-5.1237,-5.1237,-5.1237,-5.1237,-5.1237,-5.1237,-5.1237,-6.0794,-6.0794,-6.0794,-6.0794,-6.0794,-6.0742,-6.0742,-6.069,-6.0481,-6.0263,-5.9923,-5.9047,-5.8678,-5.8392,-5.7731,-5.7124,-5.7004,-5.7004,-5.6915,-5.6645,-5.6428,-5.6509,-5.7136,-5.6315,-5.6224,-5.6637,-5.6481,-5.6305,-5.6372,-5.6616,-5.6761,-5.6761,-5.681,-5.681,-5.681,-5.681,-5.681,-5.6779,-5.6563,-5.6224,-5.5684,-5.5345,-5.476,-5.416,-5.3822,-5.3498,-5.2975,-5.2729,-5.2653,-5.2653,-5.2684,-5.2653,-5.2653,-5.2397,-5.2397,-5.2518,-5.2427,-5.2397,-5.2608,-5.2653,-5.2729,-5.2729,-5.2729,-5.2479,-5.21,-5.1952,-5.1701,-5.0985,-5.0847,-5.0623,-5.0168,-5.0026,-4.9931,-4.9971,-4.9971,-5.0129,-5.0434,-5.055,-5.0589,-5.0589,-5.0628,-5.0589,-5.0589,-5.0589,-5.0628,-5.0781,-5.0743,-5.0781,-5.0858,-5.0934,-5.101,-5.1124,-5.1162,-5.1237,-5.1237,-5.1237,-5.1237,-5.1237,-5.1237,-5.1237,-5.1237,-5.1237,-5.1237,-5.1237,-5.1237,-5.1237,-5.1237,-5.1237,-5.1237,-5.1237,-5.1237,-5.1237,-5.1237,-5.1237,-5.1237,-6.0794,-6.0794,-6.0794,-6.0794,-6.0742,-6.0586,-6.0451,-6.0368,-6.0167,-5.9622,-5.9047,-5.8678,-5.8129,-5.7438,-5.7146,-5.6855,-5.6406,-5.6346,-5.6107,-5.5598,-5.5508,-5.5829,-5.6209,-5.5711,-5.5801,-5.6173,-5.5933,-5.591,-5.6127,-5.6372,-5.6616,-5.6761,-5.681,-5.681,-5.681,-5.681,-5.681,-5.6717,-5.6317,-5.5961,-5.5561,-5.4822,-5.4453,-5.4314,-5.3976,-5.3406,-5.2883,-5.2729,-5.2608,-5.2518,-5.2563,-5.2563,-5.2427,-5.2306,-5.2215,-5.22,-5.2291,-5.2306,-5.2397,-5.2563,-5.2729,-5.2729,-5.2698,-5.251,-5.2113,-5.2225,-5.2036,-5.1612,-5.159,-5.1398,-5.0848,-5.0247,-5.0058,-5.0026,-4.9963,-4.9931,-5.005,-5.0278,-5.0363,-5.0512,-5.055,-5.0589,-5.0589,-5.055,-5.055,-5.0589,-5.0589,-5.0628,-5.0705,-5.0781,-5.0896,-5.101,-5.101,-5.1086,-5.1162,-5.1162,-5.1237,-5.1237,-5.1237,-5.1162,-5.1162,-5.1162,-5.1162,-5.1199,-5.1237,-5.1237,-5.1237,-5.1237,-5.1237,-5.1237,-5.1199,-5.1129,-5.1129,-5.1129,-5.1016,-6.0424,-5.9901,-6.0209,-6.0096,-5.9666,-5.9532,-5.9378,-5.9222,-5.8993,-5.8602,-5.8113,-5.7707,-5.7161,-5.6697,-5.6346,-5.5987,-5.5777,-5.5718,-5.5538,-5.5239,-5.5209,-5.5388,-5.5568,-5.5448,-5.5508,-5.6008,-5.5782,-5.5761,-5.6028,-5.6274,-5.6567,-5.6761,-5.681,-5.681,-5.681,-5.681,-5.681,-5.6779,-5.644,-5.6053,-5.5561,-5.5068,-5.4514,-5.4652,-5.4314,-5.3868,-5.3283,-5.3024,-5.2749,-5.2443,-5.2337,-5.2291,-5.2155,-5.2033,-5.1972,-5.2017,-5.1972,-5.2124,-5.2261,-5.2397,-5.2563,-5.2684,-5.2729,-5.2678,-5.2533,-5.266,-5.2535,-5.2292,-5.2209,-5.2082,-5.1512,-5.0816,-5.0469,-5.0342,-5.0089,-4.9931,-4.9931,-5.005,-5.0129,-5.0246,-5.0246,-5.0246,-5.0246,-5.0324,-5.0285,-5.0246,-5.0402,-5.0473,-5.0628,-5.0705,-5.0781,-5.0858,-5.0858,-5.0934,-5.1048,-5.1124,-5.1199,-5.1237,-5.1237,-5.1124,-5.1048,-5.1048,-5.1086,-5.1086,-5.1092,-5.1237,-5.1237,-5.1237,-5.1129,-5.1199,-5.1129,-5.1054,-5.094,-5.0826,-5.0634,-5.9963,-5.8927,-5.9389,-5.9113,-5.837,-5.8319,-5.8196,-5.7961,-5.7674,-5.7549,-5.7278,-5.6479,-5.6308,-5.5927,-5.5508,-5.5239,-5.5209,-5.5239,-5.5209,-5.5209,-5.5209,-5.5239,-5.5269,-5.5299,-5.5418,-5.5978,-5.5651,-5.5711,-5.5979,-5.6225,-5.647,-5.6713,-5.681,-5.681,-5.681,-5.681,-5.681,-5.6779,-5.6748,-5.6502,-5.5961,-5.5684,-5.5284,-5.4775,-5.4884,-5.4514,-5.3914,-5.3454,-5.304,-5.2398,-5.2124,-5.1926,-5.1834,-5.1741,-5.1618,-5.1864,-5.1695,-5.1803,-5.2079,-5.2215,-5.2382,-5.2563,-5.2594,-5.2684,-5.2757,-5.2754,-5.2683,-5.2648,-5.252,-5.2408,-5.2009,-5.1502,-5.1132,-5.0879,-5.0365,-5.001,-4.9852,-4.9852,-4.9852,-4.9971,-5.001,-5.005,-5.001,-5.001,-4.9971,-4.9931,-5.0129,-5.0285,-5.0473,-5.0589,-5.0628,-5.0705,-5.0705,-5.0743,-5.0858,-5.0896,-5.0978,-5.101,-5.1016,-5.0972,-5.082,-5.0749,-5.0749,-5.094,-5.0978,-5.1016,-5.094,-5.0826,-5.0826,-5.1016,-5.0902,-5.0634,-5.0486,-5.0409,-5.0214,-5.9737,-5.9287,-5.8828,-5.8431,-5.8054,-5.7798,-5.7635,-5.7622,-5.7213,-5.6899,-5.6449,-5.6248,-5.5807,-5.5448,-5.5299,-5.5209,-5.5209,-5.5209,-5.5209,-5.5209,-5.5209,-5.5209,-5.5209,-5.5209,-5.5299,-5.5299,-5.531,-5.5531,-5.588,-5.6077,-5.6372,-5.6664,-5.681,-5.681,-5.681,-5.681,-5.681,-5.681,-5.681,-5.6686,-5.6471,-5.6023,-5.5561,-5.5068,-5.5345,-5.5161,-5.4483,-5.3791,-5.3161,-5.2854,-5.2136,-5.1663,-5.1463,-5.1479,-5.1479,-5.1463,-5.1479,-5.1618,-5.1757,-5.1972,-5.2017,-5.2139,-5.2185,-5.2185,-5.2246,-5.2382,-5.241,-5.2435,-5.243,-5.236,-5.2278,-5.1842,-5.1534,-5.1123,-5.0623,-5.0219,-4.977,-4.9573,-4.9573,-4.9741,-4.9821,-4.986,-4.9852,-4.986,-4.99,-4.9931,-5.005,-5.0129,-5.0207,-5.0324,-5.0434,-5.0473,-5.0512,-5.0589,-5.0666,-5.0666,-5.0634,-5.0666,-5.0634,-5.0596,-5.048,-5.037,-5.0409,-5.048,-5.0557,-5.0557,-5.048,-5.0402,-5.0402,-5.0518,-5.0324,-5.0097,-5.0058,-4.9979,-4.9939,-5.9124,-5.8329,-5.7892,-5.7304,-5.6829,-5.6647,-5.6495,-5.6312,-5.6158,-5.5957,-5.5718,-5.5658,-5.5508,-5.5239,-5.5209,-5.5209,-5.5209,-5.5209,-5.5209,-5.5209,-5.5209,-5.5209,-5.5209,-5.5209,-5.5209,-5.5209,-5.5259,-5.5381,-5.578,-5.5929,-5.6225,-5.6519,-5.6713,-5.681,-5.681,-5.681,-5.681,-5.681,-5.681,-5.681,-5.681,-5.6409,-5.6053,-5.5992,-5.5961,-5.5869,-5.522,-5.4582,-5.3783,-5.3017,-5.2265,-5.173,-5.1366,-5.1276,-5.1369,-5.1276,-5.1293,-5.1479,-5.1572,-5.1741,-5.1834,-5.2002,-5.2002,-5.2002,-5.2017,-5.2109,-5.217,-5.226,-5.2438,-5.2529,-5.2498,-5.1931,-5.1454,-5.1236,-5.0611,-5.0059,-4.9759,-4.9509,-4.9497,-4.9627,-4.9684,-4.9724,-4.9773,-4.9812,-4.986,-4.9971,-5.001,-5.001,-5.001,-5.0089,-5.0129,-5.0207,-5.0246,-5.0246,-5.0285,-5.0285,-5.0285,-5.0246,-5.0246,-5.0207,-5.0129,-4.9979,-4.986,-4.9852,-4.9892,-4.9979,-5.0129,-5.0089,-5.005,-4.9979,-4.9939,-4.986,-4.9661,-4.9541,-4.9533,-5.8431,-5.7201,-5.6879,-5.6264,-5.5591,-5.5531,-5.5411,-5.5259,-5.5239,-5.5269,-5.5209,-5.5209,-5.5209,-5.5209,-5.5209,-5.5209,-5.5209,-5.5209,-5.5209,-5.5209,-5.5209,-5.5209,-5.5209,-5.5209,-5.5209,-5.5209,-5.5179,-5.533,-5.5631,-5.588,-5.6127,-5.6421,-5.6664,-5.681,-5.681,-5.681,-5.681,-5.681,-5.681,-5.681,-5.681,-5.681,-5.681,-5.681,-5.681,-5.6453,-5.5818,-5.4962,-5.4127,-5.3209,-5.2382,-5.1708,-5.1319,-5.1229,-5.1229,-5.1229,-5.1229,-5.1369,-5.1433,-5.1479,-5.1602,-5.1741,-5.1787,-5.1834,-5.1787,-5.1787,-5.188,-5.2079,-5.2321,-5.244,-5.2332,-5.1814,-5.1518,-5.1259,-5.0565,-4.9792,-4.9842,-4.9738,-4.9439,-4.9522,-4.9509,-4.9546,-4.9564,-4.9573,-4.9653,-4.9622,-4.9693,-4.9773,-4.9773,-4.9812,-4.9892,-4.9971,-4.9971,-4.9892,-4.9892,-4.9892,-4.9852,-4.9812,-4.9812,-4.9773,-4.9693,-4.9573,-4.9452,-4.9372,-4.9372,-4.9461,-4.9653,-4.9733,-4.9573,-4.9533,-4.9613,-4.9501,-4.9219,-4.9097,-4.9056,-5.7801,-5.6617,-5.6043,-5.5541,-5.531,-5.528,-5.5229,-5.5209,-5.5209,-5.5209,-5.5209,-5.5209,-5.5209,-5.5209,-5.5209,-5.5209,-5.5209,-5.5209,-5.5209,-5.5209,-5.5209,-5.5209,-5.5209,-5.5209,-5.5209,-5.5209,-5.5209,-5.533,-5.5581,-5.583,-5.6127,-5.6372,-5.6616,-5.681,-5.681,-5.681,-5.681,-5.681,-5.681,-5.681,-5.681,-5.681,-5.681,-5.681,-5.6761,-5.6651,-5.6151,-5.5171,-5.414,-5.3549,-5.2167,-5.1409,-5.1229,-5.1229,-5.1229,-5.1229,-5.1229,-5.1199,-5.1276,-5.1323,-5.1323,-5.1416,-5.1369,-5.1323,-5.1369,-5.1416,-5.1416,-5.1323,-5.1711,-5.1987,-5.2048,-5.2228,-5.2055,-5.1656,-5.0984,-5.0463,-5.0302,-4.9708,-4.9474,-4.9424,-4.946,-4.9367,-4.9303,-4.9322,-4.9372,-4.9372,-4.9412,-4.9493,-4.9533,-4.9613,-4.9613,-4.9693,-4.9693,-4.9613,-4.9533,-4.9533,-4.9452,-4.9412,-4.9372,-4.9372,-4.9259,-4.9169,-4.9087,-4.9078,-4.9006,-4.9015,-4.9219,-4.925,-4.9006,-4.9006,-4.9169,-4.8975,-4.8728,-4.8646,-4.8728,-5.7102,-5.6515,-5.5701,-5.531,-5.5209,-5.5209,-5.5209,-5.5209,-5.5209,-5.5209,-5.5209,-5.5209,-5.5209,-5.5209,-5.5209,-5.5209,-5.5209,-5.5209,-5.5209,-5.5209,-5.5209,-5.5209,-5.5209,-5.5209,-5.5209,-5.5209,-5.5179,-5.5259,-5.5431,-5.5631,-5.5929,-5.6176,-5.647,-5.6664,-5.6761,-5.681,-5.681,-5.681,-5.681,-5.681,-5.681,-5.681,-5.681,-5.681,-5.681,-5.6664,-5.6237,-5.5701,-5.4789,-5.4134,-5.293,-5.2366,-5.2127,-5.1738,-5.1349,-5.1768,-5.1409,-5.1229,-5.1229,-5.1229,-5.1229,-5.1229,-5.1229,-5.1229,-5.1229,-5.1229,-5.1229,-5.1229,-5.1386,-5.1479,-5.1482,-5.1486,-5.1455,-5.1258,-5.1015,-5.0832,-5.0407,-4.9822,-4.942,-4.9402,-4.9384,-4.9332,-4.9316,-4.9233,-4.9324,-4.9375,-4.9415,-4.9425,-4.9403,-4.9412,-4.9412,-4.934,-4.9372,-4.9331,-4.925,-4.92,-4.9149,-4.9068,-4.8955,-4.8955,-4.8852,-4.8841,-4.8759,-4.8759,-4.8759,-4.8811,-4.8893,-4.8852,-4.88,-4.8759,-4.8676,-4.8604,-4.8604,-4.8604,-4.8646,-5.6233,-5.6173,-5.549,-5.5209,-5.5209,-5.5209,-5.5209,-5.5209,-5.5209,-5.5209,-5.5209,-5.5209,-5.5209,-5.5209,-5.5209,-5.5209,-5.5209,-5.5209,-5.5209,-5.5209,-5.5209,-5.5209,-5.5209,-5.5209,-5.5209,-5.5209,-5.5209,-5.5259,-5.528,-5.5431,-5.5681,-5.5979,-5.6323,-5.6567,-5.6713,-5.681,-5.681,-5.681,-5.681,-5.681,-5.681,-5.681,-5.681,-5.681,-5.6761,-5.6616,-5.6293,-5.5822,-5.5213,-5.4458,-5.359,-5.2935,-5.2606,-5.2007,-5.1588,-5.1738,-5.1379,-5.1229,-5.1229,-5.1229,-5.1229,-5.1229,-5.1229,-5.1229,-5.1229,-5.1229,-5.1229,-5.1229,-5.1229,-5.1229,-5.1186,-5.0966,-5.1072,-5.1028,-5.0773,-5.0683,-5.0577,-5.0184,-4.9924,-4.9907,-4.9843,-4.9548,-4.9438,-4.9211,-4.9233,-4.9367,-4.9377,-4.9387,-4.9346,-4.9346,-4.9274,-4.9295,-4.9419,-4.9316,-4.9017,-4.8934,-4.8841,-4.882,-4.8706,-4.8736,-4.8798,-4.8602,-4.8427,-4.8469,-4.851,-4.8438,-4.8438,-4.8521,-4.8604,-4.8604,-4.8604,-4.8604,-4.8604,-4.8563,-4.8563,-5.5289,-5.5319,-5.5209,-5.5209,-5.5209,-5.5209,-5.5209,-5.5209,-5.5209,-5.5209,-5.5209,-5.5209,-5.5209,-5.5209,-5.5209,-5.5209,-5.5209,-5.5209,-5.5209,-5.5209,-5.5209,-5.5209,-5.5209,-5.5209,-5.5209,-5.5209,-5.5209,-5.5209,-5.5179,-5.5229,-5.5581,-5.5979,-5.6176,-5.6519,-5.6713,-5.681,-5.681,-5.681,-5.681,-5.681,-5.681,-5.681,-5.681,-5.6761,-5.6761,-5.6567,-5.6047,-5.5554,-5.5005,-5.4411,-5.3762,-5.3144,-5.2815,-5.2247,-5.1917,-5.1618,-5.1379,-5.1229,-5.1229,-5.1229,-5.1229,-5.1229,-5.1229,-5.1229,-5.1229,-5.1229,-5.1229,-5.1229,-5.1229,-5.1229,-5.1199,-5.1169,-5.1126,-5.1036,-5.0933,-5.0933,-5.0919,-5.0876,-5.0652,-5.0563,-5.017,-4.9681,-4.9283,-4.9005,-4.9113,-4.9281,-4.9088,-4.9026,-4.9396,-4.9385,-4.9293,-4.9281,-4.9508,-4.9343,-4.887,-4.8817,-4.8979,-4.8936,-4.8791,-4.8852,-4.8974,-4.8645,-4.8175,-4.8175,-4.8218,-4.8133,-4.8091,-4.826,-4.8396,-4.8521,-4.8563,-4.8438,-4.8438,-4.8438,-4.8438,-5.5209,-5.5209,-5.5209,-5.5209,-5.5209,-5.5209,-5.5209,-5.5209,-5.5209,-5.5209,-5.5209,-5.5209,-5.5209,-5.5209,-5.5209,-5.5209,-5.5209,-5.5209,-5.5209,-5.5209,-5.5209,-5.5209,-5.5209,-5.5209,-5.5209,-5.5209,-5.5209,-5.5209,-5.5209,-5.5209,-5.5381,-5.5731,-5.6028,-5.6421,-5.6664,-5.6761,-5.681,-5.681,-5.681,-5.681,-5.681,-5.6761,-5.6713,-5.6567,-5.6567,-5.6274,-5.58,-5.5569,-5.52,-5.471,-5.4102,-5.3593,-5.3084,-5.2576,-5.2067,-5.1708,-5.1409,-5.1229,-5.1229,-5.1229,-5.1229,-5.1229,-5.1229,-5.1229,-5.1229,-5.1229,-5.1229,-5.1229,-5.1229,-5.1229,-5.1229,-5.1229,-5.1199,-5.1229,-5.1229,-5.1229,-5.1169,-5.1066,-5.0739,-5.0366,-4.9959,-4.9458,-4.9078,-4.8698,-4.8918,-4.9151,-4.8889,-4.8748,-4.9127,-4.9414,-4.9261,-4.9169,-4.9353,-4.9463,-4.9066,-4.9103,-4.9169,-4.9004,-4.8852,-4.8822,-4.8791,-4.8426,-4.8049,-4.8007,-4.7964,-4.7964,-4.8007,-4.8133,-4.8218,-4.8271,-4.8271,-4.8218,-4.8218,-4.8301,-4.8301,-5.5209,-5.5209,-5.5209,-5.5209,-5.5209,-5.5209,-5.5209,-5.5209,-5.5209,-5.5209,-5.5209,-5.5209,-5.5209,-5.5209,-5.5209,-5.5209,-5.5209,-5.5209,-5.5209,-5.5209,-5.5209,-5.5209,-5.5209,-5.5209,-5.5209,-5.5209,-5.5209,-5.5209,-5.5209,-5.5209,-5.5381,-5.5581,-5.578,-5.6176,-5.6567,-5.6761,-5.681,-5.681,-5.681,-5.6713,-5.6713,-5.6664,-5.6519,-5.6323,-5.6274,-5.6077,-5.5731,-5.554,-5.527,-5.483,-5.4371,-5.3982,-5.3414,-5.2815,-5.2187,-5.1828,-5.1528,-5.1229,-5.1229,-5.1229,-5.1229,-5.1229,-5.1229,-5.1229,-5.1229,-5.1229,-5.1229,-5.1229,-5.1229,-5.1229,-5.1229,-5.1229,-5.1229,-5.1229,-5.1229,-5.1229,-5.1139,-5.1066,-5.0543,-5.0065,-4.9764,-4.9584,-4.9086,-4.8769,-4.8793,-4.9148,-4.937,-4.9108,-4.8925,-4.9169,-4.9187,-4.9126,-4.9083,-4.9192,-4.927,-4.9075,-4.888,-4.8936,-4.8741,-4.8503,-4.8352,-4.8019,-4.7825,-4.7666,-4.7666,-4.7752,-4.7825,-4.7782,-4.788,-4.8007,-4.8037,-4.8067,-4.8091,-4.8133,-4.8091,-5.5209,-5.5209,-5.5209,-5.5209,-5.5209,-5.5209,-5.5209,-5.5209,-5.5209,-5.5209,-5.5209,-5.5209,-5.5209,-5.5209,-5.5209,-5.5209,-5.5209,-5.5209,-5.5209,-5.5209,-5.5209,-5.5209,-5.5209,-5.5209,-5.5209,-5.5209,-5.5209,-5.5209,-5.5209,-5.5209,-5.533,-5.5361,-5.545,-5.5838,-5.639,-5.6664,-5.6761,-5.6761,-5.6761,-5.6567,-5.647,-5.6421,-5.6274,-5.6077,-5.5876,-5.5618,-5.537,-5.517,-5.478,-5.4271,-5.4132,-5.3563,-5.2606,-5.2426,-5.1947,-5.1379,-5.1319,-5.1229,-5.1229,-5.1229,-5.1229,-5.1229,-5.1229,-5.1229,-5.1229,-5.1229,-5.1229,-5.1229,-5.1229,-5.1229,-5.1229,-5.1229,-5.1229,-5.1229,-5.1229,-5.1199,-5.1139,-5.1156,-5.0663,-5.0154,-5.0108,-4.9942,-4.9329,-4.8909,-4.8829,-4.9095,-4.9634,-4.9513,-4.9014,-4.9183,-4.9337,-4.9246,-4.9202,-4.9172,-4.9189,-4.8813,-4.8662,-4.8719,-4.8598,-4.8257,-4.8019,-4.7839,-4.7602,-4.7456,-4.7589,-4.7839,-4.7632,-4.7382,-4.7809,-4.8266,-4.8049,-4.8031,-4.8025,-4.8074,-4.82,-5.5209,-5.5209,-5.5209,-5.5209,-5.5209,-5.5209,-5.5209,-5.5209,-5.5209,-5.5209,-5.5209,-5.5209,-5.5209,-5.5209,-5.5209,-5.5209,-5.5209,-5.5209,-5.5209,-5.5209,-5.5209,-5.5209,-5.5209,-5.5209,-5.5209,-5.5209,-5.5209,-5.5209,-5.5209,-5.5209,-5.49,-5.482,-5.5109,-5.5486,-5.6152,-5.6519,-5.6519,-5.6519,-5.6372,-5.6225,-5.6176,-5.6127,-5.5967,-5.572,-5.5307,-5.4918,-5.469,-5.4449,-5.401,-5.3593,-5.3533,-5.3054,-5.2306,-5.2127,-5.1858,-5.1379,-5.1229,-5.1229,-5.1229,-5.1229,-5.1229,-5.1229,-5.1229,-5.1229,-5.1229,-5.1229,-5.1229,-5.1229,-5.1229,-5.1229,-5.1229,-5.1229,-5.1229,-5.1229,-5.1229,-5.1229,-5.1199,-5.1169,-5.09,-5.0421,-5.0166,-4.9883,-4.9344,-4.912,-4.9028,-4.8938,-4.9402,-4.9191,-4.8725,-4.9389,-4.9824,-4.9584,-4.9434,-4.9359,-4.9178,-4.8878,-4.8803,-4.9012,-4.8517,-4.7889,-4.7682,-4.7832,-4.7682,-4.7652,-4.7772,-4.7848,-4.7818,-4.7848,-4.8295,-4.8577,-4.8484,-4.8196,-4.7985,-4.8303,-4.8697,-5.47,-5.4521,-5.476,-5.485,-5.491,-5.5089,-5.5209,-5.5209,-5.5209,-5.5209,-5.5209,-5.5209,-5.5209,-5.5209,-5.5209,-5.5209,-5.5209,-5.5209,-5.5209,-5.5209,-5.5209,-5.5209,-5.5209,-5.5209,-5.5209,-5.5209,-5.5209,-5.5209,-5.5209,-5.5209,-5.4999,-5.483,-5.4769,-5.5217,-5.5773,-5.5963,-5.6274,-5.6225,-5.6127,-5.5979,-5.5869,-5.5648,-5.5368,-5.4959,-5.4529,-5.4029,-5.3792,-5.3443,-5.3103,-5.2935,-5.2755,-5.2516,-5.2097,-5.1798,-5.1648,-5.1349,-5.1229,-5.1229,-5.1229,-5.1229,-5.1229,-5.1229,-5.1229,-5.1229,-5.1229,-5.1229,-5.1229,-5.1229,-5.1229,-5.1229,-5.1229,-5.1229,-5.1229,-5.1229,-5.1229,-5.1229,-5.1229,-5.1199,-5.102,-5.0495,-5.0226,-4.9853,-4.9523,-4.9359,-4.9224,-4.9179,-4.9179,-4.8895,-4.8716,-4.9434,-5.0032,-4.9763,-4.9569,-4.9404,-4.9224,-4.9044,-4.906,-4.9269,-4.8716,-4.8087,-4.8267,-4.855,-4.8221,-4.7967,-4.8297,-4.8476,-4.8327,-4.8461,-4.882,-4.909,-4.9194,-4.87,-4.8087,-4.8506,-4.9164,-5.3803,-5.3324,-5.3892,-5.4221,-5.4341,-5.485,-5.5119,-5.5179,-5.5209,-5.5209,-5.5209,-5.5209,-5.5209,-5.5209,-5.5209,-5.5209,-5.5209,-5.5209,-5.5209,-5.5209,-5.5209,-5.5209,-5.5209,-5.5209,-5.5209,-5.5209,-5.5209,-5.5209,-5.5179,-5.4999,-5.497,-5.511,-5.508,-5.5159,-5.5228,-5.5436,-5.5747,-5.5717,-5.5668,-5.5489,-5.5329,-5.4858,-5.4518,-5.41,-5.3612,-5.3283,-5.3084,-5.2905,-5.2606,-5.2366,-5.2157,-5.1798,-5.1468,-5.1259,-5.1229,-5.1229,-5.1229,-5.1229,-5.1229,-5.1229,-5.1229,-5.1229,-5.1229,-5.1229,-5.1229,-5.1229,-5.1229,-5.1229,-5.1229,-5.1229,-5.1229,-5.1229,-5.1229,-5.1229,-5.1229,-5.1229,-5.1229,-5.1109,-5.093,-5.0614,-5.0435,-5.0182,-4.9883,-4.9673,-4.9763,-4.9853,-4.9912,-4.9853,-4.9703,-4.9583,-5.0002,-4.9763,-4.9553,-4.9449,-4.9299,-4.9209,-4.9344,-4.9553,-4.9359,-4.8865,-4.9149,-4.9179,-4.885,-4.876,-4.906,-4.9239,-4.9314,-4.9314,-4.9344,-4.9553,-4.9912,-4.9434,-4.8865,-4.9254,-4.9763,-5.3354,-5.3204,-5.3384,-5.3743,-5.4192,-5.4401,-5.476,-5.5149,-5.5209,-5.5179,-5.5209,-5.5209,-5.5149,-5.5209,-5.5209,-5.5209,-5.5209,-5.5209,-5.5209,-5.5209,-5.5209,-5.5209,-5.5209,-5.5209,-5.5209,-5.5209,-5.5209,-5.5179,-5.5089,-5.485,-5.488,-5.511,-5.495,-5.485,-5.479,-5.481,-5.4868,-5.4877,-5.4827,-5.4789,-5.451,-5.398,-5.3691,-5.3343,-5.2815,-5.2546,-5.2456,-5.2097,-5.1768,-5.1618,-5.1528,-5.1319,-5.1289,-5.1229,-5.1229,-5.1229,-5.1229,-5.1229,-5.1229,-5.1229,-5.1229,-5.1229,-5.1229,-5.1229,-5.1229,-5.1229,-5.1229,-5.1229,-5.1229,-5.1229,-5.1229,-5.1229,-5.1229,-5.1229,-5.1229,-5.1229,-5.1229,-5.1169,-5.099,-5.093,-5.0734,-5.069,-5.0391,-5.0451,-5.0571,-5.0661,-5.069,-5.0631,-5.0571,-5.0391,-5.0242,-5.0032,-4.9942,-4.9912,-4.9569,-4.9419,-4.9643,-4.9793,-4.9673,-4.9643,-4.9763,-4.9733,-4.9449,-4.9449,-4.9613,-5.0092,-5.0571,-5.0421,-5.0032,-5.0481,-5.075,-5.0182,-4.9793,-5.0092,-5.0272,-5.2636,-5.2456,-5.2695,-5.3174,-5.3743,-5.3803,-5.4042,-5.4371,-5.4401,-5.4521,-5.479,-5.479,-5.494,-5.5179,-5.5209,-5.5209,-5.5209,-5.5209,-5.5209,-5.5209,-5.5209,-5.5209,-5.5209,-5.5209,-5.5209,-5.5209,-5.5209,-5.5179,-5.5059,-5.491,-5.491,-5.5089,-5.47,-5.4491,-5.4371,-5.4211,-5.3961,-5.383,-5.374,-5.3822,-5.3563,-5.3144,-5.2905,-5.2665,-5.2157,-5.1917,-5.1798,-5.1349,-5.1259,-5.1229,-5.1229,-5.1229,-5.1229,-5.1229,-5.1229,-5.1229,-5.1229,-5.1229,-5.1229,-5.1229,-5.1229,-5.1229,-5.1229,-5.1229,-5.1229,-5.1229,-5.1229,-5.1229,-5.1229,-5.1229,-5.1229,-5.1229,-5.1229,-5.1229,-5.1229,-5.1229,-5.1229,-5.1229,-5.1199,-5.1199,-5.1169,-5.1169,-5.1169,-5.1229,-5.1199,-5.1079,-5.102,-5.102,-5.099,-5.093,-5.081,-5.0661,-5.0601,-5.0541,-5.0122,-4.9883,-5.0182,-5.0451,-5.0451,-5.0451,-5.0511,-5.0451,-5.0272,-5.0182,-5.0152,-5.0601,-5.102,-5.093,-5.0674,-5.1079,-5.1229,-5.081,-5.0481,-5.0661,-5.078,-5.1768,-5.1319,-5.1947,-5.2576,-5.3054,-5.3114,-5.3114,-5.3084,-5.3084,-5.3443,-5.4012,-5.4281,-5.467,-5.497,-5.5089,-5.5179,-5.5209,-5.5209,-5.5209,-5.5209,-5.5209,-5.5209,-5.5209,-5.5209,-5.5209,-5.5209,-5.5209,-5.5179,-5.5149,-5.494,-5.479,-5.5119,-5.482,-5.4371,-5.3653,-5.3653,-5.3373,-5.2833,-5.2833,-5.2905,-5.2905,-5.2546,-5.2127,-5.2037,-5.1648,-5.1289,-5.1289,-5.1229,-5.1229,-5.1229,-5.1229,-5.1229,-5.1229,-5.1229,-5.1229,-5.1229,-5.1229,-5.1229,-5.1229,-5.1229,-5.1229,-5.1229,-5.1229,-5.1229,-5.1229,-5.1229,-5.1229,-5.1229,-5.1229,-5.1229,-5.1229,-5.1229,-5.1229,-5.1229,-5.1229,-5.1229,-5.1229,-5.1229,-5.1229,-5.1229,-5.1229,-5.1229,-5.1229,-5.1229,-5.1229,-5.1229,-5.1229,-5.1229,-5.1229,-5.1229,-5.1169,-5.1109,-5.102,-5.093,-5.09,-5.072,-5.093,-5.1079,-5.102,-5.099,-5.09,-5.102,-5.1199,-5.093,-5.0661,-5.09,-5.1169,-5.105,-5.0973,-5.1139,-5.1229,-5.1229,-5.1199,-5.1169,-5.1109,-5.1379,-5.1289,-5.1917,-5.2306,-5.2426,-5.2426,-5.2426,-5.2396,-5.1887,-5.2396,-5.3443,-5.4341,-5.467,-5.4461,-5.485,-5.5029,-5.5119,-5.5059,-5.5179,-5.5209,-5.5209,-5.5119,-5.5149,-5.5059,-5.5089,-5.5209,-5.5209,-5.5089,-5.491,-5.467,-5.4431,-5.4371,-5.4132,-5.3503,-5.3114,-5.3114,-5.2576,-5.2097,-5.1947,-5.2157,-5.2306,-5.1887,-5.1439,-5.1439,-5.1229,-5.1229,-5.1229,-5.1229,-5.1229,-5.1229,-5.1229,-5.1229,-5.1229,-5.1229,-5.1229,-5.1229,-5.1229,-5.1229,-5.1229,-5.1229,-5.1229,-5.1229,-5.1229,-5.1229,-5.1229,-5.1229,-5.1229,-5.1229,-5.1229,-5.1229,-5.1229,-5.1229,-5.1229,-5.1229,-5.1229,-5.1229,-5.1229,-5.1229,-5.1229,-5.1229,-5.1229,-5.1229,-5.1229,-5.1229,-5.1229,-5.1229,-5.1229,-5.1229,-5.1229,-5.1229,-5.1229,-5.1169,-5.1199,-5.1169,-5.1229,-5.1229,-5.1229,-5.1229,-5.1139,-5.1169,-5.1229,-5.1229,-5.1229,-5.1229,-5.1169,-5.1229,-5.1229,-5.1199,-5.1199,-5.1229,-5.1229,-5.1229,-5.1229,-5.1199,-5.1199,-5.1229,-5.1289,-5.1618,-5.1768,-5.1768,-5.1768,-5.1768,-5.1738,-5.1678,-5.1887,-5.2396,-5.3324,-5.3803,-5.3713,-5.4162,-5.4581,-5.47,-5.473,-5.494,-5.5089,-5.5089,-5.494,-5.491,-5.476,-5.4401,-5.4431,-5.464,-5.461,-5.4401,-5.4401,-5.4162,-5.3773,-5.3294,-5.2995,-5.2785,-5.2336,-5.2007,-5.1738,-5.1379,-5.1498,-5.1798,-5.1439,-5.1229,-5.1229,-5.1229,-5.1229,-5.1229,-5.1229,-5.1229,-5.1229,-5.1229,-5.1229,-5.1229,-5.1229,-5.1229,-5.1229,-5.1229,-5.1229,-5.1229,-5.1182,-5.1182,-5.1135,-5.1182,-5.1182,-5.1229,-5.1229,-5.1229,-5.1229,-5.1229,-5.1229,-5.1229,-5.1229,-5.1229,-5.1229,-5.1229,-5.1229,-5.1229,-5.1229,-5.1229,-5.1229,-5.1229,-5.1229,-5.1229,-5.1229,-5.1229,-5.1229,-5.1229,-5.1229,-5.1229,-5.1229,-5.1229,-5.1229,-5.1229,-5.1229,-5.1229,-5.1229,-5.1229,-5.1229,-5.1229,-5.1229,-5.1229,-5.1229,-5.1229,-5.1229,-5.1229,-5.1229,-5.1229,-5.1229,-5.1229,-5.1229,-5.1229,-5.1229,-5.1229,-5.1229,-5.1229,-5.1229,-5.1229,-5.1229,-5.1229,-5.1229,-5.1229,-5.1259,-5.1319,-5.1798,-5.1738,-5.1439,-5.1917,-5.2426,-5.2875,-5.3204,-5.3623,-5.3922,-5.4042,-5.4431,-5.47,-5.494,-5.4551,-5.4281,-5.4162,-5.3922,-5.3773,-5.3862,-5.3713,-5.3443,-5.3503,-5.3443,-5.3114,-5.2875,-5.2636,-5.2247,-5.2007,-5.1798,-5.1468,-5.1229,-5.1229,-5.1259,-5.1229,-5.1229,-5.1229,-5.1229,-5.1229,-5.1229,-5.1229,-5.1229,-5.1229,-5.1229,-5.1229,-5.1229,-5.1229,-5.1229,-5.1182,-5.1041,-5.1088,-5.1135,-5.0917,-5.0994,-5.1041,-5.1088,-5.1088,-5.1041,-5.1088,-5.1088,-5.1041,-5.1041,-5.1182,-5.1182,-5.1182,-5.1182,-5.1182,-5.1182,-5.1135,-5.1135,-5.1135,-5.1182,-5.1182,-5.1182,-5.1182,-5.1182,-5.1182,-5.1182,-5.1182,-5.1182,-5.1229,-5.1229,-5.1229,-5.1229,-5.1229,-5.1229,-5.1229,-5.1229,-5.1229,-5.1229,-5.1229,-5.1229,-5.1229,-5.1229,-5.1229,-5.1229,-5.1229,-5.1229,-5.1229,-5.1229,-5.1229,-5.1229,-5.1229,-5.1229,-5.1229,-5.1229,-5.1229,-5.1229,-5.1229,-5.1229,-5.1229,-5.1229,-5.1229,-5.1229,-5.1229,-5.1182,-5.1349,-5.1319,-5.1289,-5.1349,-5.1768,-5.2426,-5.2995,-5.3324,-5.3324,-5.3384,-5.3384,-5.3563,-5.4192,-5.3922,-5.3593,-5.3503,-5.3623,-5.3443,-5.3204,-5.3234,-5.2845,-5.2695,-5.2576,-5.2396,-5.1828,-5.1618,-5.1558,-5.1409,-5.1439,-5.1229,-5.1229,-5.1229,-5.1229,-5.1229,-5.1229,-5.1229,-5.1229,-5.1229,-5.1229,-5.1229,-5.1229,-5.1229,-5.1182,-5.1135,-5.1041,-5.1041,-5.0994,-5.087,-5.0757,-5.0805,-5.0728,-5.0442,-5.0394,-5.0614,-5.0567,-5.0471,-5.0471,-5.0519,-5.0471,-5.0298,-5.0442,-5.0947,-5.1041,-5.1041,-5.1041,-5.1011,-5.1011,-5.0852,-5.0757,-5.0917,-5.1058,-5.1058,-5.1135,-5.1135,-5.1088,-5.1088,-5.1088,-5.1088,-5.0994,-5.1041,-5.1088,-5.1135,-5.1182,-5.1229,-5.1229,-5.1229,-5.1229,-5.1229,-5.1229,-5.1229,-5.1229,-5.1229,-5.1229,-5.1229,-5.1229,-5.1229,-5.1229,-5.1229,-5.1229,-5.1229,-5.1229,-5.1229,-5.1229,-5.1229,-5.1229,-5.1229,-5.1229]}]]